<?xml version="1.0" encoding="UTF-8" standalone="no" ?>
<gpx xmlns="http://www.topografix.com/GPX/1/1" xmlns:xsi="http://www.w3.org/2001/XMLSchema-instance" xsi:schemaLocation="http://www.topografix.com/GPX/1/1 http://www.topografix.com/GPX/1/1/gpx.xsd" version="1.1" creator="VisuGPX - https://www.visugpx.com">
  <metadata>
    <name>RANDO CHANTEUGES PEBRAC 33 KM</name>
    <desc><![CDATA[RANDO EN BOUCLE CHANTEUGES PEBRAC DE 33 KM .OPTION 26 KM A PEBRACNE PAS FAIRE LA BOUCLE DE 7 KM]]></desc>
  </metadata>
  <trk>
    <name><![CDATA[CHANTEUGES]]></name>
    <trkseg>
      <trkpt lat="45.07378" lon="3.53473">
        <ele>630.76</ele>
        <time>2016-10-30T07:05:57Z</time>
      </trkpt>
      <trkpt lat="45.07382" lon="3.53447">
        <ele>640.38</ele>
        <time>2016-10-30T07:06:11Z</time>
      </trkpt>
      <trkpt lat="45.07382" lon="3.53443">
        <ele>640.86</ele>
        <time>2016-10-30T07:06:16Z</time>
      </trkpt>
      <trkpt lat="45.07373" lon="3.53438">
        <ele>656.72</ele>
        <time>2016-10-30T07:06:39Z</time>
      </trkpt>
      <trkpt lat="45.0737" lon="3.53439">
        <ele>658.64</ele>
        <time>2016-10-30T07:07:05Z</time>
      </trkpt>
      <trkpt lat="45.07372" lon="3.53432">
        <ele>661.52</ele>
        <time>2016-10-30T07:07:27Z</time>
      </trkpt>
      <trkpt lat="45.07375" lon="3.53418">
        <ele>658.64</ele>
        <time>2016-10-30T07:07:43Z</time>
      </trkpt>
      <trkpt lat="45.07369" lon="3.53414">
        <ele>662.49</ele>
        <time>2016-10-30T07:08:04Z</time>
      </trkpt>
      <trkpt lat="45.0737" lon="3.53407">
        <ele>660.08</ele>
        <time>2016-10-30T07:08:19Z</time>
      </trkpt>
      <trkpt lat="45.07363" lon="3.53393">
        <ele>655.28</ele>
        <time>2016-10-30T07:08:31Z</time>
      </trkpt>
      <trkpt lat="45.07362" lon="3.53392">
        <ele>655.28</ele>
        <time>2016-10-30T07:08:32Z</time>
      </trkpt>
      <trkpt lat="45.07357" lon="3.53382">
        <ele>651.43</ele>
        <time>2016-10-30T07:08:48Z</time>
      </trkpt>
      <trkpt lat="45.07353" lon="3.53376">
        <ele>650.47</ele>
        <time>2016-10-30T07:09:02Z</time>
      </trkpt>
      <trkpt lat="45.07349" lon="3.53369">
        <ele>648.07</ele>
        <time>2016-10-30T07:09:22Z</time>
      </trkpt>
      <trkpt lat="45.07355" lon="3.53354">
        <ele>640.38</ele>
        <time>2016-10-30T07:09:35Z</time>
      </trkpt>
      <trkpt lat="45.07356" lon="3.5335">
        <ele>638.93</ele>
        <time>2016-10-30T07:09:50Z</time>
      </trkpt>
      <trkpt lat="45.07357" lon="3.53346">
        <ele>635.57</ele>
        <time>2016-10-30T07:10:06Z</time>
      </trkpt>
      <trkpt lat="45.07343" lon="3.53341">
        <ele>625.96</ele>
        <time>2016-10-30T07:10:26Z</time>
      </trkpt>
      <trkpt lat="45.07337" lon="3.53339">
        <ele>623.07</ele>
        <time>2016-10-30T07:10:40Z</time>
      </trkpt>
      <trkpt lat="45.07337" lon="3.53339">
        <ele>622.59</ele>
        <time>2016-10-30T07:10:56Z</time>
      </trkpt>
      <trkpt lat="45.0733" lon="3.53335">
        <ele>614.9</ele>
        <time>2016-10-30T07:11:13Z</time>
      </trkpt>
      <trkpt lat="45.07328" lon="3.53331">
        <ele>611.06</ele>
        <time>2016-10-30T07:11:32Z</time>
      </trkpt>
      <trkpt lat="45.07323" lon="3.53336">
        <ele>605.77</ele>
        <time>2016-10-30T07:11:44Z</time>
      </trkpt>
      <trkpt lat="45.0732" lon="3.53335">
        <ele>600.48</ele>
        <time>2016-10-30T07:12:00Z</time>
      </trkpt>
      <trkpt lat="45.0732" lon="3.53334">
        <ele>596.15</ele>
        <time>2016-10-30T07:12:14Z</time>
      </trkpt>
      <trkpt lat="45.07323" lon="3.53327">
        <ele>595.67</ele>
        <time>2016-10-30T07:12:19Z</time>
      </trkpt>
      <trkpt lat="45.07326" lon="3.53322">
        <ele>594.71</ele>
        <time>2016-10-30T07:12:24Z</time>
      </trkpt>
      <trkpt lat="45.07336" lon="3.53314">
        <ele>594.23</ele>
        <time>2016-10-30T07:12:36Z</time>
      </trkpt>
      <trkpt lat="45.07341" lon="3.53303">
        <ele>594.23</ele>
        <time>2016-10-30T07:12:43Z</time>
      </trkpt>
      <trkpt lat="45.07343" lon="3.53294">
        <ele>591.83</ele>
        <time>2016-10-30T07:12:56Z</time>
      </trkpt>
      <trkpt lat="45.07346" lon="3.53289">
        <ele>590.39</ele>
        <time>2016-10-30T07:13:14Z</time>
      </trkpt>
      <trkpt lat="45.07353" lon="3.53277">
        <ele>589.91</ele>
        <time>2016-10-30T07:13:23Z</time>
      </trkpt>
      <trkpt lat="45.07369" lon="3.53258">
        <ele>588.46</ele>
        <time>2016-10-30T07:13:39Z</time>
      </trkpt>
      <trkpt lat="45.07388" lon="3.53239">
        <ele>584.62</ele>
        <time>2016-10-30T07:13:56Z</time>
      </trkpt>
      <trkpt lat="45.07399" lon="3.53229">
        <ele>582.7</ele>
        <time>2016-10-30T07:14:06Z</time>
      </trkpt>
      <trkpt lat="45.07423" lon="3.53224">
        <ele>576.45</ele>
        <time>2016-10-30T07:14:23Z</time>
      </trkpt>
      <trkpt lat="45.07451" lon="3.53219">
        <ele>568.28</ele>
        <time>2016-10-30T07:14:43Z</time>
      </trkpt>
      <trkpt lat="45.07477" lon="3.53222">
        <ele>564.91</ele>
        <time>2016-10-30T07:15:03Z</time>
      </trkpt>
      <trkpt lat="45.075" lon="3.53223">
        <ele>561.07</ele>
        <time>2016-10-30T07:15:19Z</time>
      </trkpt>
      <trkpt lat="45.07531" lon="3.53228">
        <ele>558.66</ele>
        <time>2016-10-30T07:15:39Z</time>
      </trkpt>
      <trkpt lat="45.07553" lon="3.53239">
        <ele>557.7</ele>
        <time>2016-10-30T07:15:57Z</time>
      </trkpt>
      <trkpt lat="45.07575" lon="3.53265">
        <ele>557.22</ele>
        <time>2016-10-30T07:16:17Z</time>
      </trkpt>
      <trkpt lat="45.07601" lon="3.53268">
        <ele>558.18</ele>
        <time>2016-10-30T07:16:35Z</time>
      </trkpt>
      <trkpt lat="45.07619" lon="3.53269">
        <ele>559.14</ele>
        <time>2016-10-30T07:16:51Z</time>
      </trkpt>
      <trkpt lat="45.07649" lon="3.53278">
        <ele>555.3</ele>
        <time>2016-10-30T07:17:10Z</time>
      </trkpt>
      <trkpt lat="45.07675" lon="3.53257">
        <ele>551.45</ele>
        <time>2016-10-30T07:17:32Z</time>
      </trkpt>
      <trkpt lat="45.07702" lon="3.53226">
        <ele>547.61</ele>
        <time>2016-10-30T07:17:56Z</time>
      </trkpt>
      <trkpt lat="45.07713" lon="3.53211">
        <ele>545.2</ele>
        <time>2016-10-30T07:18:08Z</time>
      </trkpt>
      <trkpt lat="45.07709" lon="3.53182">
        <ele>542.32</ele>
        <time>2016-10-30T07:18:26Z</time>
      </trkpt>
      <trkpt lat="45.07708" lon="3.53179">
        <ele>541.84</ele>
        <time>2016-10-30T07:18:28Z</time>
      </trkpt>
      <trkpt lat="45.07706" lon="3.53171">
        <ele>540.88</ele>
        <time>2016-10-30T07:18:33Z</time>
      </trkpt>
      <trkpt lat="45.07696" lon="3.5314">
        <ele>540.88</ele>
        <time>2016-10-30T07:18:49Z</time>
      </trkpt>
      <trkpt lat="45.07695" lon="3.53135">
        <ele>540.88</ele>
        <time>2016-10-30T07:18:52Z</time>
      </trkpt>
      <trkpt lat="45.07686" lon="3.53111">
        <ele>540.4</ele>
        <time>2016-10-30T07:19:07Z</time>
      </trkpt>
      <trkpt lat="45.07679" lon="3.53085">
        <ele>538.48</ele>
        <time>2016-10-30T07:19:22Z</time>
      </trkpt>
      <trkpt lat="45.07676" lon="3.53051">
        <ele>534.63</ele>
        <time>2016-10-30T07:19:39Z</time>
      </trkpt>
      <trkpt lat="45.07692" lon="3.53028">
        <ele>532.71</ele>
        <time>2016-10-30T07:19:56Z</time>
      </trkpt>
      <trkpt lat="45.07712" lon="3.53009">
        <ele>530.3</ele>
        <time>2016-10-30T07:20:13Z</time>
      </trkpt>
      <trkpt lat="45.07734" lon="3.52982">
        <ele>528.38</ele>
        <time>2016-10-30T07:20:32Z</time>
      </trkpt>
      <trkpt lat="45.07757" lon="3.52958">
        <ele>526.46</ele>
        <time>2016-10-30T07:20:51Z</time>
      </trkpt>
      <trkpt lat="45.07776" lon="3.5293">
        <ele>525.02</ele>
        <time>2016-10-30T07:21:09Z</time>
      </trkpt>
      <trkpt lat="45.07798" lon="3.52905">
        <ele>525.02</ele>
        <time>2016-10-30T07:21:29Z</time>
      </trkpt>
      <trkpt lat="45.07819" lon="3.5289">
        <ele>525.5</ele>
        <time>2016-10-30T07:21:46Z</time>
      </trkpt>
      <trkpt lat="45.07842" lon="3.52884">
        <ele>526.94</ele>
        <time>2016-10-30T07:22:04Z</time>
      </trkpt>
      <trkpt lat="45.07861" lon="3.52876">
        <ele>529.34</ele>
        <time>2016-10-30T07:22:19Z</time>
      </trkpt>
      <trkpt lat="45.07866" lon="3.5287">
        <ele>529.82</ele>
        <time>2016-10-30T07:22:24Z</time>
      </trkpt>
      <trkpt lat="45.07868" lon="3.52865">
        <ele>529.82</ele>
        <time>2016-10-30T07:22:28Z</time>
      </trkpt>
      <trkpt lat="45.07871" lon="3.52843">
        <ele>531.27</ele>
        <time>2016-10-30T07:22:42Z</time>
      </trkpt>
      <trkpt lat="45.07859" lon="3.52826">
        <ele>536.07</ele>
        <time>2016-10-30T07:22:56Z</time>
      </trkpt>
      <trkpt lat="45.07845" lon="3.52802">
        <ele>541.84</ele>
        <time>2016-10-30T07:23:13Z</time>
      </trkpt>
      <trkpt lat="45.07845" lon="3.5277">
        <ele>543.76</ele>
        <time>2016-10-30T07:23:31Z</time>
      </trkpt>
      <trkpt lat="45.07863" lon="3.52754">
        <ele>543.76</ele>
        <time>2016-10-30T07:23:46Z</time>
      </trkpt>
      <trkpt lat="45.07872" lon="3.52745">
        <ele>544.24</ele>
        <time>2016-10-30T07:23:54Z</time>
      </trkpt>
      <trkpt lat="45.07883" lon="3.52739">
        <ele>545.69</ele>
        <time>2016-10-30T07:24:04Z</time>
      </trkpt>
      <trkpt lat="45.07907" lon="3.52731">
        <ele>548.09</ele>
        <time>2016-10-30T07:24:22Z</time>
      </trkpt>
      <trkpt lat="45.07928" lon="3.52729">
        <ele>550.97</ele>
        <time>2016-10-30T07:24:38Z</time>
      </trkpt>
      <trkpt lat="45.0793" lon="3.52713">
        <ele>552.41</ele>
        <time>2016-10-30T07:24:48Z</time>
      </trkpt>
      <trkpt lat="45.07927" lon="3.52708">
        <ele>552.41</ele>
        <time>2016-10-30T07:24:52Z</time>
      </trkpt>
      <trkpt lat="45.0791" lon="3.52694">
        <ele>554.34</ele>
        <time>2016-10-30T07:25:07Z</time>
      </trkpt>
      <trkpt lat="45.079" lon="3.52672">
        <ele>558.18</ele>
        <time>2016-10-30T07:25:23Z</time>
      </trkpt>
      <trkpt lat="45.07906" lon="3.52661">
        <ele>560.11</ele>
        <time>2016-10-30T07:25:31Z</time>
      </trkpt>
      <trkpt lat="45.07932" lon="3.52646">
        <ele>562.03</ele>
        <time>2016-10-30T07:25:52Z</time>
      </trkpt>
      <trkpt lat="45.07945" lon="3.52618">
        <ele>563.47</ele>
        <time>2016-10-30T07:26:10Z</time>
      </trkpt>
      <trkpt lat="45.07955" lon="3.52592">
        <ele>566.35</ele>
        <time>2016-10-30T07:26:27Z</time>
      </trkpt>
      <trkpt lat="45.07964" lon="3.52566">
        <ele>568.28</ele>
        <time>2016-10-30T07:26:44Z</time>
      </trkpt>
      <trkpt lat="45.07974" lon="3.52538">
        <ele>570.2</ele>
        <time>2016-10-30T07:27:00Z</time>
      </trkpt>
      <trkpt lat="45.07983" lon="3.5251">
        <ele>574.04</ele>
        <time>2016-10-30T07:27:17Z</time>
      </trkpt>
      <trkpt lat="45.07987" lon="3.52483">
        <ele>577.89</ele>
        <time>2016-10-30T07:27:34Z</time>
      </trkpt>
      <trkpt lat="45.07985" lon="3.5247">
        <ele>578.85</ele>
        <time>2016-10-30T07:27:44Z</time>
      </trkpt>
      <trkpt lat="45.07976" lon="3.52441">
        <ele>585.58</ele>
        <time>2016-10-30T07:28:03Z</time>
      </trkpt>
      <trkpt lat="45.0797" lon="3.52417">
        <ele>592.31</ele>
        <time>2016-10-30T07:28:18Z</time>
      </trkpt>
      <trkpt lat="45.07964" lon="3.52398">
        <ele>594.23</ele>
        <time>2016-10-30T07:28:29Z</time>
      </trkpt>
      <trkpt lat="45.07958" lon="3.52393">
        <ele>593.75</ele>
        <time>2016-10-30T07:28:34Z</time>
      </trkpt>
      <trkpt lat="45.07946" lon="3.52393">
        <ele>591.83</ele>
        <time>2016-10-30T07:28:43Z</time>
      </trkpt>
      <trkpt lat="45.07944" lon="3.52392">
        <ele>591.35</ele>
        <time>2016-10-30T07:28:48Z</time>
      </trkpt>
      <trkpt lat="45.07927" lon="3.52403">
        <ele>588.95</ele>
        <time>2016-10-30T07:29:03Z</time>
      </trkpt>
      <trkpt lat="45.07908" lon="3.52411">
        <ele>588.46</ele>
        <time>2016-10-30T07:29:16Z</time>
      </trkpt>
      <trkpt lat="45.07886" lon="3.52422">
        <ele>586.54</ele>
        <time>2016-10-30T07:29:33Z</time>
      </trkpt>
      <trkpt lat="45.07859" lon="3.52425">
        <ele>584.62</ele>
        <time>2016-10-30T07:29:52Z</time>
      </trkpt>
      <trkpt lat="45.07836" lon="3.52414">
        <ele>586.06</ele>
        <time>2016-10-30T07:30:09Z</time>
      </trkpt>
      <trkpt lat="45.07822" lon="3.52397">
        <ele>587.02</ele>
        <time>2016-10-30T07:30:24Z</time>
      </trkpt>
      <trkpt lat="45.07813" lon="3.52384">
        <ele>590.87</ele>
        <time>2016-10-30T07:30:35Z</time>
      </trkpt>
      <trkpt lat="45.07799" lon="3.5237">
        <ele>594.71</ele>
        <time>2016-10-30T07:30:48Z</time>
      </trkpt>
      <trkpt lat="45.07779" lon="3.52353">
        <ele>598.56</ele>
        <time>2016-10-30T07:31:06Z</time>
      </trkpt>
      <trkpt lat="45.0776" lon="3.52334">
        <ele>601.92</ele>
        <time>2016-10-30T07:31:23Z</time>
      </trkpt>
      <trkpt lat="45.07739" lon="3.52312">
        <ele>603.85</ele>
        <time>2016-10-30T07:31:41Z</time>
      </trkpt>
      <trkpt lat="45.07722" lon="3.52293">
        <ele>604.81</ele>
        <time>2016-10-30T07:31:57Z</time>
      </trkpt>
      <trkpt lat="45.07703" lon="3.52273">
        <ele>604.33</ele>
        <time>2016-10-30T07:32:14Z</time>
      </trkpt>
      <trkpt lat="45.07684" lon="3.52252">
        <ele>604.81</ele>
        <time>2016-10-30T07:32:32Z</time>
      </trkpt>
      <trkpt lat="45.07667" lon="3.52226">
        <ele>602.88</ele>
        <time>2016-10-30T07:32:48Z</time>
      </trkpt>
      <trkpt lat="45.0765" lon="3.52201">
        <ele>601.44</ele>
        <time>2016-10-30T07:33:04Z</time>
      </trkpt>
      <trkpt lat="45.07638" lon="3.52189">
        <ele>601.44</ele>
        <time>2016-10-30T07:33:14Z</time>
      </trkpt>
      <trkpt lat="45.07625" lon="3.52178">
        <ele>600.96</ele>
        <time>2016-10-30T07:33:25Z</time>
      </trkpt>
      <trkpt lat="45.07605" lon="3.52157">
        <ele>600.96</ele>
        <time>2016-10-30T07:33:42Z</time>
      </trkpt>
      <trkpt lat="45.07587" lon="3.52139">
        <ele>600</ele>
        <time>2016-10-30T07:33:56Z</time>
      </trkpt>
      <trkpt lat="45.07565" lon="3.52114">
        <ele>600.48</ele>
        <time>2016-10-30T07:34:15Z</time>
      </trkpt>
      <trkpt lat="45.0755" lon="3.52085">
        <ele>600.48</ele>
        <time>2016-10-30T07:34:34Z</time>
      </trkpt>
      <trkpt lat="45.07545" lon="3.5205">
        <ele>602.4</ele>
        <time>2016-10-30T07:34:51Z</time>
      </trkpt>
      <trkpt lat="45.07545" lon="3.52048">
        <ele>602.4</ele>
        <time>2016-10-30T07:34:52Z</time>
      </trkpt>
      <trkpt lat="45.07567" lon="3.52027">
        <ele>600.96</ele>
        <time>2016-10-30T07:35:10Z</time>
      </trkpt>
      <trkpt lat="45.07591" lon="3.52007">
        <ele>599.52</ele>
        <time>2016-10-30T07:35:29Z</time>
      </trkpt>
      <trkpt lat="45.07619" lon="3.51994">
        <ele>595.19</ele>
        <time>2016-10-30T07:35:49Z</time>
      </trkpt>
      <trkpt lat="45.07645" lon="3.5198">
        <ele>591.83</ele>
        <time>2016-10-30T07:36:08Z</time>
      </trkpt>
      <trkpt lat="45.07674" lon="3.51975">
        <ele>588.95</ele>
        <time>2016-10-30T07:36:27Z</time>
      </trkpt>
      <trkpt lat="45.07706" lon="3.51967">
        <ele>586.06</ele>
        <time>2016-10-30T07:36:48Z</time>
      </trkpt>
      <trkpt lat="45.07736" lon="3.51962">
        <ele>584.62</ele>
        <time>2016-10-30T07:37:08Z</time>
      </trkpt>
      <trkpt lat="45.07764" lon="3.51959">
        <ele>584.14</ele>
        <time>2016-10-30T07:37:26Z</time>
      </trkpt>
      <trkpt lat="45.07791" lon="3.51955">
        <ele>582.22</ele>
        <time>2016-10-30T07:37:44Z</time>
      </trkpt>
      <trkpt lat="45.07826" lon="3.51944">
        <ele>579.33</ele>
        <time>2016-10-30T07:38:06Z</time>
      </trkpt>
      <trkpt lat="45.07835" lon="3.51914">
        <ele>579.33</ele>
        <time>2016-10-30T07:38:22Z</time>
      </trkpt>
      <trkpt lat="45.07833" lon="3.51884">
        <ele>578.85</ele>
        <time>2016-10-30T07:38:38Z</time>
      </trkpt>
      <trkpt lat="45.07832" lon="3.51884">
        <ele>579.33</ele>
        <time>2016-10-30T07:38:43Z</time>
      </trkpt>
      <trkpt lat="45.07845" lon="3.51872">
        <ele>579.81</ele>
        <time>2016-10-30T07:38:55Z</time>
      </trkpt>
      <trkpt lat="45.07872" lon="3.51852">
        <ele>579.81</ele>
        <time>2016-10-30T07:39:16Z</time>
      </trkpt>
      <trkpt lat="45.07888" lon="3.51843">
        <ele>577.89</ele>
        <time>2016-10-30T07:39:28Z</time>
      </trkpt>
      <trkpt lat="45.07907" lon="3.51817">
        <ele>577.41</ele>
        <time>2016-10-30T07:39:48Z</time>
      </trkpt>
      <trkpt lat="45.07929" lon="3.51791">
        <ele>577.41</ele>
        <time>2016-10-30T07:40:04Z</time>
      </trkpt>
      <trkpt lat="45.07958" lon="3.51777">
        <ele>574.04</ele>
        <time>2016-10-30T07:40:24Z</time>
      </trkpt>
      <trkpt lat="45.07976" lon="3.51765">
        <ele>572.12</ele>
        <time>2016-10-30T07:40:38Z</time>
      </trkpt>
      <trkpt lat="45.08004" lon="3.51742">
        <ele>572.6</ele>
        <time>2016-10-30T07:40:58Z</time>
      </trkpt>
      <trkpt lat="45.08024" lon="3.51719">
        <ele>572.6</ele>
        <time>2016-10-30T07:41:15Z</time>
      </trkpt>
      <trkpt lat="45.08046" lon="3.51689">
        <ele>571.64</ele>
        <time>2016-10-30T07:41:35Z</time>
      </trkpt>
      <trkpt lat="45.08068" lon="3.51667">
        <ele>572.12</ele>
        <time>2016-10-30T07:41:52Z</time>
      </trkpt>
      <trkpt lat="45.08087" lon="3.51643">
        <ele>571.16</ele>
        <time>2016-10-30T07:42:09Z</time>
      </trkpt>
      <trkpt lat="45.08097" lon="3.5161">
        <ele>571.64</ele>
        <time>2016-10-30T07:42:27Z</time>
      </trkpt>
      <trkpt lat="45.08095" lon="3.51568">
        <ele>571.64</ele>
        <time>2016-10-30T07:42:47Z</time>
      </trkpt>
      <trkpt lat="45.08088" lon="3.51525">
        <ele>570.2</ele>
        <time>2016-10-30T07:43:08Z</time>
      </trkpt>
      <trkpt lat="45.0807" lon="3.51492">
        <ele>570.68</ele>
        <time>2016-10-30T07:43:28Z</time>
      </trkpt>
      <trkpt lat="45.08062" lon="3.51462">
        <ele>570.2</ele>
        <time>2016-10-30T07:43:44Z</time>
      </trkpt>
      <trkpt lat="45.08054" lon="3.51425">
        <ele>568.28</ele>
        <time>2016-10-30T07:44:02Z</time>
      </trkpt>
      <trkpt lat="45.08044" lon="3.51383">
        <ele>565.39</ele>
        <time>2016-10-30T07:44:22Z</time>
      </trkpt>
      <trkpt lat="45.08032" lon="3.51345">
        <ele>563.95</ele>
        <time>2016-10-30T07:44:41Z</time>
      </trkpt>
      <trkpt lat="45.08023" lon="3.51312">
        <ele>561.07</ele>
        <time>2016-10-30T07:44:58Z</time>
      </trkpt>
      <trkpt lat="45.08021" lon="3.51279">
        <ele>559.14</ele>
        <time>2016-10-30T07:45:15Z</time>
      </trkpt>
      <trkpt lat="45.08015" lon="3.51241">
        <ele>556.26</ele>
        <time>2016-10-30T07:45:33Z</time>
      </trkpt>
      <trkpt lat="45.08013" lon="3.51196">
        <ele>556.26</ele>
        <time>2016-10-30T07:45:53Z</time>
      </trkpt>
      <trkpt lat="45.08014" lon="3.51149">
        <ele>553.86</ele>
        <time>2016-10-30T07:46:15Z</time>
      </trkpt>
      <trkpt lat="45.08015" lon="3.51108">
        <ele>552.9</ele>
        <time>2016-10-30T07:46:34Z</time>
      </trkpt>
      <trkpt lat="45.08014" lon="3.51067">
        <ele>551.93</ele>
        <time>2016-10-30T07:46:54Z</time>
      </trkpt>
      <trkpt lat="45.08006" lon="3.51027">
        <ele>551.45</ele>
        <time>2016-10-30T07:47:14Z</time>
      </trkpt>
      <trkpt lat="45.08001" lon="3.50988">
        <ele>549.53</ele>
        <time>2016-10-30T07:47:35Z</time>
      </trkpt>
      <trkpt lat="45.07996" lon="3.50961">
        <ele>549.53</ele>
        <time>2016-10-30T07:47:50Z</time>
      </trkpt>
      <trkpt lat="45.07987" lon="3.50928">
        <ele>549.05</ele>
        <time>2016-10-30T07:48:08Z</time>
      </trkpt>
      <trkpt lat="45.07986" lon="3.50925">
        <ele>549.05</ele>
        <time>2016-10-30T07:48:10Z</time>
      </trkpt>
      <trkpt lat="45.07981" lon="3.50896">
        <ele>548.57</ele>
        <time>2016-10-30T07:48:25Z</time>
      </trkpt>
      <trkpt lat="45.07975" lon="3.50862">
        <ele>550.49</ele>
        <time>2016-10-30T07:48:41Z</time>
      </trkpt>
      <trkpt lat="45.07968" lon="3.50837">
        <ele>551.45</ele>
        <time>2016-10-30T07:48:54Z</time>
      </trkpt>
      <trkpt lat="45.07957" lon="3.50802">
        <ele>553.38</ele>
        <time>2016-10-30T07:49:12Z</time>
      </trkpt>
      <trkpt lat="45.07967" lon="3.50772">
        <ele>553.38</ele>
        <time>2016-10-30T07:49:29Z</time>
      </trkpt>
      <trkpt lat="45.0798" lon="3.50743">
        <ele>553.86</ele>
        <time>2016-10-30T07:49:46Z</time>
      </trkpt>
      <trkpt lat="45.07999" lon="3.50708">
        <ele>555.3</ele>
        <time>2016-10-30T07:50:06Z</time>
      </trkpt>
      <trkpt lat="45.08004" lon="3.50677">
        <ele>555.78</ele>
        <time>2016-10-30T07:50:23Z</time>
      </trkpt>
      <trkpt lat="45.07986" lon="3.50655">
        <ele>555.3</ele>
        <time>2016-10-30T07:50:39Z</time>
      </trkpt>
      <trkpt lat="45.07969" lon="3.50633">
        <ele>553.86</ele>
        <time>2016-10-30T07:50:54Z</time>
      </trkpt>
      <trkpt lat="45.0796" lon="3.50594">
        <ele>550.49</ele>
        <time>2016-10-30T07:51:13Z</time>
      </trkpt>
      <trkpt lat="45.07958" lon="3.50561">
        <ele>548.57</ele>
        <time>2016-10-30T07:51:29Z</time>
      </trkpt>
      <trkpt lat="45.07965" lon="3.50525">
        <ele>546.65</ele>
        <time>2016-10-30T07:51:47Z</time>
      </trkpt>
      <trkpt lat="45.07978" lon="3.50494">
        <ele>547.13</ele>
        <time>2016-10-30T07:52:06Z</time>
      </trkpt>
      <trkpt lat="45.07978" lon="3.50493">
        <ele>547.13</ele>
        <time>2016-10-30T07:52:07Z</time>
      </trkpt>
      <trkpt lat="45.07979" lon="3.50489">
        <ele>546.65</ele>
        <time>2016-10-30T07:52:10Z</time>
      </trkpt>
      <trkpt lat="45.07983" lon="3.50479">
        <ele>546.65</ele>
        <time>2016-10-30T07:52:15Z</time>
      </trkpt>
      <trkpt lat="45.07991" lon="3.50429">
        <ele>547.61</ele>
        <time>2016-10-30T07:52:38Z</time>
      </trkpt>
      <trkpt lat="45.07991" lon="3.50392">
        <ele>544.72</ele>
        <time>2016-10-30T07:52:56Z</time>
      </trkpt>
      <trkpt lat="45.07986" lon="3.50348">
        <ele>542.32</ele>
        <time>2016-10-30T07:53:16Z</time>
      </trkpt>
      <trkpt lat="45.0798" lon="3.50298">
        <ele>538.96</ele>
        <time>2016-10-30T07:53:39Z</time>
      </trkpt>
      <trkpt lat="45.07975" lon="3.50264">
        <ele>537.99</ele>
        <time>2016-10-30T07:53:56Z</time>
      </trkpt>
      <trkpt lat="45.07966" lon="3.50229">
        <ele>536.55</ele>
        <time>2016-10-30T07:54:14Z</time>
      </trkpt>
      <trkpt lat="45.07955" lon="3.50196">
        <ele>534.63</ele>
        <time>2016-10-30T07:54:31Z</time>
      </trkpt>
      <trkpt lat="45.07945" lon="3.50161">
        <ele>533.19</ele>
        <time>2016-10-30T07:54:49Z</time>
      </trkpt>
      <trkpt lat="45.07947" lon="3.5012">
        <ele>532.71</ele>
        <time>2016-10-30T07:55:08Z</time>
      </trkpt>
      <trkpt lat="45.07955" lon="3.5008">
        <ele>532.71</ele>
        <time>2016-10-30T07:55:28Z</time>
      </trkpt>
      <trkpt lat="45.07957" lon="3.5007">
        <ele>532.71</ele>
        <time>2016-10-30T07:55:33Z</time>
      </trkpt>
      <trkpt lat="45.07942" lon="3.5007">
        <ele>532.23</ele>
        <time>2016-10-30T07:55:45Z</time>
      </trkpt>
      <trkpt lat="45.07915" lon="3.50074">
        <ele>533.19</ele>
        <time>2016-10-30T07:56:04Z</time>
      </trkpt>
      <trkpt lat="45.07886" lon="3.50059">
        <ele>535.11</ele>
        <time>2016-10-30T07:56:24Z</time>
      </trkpt>
      <trkpt lat="45.0786" lon="3.50044">
        <ele>536.55</ele>
        <time>2016-10-30T07:56:43Z</time>
      </trkpt>
      <trkpt lat="45.07834" lon="3.50044">
        <ele>537.51</ele>
        <time>2016-10-30T07:57:01Z</time>
      </trkpt>
      <trkpt lat="45.07831" lon="3.50045">
        <ele>537.99</ele>
        <time>2016-10-30T07:57:03Z</time>
      </trkpt>
      <trkpt lat="45.07815" lon="3.50047">
        <ele>538.48</ele>
        <time>2016-10-30T07:57:13Z</time>
      </trkpt>
      <trkpt lat="45.07791" lon="3.5005">
        <ele>539.92</ele>
        <time>2016-10-30T07:57:29Z</time>
      </trkpt>
      <trkpt lat="45.07769" lon="3.50038">
        <ele>540.88</ele>
        <time>2016-10-30T07:57:45Z</time>
      </trkpt>
      <trkpt lat="45.07746" lon="3.5004">
        <ele>542.32</ele>
        <time>2016-10-30T07:58:02Z</time>
      </trkpt>
      <trkpt lat="45.07732" lon="3.50061">
        <ele>546.17</ele>
        <time>2016-10-30T07:58:17Z</time>
      </trkpt>
      <trkpt lat="45.07713" lon="3.50081">
        <ele>549.53</ele>
        <time>2016-10-30T07:58:35Z</time>
      </trkpt>
      <trkpt lat="45.07708" lon="3.50085">
        <ele>550.01</ele>
        <time>2016-10-30T07:58:40Z</time>
      </trkpt>
      <trkpt lat="45.07703" lon="3.50088">
        <ele>550.49</ele>
        <time>2016-10-30T07:58:44Z</time>
      </trkpt>
      <trkpt lat="45.07685" lon="3.5009">
        <ele>551.93</ele>
        <time>2016-10-30T07:59:00Z</time>
      </trkpt>
      <trkpt lat="45.07671" lon="3.50088">
        <ele>553.38</ele>
        <time>2016-10-30T07:59:10Z</time>
      </trkpt>
      <trkpt lat="45.07648" lon="3.50088">
        <ele>556.74</ele>
        <time>2016-10-30T07:59:27Z</time>
      </trkpt>
      <trkpt lat="45.07628" lon="3.50089">
        <ele>559.62</ele>
        <time>2016-10-30T07:59:42Z</time>
      </trkpt>
      <trkpt lat="45.07624" lon="3.50089">
        <ele>561.07</ele>
        <time>2016-10-30T07:59:47Z</time>
      </trkpt>
      <trkpt lat="45.07608" lon="3.50091">
        <ele>562.03</ele>
        <time>2016-10-30T08:00:00Z</time>
      </trkpt>
      <trkpt lat="45.0759" lon="3.50106">
        <ele>563.47</ele>
        <time>2016-10-30T08:00:16Z</time>
      </trkpt>
      <trkpt lat="45.0758" lon="3.50112">
        <ele>564.91</ele>
        <time>2016-10-30T08:00:24Z</time>
      </trkpt>
      <trkpt lat="45.07577" lon="3.50116">
        <ele>564.91</ele>
        <time>2016-10-30T08:00:27Z</time>
      </trkpt>
      <trkpt lat="45.07558" lon="3.50135">
        <ele>565.39</ele>
        <time>2016-10-30T08:00:45Z</time>
      </trkpt>
      <trkpt lat="45.07537" lon="3.50149">
        <ele>567.32</ele>
        <time>2016-10-30T08:01:02Z</time>
      </trkpt>
      <trkpt lat="45.07518" lon="3.50155">
        <ele>568.76</ele>
        <time>2016-10-30T08:01:17Z</time>
      </trkpt>
      <trkpt lat="45.07515" lon="3.50157">
        <ele>569.24</ele>
        <time>2016-10-30T08:01:20Z</time>
      </trkpt>
      <trkpt lat="45.07495" lon="3.50165">
        <ele>571.64</ele>
        <time>2016-10-30T08:01:35Z</time>
      </trkpt>
      <trkpt lat="45.07479" lon="3.50172">
        <ele>572.12</ele>
        <time>2016-10-30T08:01:48Z</time>
      </trkpt>
      <trkpt lat="45.07456" lon="3.50181">
        <ele>573.08</ele>
        <time>2016-10-30T08:02:05Z</time>
      </trkpt>
      <trkpt lat="45.07432" lon="3.50191">
        <ele>575.01</ele>
        <time>2016-10-30T08:02:23Z</time>
      </trkpt>
      <trkpt lat="45.07411" lon="3.50196">
        <ele>578.37</ele>
        <time>2016-10-30T08:02:39Z</time>
      </trkpt>
      <trkpt lat="45.07392" lon="3.50197">
        <ele>581.25</ele>
        <time>2016-10-30T08:02:54Z</time>
      </trkpt>
      <trkpt lat="45.0737" lon="3.50203">
        <ele>584.14</ele>
        <time>2016-10-30T08:03:11Z</time>
      </trkpt>
      <trkpt lat="45.07353" lon="3.50211">
        <ele>586.06</ele>
        <time>2016-10-30T08:03:26Z</time>
      </trkpt>
      <trkpt lat="45.07333" lon="3.50216">
        <ele>588.95</ele>
        <time>2016-10-30T08:03:42Z</time>
      </trkpt>
      <trkpt lat="45.07311" lon="3.5022">
        <ele>590.87</ele>
        <time>2016-10-30T08:03:59Z</time>
      </trkpt>
      <trkpt lat="45.07287" lon="3.50215">
        <ele>593.27</ele>
        <time>2016-10-30T08:04:19Z</time>
      </trkpt>
      <trkpt lat="45.07265" lon="3.50216">
        <ele>595.67</ele>
        <time>2016-10-30T08:04:36Z</time>
      </trkpt>
      <trkpt lat="45.07246" lon="3.50227">
        <ele>597.6</ele>
        <time>2016-10-30T08:04:51Z</time>
      </trkpt>
      <trkpt lat="45.07241" lon="3.50229">
        <ele>597.6</ele>
        <time>2016-10-30T08:05:00Z</time>
      </trkpt>
      <trkpt lat="45.07237" lon="3.50233">
        <ele>597.6</ele>
        <time>2016-10-30T08:05:05Z</time>
      </trkpt>
      <trkpt lat="45.07218" lon="3.50246">
        <ele>600.96</ele>
        <time>2016-10-30T08:05:23Z</time>
      </trkpt>
      <trkpt lat="45.07203" lon="3.50255">
        <ele>605.29</ele>
        <time>2016-10-30T08:05:38Z</time>
      </trkpt>
      <trkpt lat="45.07185" lon="3.5026">
        <ele>606.73</ele>
        <time>2016-10-30T08:05:53Z</time>
      </trkpt>
      <trkpt lat="45.07166" lon="3.50257">
        <ele>611.06</ele>
        <time>2016-10-30T08:06:08Z</time>
      </trkpt>
      <trkpt lat="45.07158" lon="3.5025">
        <ele>612.5</ele>
        <time>2016-10-30T08:06:16Z</time>
      </trkpt>
      <trkpt lat="45.07158" lon="3.50245">
        <ele>612.5</ele>
        <time>2016-10-30T08:06:19Z</time>
      </trkpt>
      <trkpt lat="45.07145" lon="3.50213">
        <ele>611.06</ele>
        <time>2016-10-30T08:06:36Z</time>
      </trkpt>
      <trkpt lat="45.07138" lon="3.50192">
        <ele>607.21</ele>
        <time>2016-10-30T08:06:46Z</time>
      </trkpt>
      <trkpt lat="45.07134" lon="3.50179">
        <ele>604.33</ele>
        <time>2016-10-30T08:06:53Z</time>
      </trkpt>
      <trkpt lat="45.07126" lon="3.50145">
        <ele>600.96</ele>
        <time>2016-10-30T08:07:10Z</time>
      </trkpt>
      <trkpt lat="45.07119" lon="3.50114">
        <ele>598.56</ele>
        <time>2016-10-30T08:07:26Z</time>
      </trkpt>
      <trkpt lat="45.07123" lon="3.50082">
        <ele>596.64</ele>
        <time>2016-10-30T08:07:44Z</time>
      </trkpt>
      <trkpt lat="45.07125" lon="3.50076">
        <ele>596.64</ele>
        <time>2016-10-30T08:07:47Z</time>
      </trkpt>
      <trkpt lat="45.07139" lon="3.5004">
        <ele>593.27</ele>
        <time>2016-10-30T08:08:08Z</time>
      </trkpt>
      <trkpt lat="45.0713" lon="3.5001">
        <ele>590.39</ele>
        <time>2016-10-30T08:08:24Z</time>
      </trkpt>
      <trkpt lat="45.07116" lon="3.4998">
        <ele>586.54</ele>
        <time>2016-10-30T08:08:41Z</time>
      </trkpt>
      <trkpt lat="45.07093" lon="3.49972">
        <ele>584.62</ele>
        <time>2016-10-30T08:08:57Z</time>
      </trkpt>
      <trkpt lat="45.07067" lon="3.49971">
        <ele>582.22</ele>
        <time>2016-10-30T08:09:15Z</time>
      </trkpt>
      <trkpt lat="45.07044" lon="3.49966">
        <ele>579.81</ele>
        <time>2016-10-30T08:09:31Z</time>
      </trkpt>
      <trkpt lat="45.07027" lon="3.49946">
        <ele>578.85</ele>
        <time>2016-10-30T08:09:47Z</time>
      </trkpt>
      <trkpt lat="45.07023" lon="3.4992">
        <ele>578.85</ele>
        <time>2016-10-30T08:10:01Z</time>
      </trkpt>
      <trkpt lat="45.0702" lon="3.49892">
        <ele>581.25</ele>
        <time>2016-10-30T08:10:14Z</time>
      </trkpt>
      <trkpt lat="45.0702" lon="3.49888">
        <ele>581.73</ele>
        <time>2016-10-30T08:10:16Z</time>
      </trkpt>
      <trkpt lat="45.07016" lon="3.49869">
        <ele>583.18</ele>
        <time>2016-10-30T08:10:30Z</time>
      </trkpt>
      <trkpt lat="45.07008" lon="3.49837">
        <ele>584.62</ele>
        <time>2016-10-30T08:10:48Z</time>
      </trkpt>
      <trkpt lat="45.06995" lon="3.49798">
        <ele>585.58</ele>
        <time>2016-10-30T08:11:09Z</time>
      </trkpt>
      <trkpt lat="45.06982" lon="3.49757">
        <ele>585.58</ele>
        <time>2016-10-30T08:11:31Z</time>
      </trkpt>
      <trkpt lat="45.06971" lon="3.49723">
        <ele>584.62</ele>
        <time>2016-10-30T08:11:50Z</time>
      </trkpt>
      <trkpt lat="45.06969" lon="3.49684">
        <ele>583.66</ele>
        <time>2016-10-30T08:12:09Z</time>
      </trkpt>
      <trkpt lat="45.0696" lon="3.49653">
        <ele>581.73</ele>
        <time>2016-10-30T08:12:27Z</time>
      </trkpt>
      <trkpt lat="45.06935" lon="3.49652">
        <ele>582.7</ele>
        <time>2016-10-30T08:12:44Z</time>
      </trkpt>
      <trkpt lat="45.06912" lon="3.49662">
        <ele>582.7</ele>
        <time>2016-10-30T08:13:01Z</time>
      </trkpt>
      <trkpt lat="45.06898" lon="3.49673">
        <ele>583.66</ele>
        <time>2016-10-30T08:13:16Z</time>
      </trkpt>
      <trkpt lat="45.06895" lon="3.49679">
        <ele>583.66</ele>
        <time>2016-10-30T08:13:23Z</time>
      </trkpt>
      <trkpt lat="45.0689" lon="3.49693">
        <ele>584.62</ele>
        <time>2016-10-30T08:13:34Z</time>
      </trkpt>
      <trkpt lat="45.06881" lon="3.49715">
        <ele>587.02</ele>
        <time>2016-10-30T08:13:49Z</time>
      </trkpt>
      <trkpt lat="45.06863" lon="3.4974">
        <ele>589.43</ele>
        <time>2016-10-30T08:14:07Z</time>
      </trkpt>
      <trkpt lat="45.0685" lon="3.49758">
        <ele>591.35</ele>
        <time>2016-10-30T08:14:23Z</time>
      </trkpt>
      <trkpt lat="45.06833" lon="3.49774">
        <ele>593.75</ele>
        <time>2016-10-30T08:14:41Z</time>
      </trkpt>
      <trkpt lat="45.06813" lon="3.49789">
        <ele>596.64</ele>
        <time>2016-10-30T08:14:58Z</time>
      </trkpt>
      <trkpt lat="45.06792" lon="3.49799">
        <ele>599.52</ele>
        <time>2016-10-30T08:15:14Z</time>
      </trkpt>
      <trkpt lat="45.06764" lon="3.49804">
        <ele>602.4</ele>
        <time>2016-10-30T08:15:34Z</time>
      </trkpt>
      <trkpt lat="45.06735" lon="3.49803">
        <ele>603.85</ele>
        <time>2016-10-30T08:15:55Z</time>
      </trkpt>
      <trkpt lat="45.06706" lon="3.49797">
        <ele>604.81</ele>
        <time>2016-10-30T08:16:15Z</time>
      </trkpt>
      <trkpt lat="45.06669" lon="3.49799">
        <ele>606.25</ele>
        <time>2016-10-30T08:16:40Z</time>
      </trkpt>
      <trkpt lat="45.06638" lon="3.49805">
        <ele>608.17</ele>
        <time>2016-10-30T08:17:00Z</time>
      </trkpt>
      <trkpt lat="45.06613" lon="3.4982">
        <ele>609.13</ele>
        <time>2016-10-30T08:17:18Z</time>
      </trkpt>
      <trkpt lat="45.06588" lon="3.49831">
        <ele>611.54</ele>
        <time>2016-10-30T08:17:35Z</time>
      </trkpt>
      <trkpt lat="45.06559" lon="3.49831">
        <ele>615.86</ele>
        <time>2016-10-30T08:17:55Z</time>
      </trkpt>
      <trkpt lat="45.06529" lon="3.49826">
        <ele>617.78</ele>
        <time>2016-10-30T08:18:15Z</time>
      </trkpt>
      <trkpt lat="45.06528" lon="3.49826">
        <ele>617.3</ele>
        <time>2016-10-30T08:18:16Z</time>
      </trkpt>
      <trkpt lat="45.06502" lon="3.49827">
        <ele>617.78</ele>
        <time>2016-10-30T08:18:33Z</time>
      </trkpt>
      <trkpt lat="45.06474" lon="3.49843">
        <ele>618.26</ele>
        <time>2016-10-30T08:18:52Z</time>
      </trkpt>
      <trkpt lat="45.06448" lon="3.49845">
        <ele>621.63</ele>
        <time>2016-10-30T08:19:10Z</time>
      </trkpt>
      <trkpt lat="45.0644" lon="3.49844">
        <ele>622.11</ele>
        <time>2016-10-30T08:19:15Z</time>
      </trkpt>
      <trkpt lat="45.06428" lon="3.49843">
        <ele>623.55</ele>
        <time>2016-10-30T08:19:22Z</time>
      </trkpt>
      <trkpt lat="45.0641" lon="3.49839">
        <ele>625.47</ele>
        <time>2016-10-30T08:19:34Z</time>
      </trkpt>
      <trkpt lat="45.06396" lon="3.49835">
        <ele>624.03</ele>
        <time>2016-10-30T08:19:45Z</time>
      </trkpt>
      <trkpt lat="45.06394" lon="3.49835">
        <ele>624.03</ele>
        <time>2016-10-30T08:19:46Z</time>
      </trkpt>
      <trkpt lat="45.06387" lon="3.49835">
        <ele>623.55</ele>
        <time>2016-10-30T08:19:52Z</time>
      </trkpt>
      <trkpt lat="45.06368" lon="3.49828">
        <ele>624.99</ele>
        <time>2016-10-30T08:20:07Z</time>
      </trkpt>
      <trkpt lat="45.06363" lon="3.49826">
        <ele>627.88</ele>
        <time>2016-10-30T08:20:11Z</time>
      </trkpt>
      <trkpt lat="45.06349" lon="3.49822">
        <ele>633.17</ele>
        <time>2016-10-30T08:20:23Z</time>
      </trkpt>
      <trkpt lat="45.06328" lon="3.49816">
        <ele>633.65</ele>
        <time>2016-10-30T08:20:38Z</time>
      </trkpt>
      <trkpt lat="45.06303" lon="3.49811">
        <ele>637.49</ele>
        <time>2016-10-30T08:20:55Z</time>
      </trkpt>
      <trkpt lat="45.0628" lon="3.49802">
        <ele>641.34</ele>
        <time>2016-10-30T08:21:10Z</time>
      </trkpt>
      <trkpt lat="45.0626" lon="3.49799">
        <ele>643.26</ele>
        <time>2016-10-30T08:21:24Z</time>
      </trkpt>
      <trkpt lat="45.06236" lon="3.49799">
        <ele>642.78</ele>
        <time>2016-10-30T08:21:40Z</time>
      </trkpt>
      <trkpt lat="45.0621" lon="3.49801">
        <ele>646.62</ele>
        <time>2016-10-30T08:21:58Z</time>
      </trkpt>
      <trkpt lat="45.06188" lon="3.49802">
        <ele>649.03</ele>
        <time>2016-10-30T08:22:13Z</time>
      </trkpt>
      <trkpt lat="45.06167" lon="3.49802">
        <ele>648.55</ele>
        <time>2016-10-30T08:22:29Z</time>
      </trkpt>
      <trkpt lat="45.06144" lon="3.498">
        <ele>647.59</ele>
        <time>2016-10-30T08:22:46Z</time>
      </trkpt>
      <trkpt lat="45.06125" lon="3.4979">
        <ele>647.1</ele>
        <time>2016-10-30T08:23:02Z</time>
      </trkpt>
      <trkpt lat="45.06114" lon="3.49772">
        <ele>652.39</ele>
        <time>2016-10-30T08:23:15Z</time>
      </trkpt>
      <trkpt lat="45.06097" lon="3.49764">
        <ele>654.8</ele>
        <time>2016-10-30T08:23:27Z</time>
      </trkpt>
      <trkpt lat="45.06083" lon="3.49764">
        <ele>652.87</ele>
        <time>2016-10-30T08:23:38Z</time>
      </trkpt>
      <trkpt lat="45.06066" lon="3.49769">
        <ele>655.28</ele>
        <time>2016-10-30T08:23:52Z</time>
      </trkpt>
      <trkpt lat="45.06047" lon="3.49772">
        <ele>657.2</ele>
        <time>2016-10-30T08:24:06Z</time>
      </trkpt>
      <trkpt lat="45.06042" lon="3.49772">
        <ele>657.68</ele>
        <time>2016-10-30T08:24:09Z</time>
      </trkpt>
      <trkpt lat="45.06024" lon="3.49774">
        <ele>658.16</ele>
        <time>2016-10-30T08:24:24Z</time>
      </trkpt>
      <trkpt lat="45.06007" lon="3.49779">
        <ele>659.6</ele>
        <time>2016-10-30T08:24:37Z</time>
      </trkpt>
      <trkpt lat="45.06002" lon="3.49778">
        <ele>660.56</ele>
        <time>2016-10-30T08:24:42Z</time>
      </trkpt>
      <trkpt lat="45.05993" lon="3.49779">
        <ele>662.01</ele>
        <time>2016-10-30T08:24:47Z</time>
      </trkpt>
      <trkpt lat="45.05975" lon="3.49783">
        <ele>666.33</ele>
        <time>2016-10-30T08:25:00Z</time>
      </trkpt>
      <trkpt lat="45.05968" lon="3.49785">
        <ele>668.25</ele>
        <time>2016-10-30T08:25:04Z</time>
      </trkpt>
      <trkpt lat="45.05947" lon="3.49799">
        <ele>672.58</ele>
        <time>2016-10-30T08:25:21Z</time>
      </trkpt>
      <trkpt lat="45.05931" lon="3.49812">
        <ele>676.91</ele>
        <time>2016-10-30T08:25:35Z</time>
      </trkpt>
      <trkpt lat="45.0591" lon="3.4983">
        <ele>681.23</ele>
        <time>2016-10-30T08:25:53Z</time>
      </trkpt>
      <trkpt lat="45.05895" lon="3.49846">
        <ele>684.12</ele>
        <time>2016-10-30T08:26:07Z</time>
      </trkpt>
      <trkpt lat="45.05882" lon="3.49863">
        <ele>685.56</ele>
        <time>2016-10-30T08:26:21Z</time>
      </trkpt>
      <trkpt lat="45.0587" lon="3.49878">
        <ele>685.08</ele>
        <time>2016-10-30T08:26:33Z</time>
      </trkpt>
      <trkpt lat="45.05865" lon="3.49886">
        <ele>684.12</ele>
        <time>2016-10-30T08:26:39Z</time>
      </trkpt>
      <trkpt lat="45.05849" lon="3.49903">
        <ele>685.08</ele>
        <time>2016-10-30T08:26:54Z</time>
      </trkpt>
      <trkpt lat="45.05826" lon="3.49918">
        <ele>687</ele>
        <time>2016-10-30T08:27:13Z</time>
      </trkpt>
      <trkpt lat="45.05804" lon="3.49928">
        <ele>688.44</ele>
        <time>2016-10-30T08:27:29Z</time>
      </trkpt>
      <trkpt lat="45.05781" lon="3.4994">
        <ele>687.48</ele>
        <time>2016-10-30T08:27:45Z</time>
      </trkpt>
      <trkpt lat="45.05757" lon="3.49959">
        <ele>685.08</ele>
        <time>2016-10-30T08:28:05Z</time>
      </trkpt>
      <trkpt lat="45.05738" lon="3.49971">
        <ele>685.08</ele>
        <time>2016-10-30T08:28:20Z</time>
      </trkpt>
      <trkpt lat="45.05714" lon="3.49977">
        <ele>686.04</ele>
        <time>2016-10-30T08:28:37Z</time>
      </trkpt>
      <trkpt lat="45.05691" lon="3.49982">
        <ele>684.12</ele>
        <time>2016-10-30T08:28:53Z</time>
      </trkpt>
      <trkpt lat="45.05684" lon="3.49967">
        <ele>685.08</ele>
        <time>2016-10-30T08:29:05Z</time>
      </trkpt>
      <trkpt lat="45.05681" lon="3.49951">
        <ele>686.52</ele>
        <time>2016-10-30T08:29:16Z</time>
      </trkpt>
      <trkpt lat="45.05681" lon="3.49948">
        <ele>687</ele>
        <time>2016-10-30T08:29:18Z</time>
      </trkpt>
      <trkpt lat="45.05674" lon="3.49924">
        <ele>691.33</ele>
        <time>2016-10-30T08:29:32Z</time>
      </trkpt>
      <trkpt lat="45.05672" lon="3.49896">
        <ele>696.13</ele>
        <time>2016-10-30T08:29:44Z</time>
      </trkpt>
      <trkpt lat="45.05659" lon="3.49869">
        <ele>697.57</ele>
        <time>2016-10-30T08:29:59Z</time>
      </trkpt>
      <trkpt lat="45.05643" lon="3.49834">
        <ele>695.17</ele>
        <time>2016-10-30T08:30:16Z</time>
      </trkpt>
      <trkpt lat="45.05628" lon="3.49804">
        <ele>688.92</ele>
        <time>2016-10-30T08:30:34Z</time>
      </trkpt>
      <trkpt lat="45.05612" lon="3.49795">
        <ele>687.48</ele>
        <time>2016-10-30T08:30:49Z</time>
      </trkpt>
      <trkpt lat="45.05595" lon="3.49783">
        <ele>687.96</ele>
        <time>2016-10-30T08:31:04Z</time>
      </trkpt>
      <trkpt lat="45.05573" lon="3.49775">
        <ele>689.4</ele>
        <time>2016-10-30T08:31:21Z</time>
      </trkpt>
      <trkpt lat="45.05549" lon="3.49783">
        <ele>691.33</ele>
        <time>2016-10-30T08:31:39Z</time>
      </trkpt>
      <trkpt lat="45.05531" lon="3.49809">
        <ele>691.81</ele>
        <time>2016-10-30T08:31:58Z</time>
      </trkpt>
      <trkpt lat="45.0553" lon="3.49833">
        <ele>692.77</ele>
        <time>2016-10-30T08:32:11Z</time>
      </trkpt>
      <trkpt lat="45.05531" lon="3.4985">
        <ele>695.17</ele>
        <time>2016-10-30T08:32:20Z</time>
      </trkpt>
      <trkpt lat="45.05534" lon="3.49873">
        <ele>694.69</ele>
        <time>2016-10-30T08:32:34Z</time>
      </trkpt>
      <trkpt lat="45.05534" lon="3.49876">
        <ele>694.69</ele>
        <time>2016-10-30T08:32:44Z</time>
      </trkpt>
      <trkpt lat="45.05534" lon="3.49878">
        <ele>695.65</ele>
        <time>2016-10-30T08:32:57Z</time>
      </trkpt>
      <trkpt lat="45.05535" lon="3.49878">
        <ele>696.61</ele>
        <time>2016-10-30T08:33:10Z</time>
      </trkpt>
      <trkpt lat="45.05535" lon="3.49878">
        <ele>697.09</ele>
        <time>2016-10-30T08:33:24Z</time>
      </trkpt>
      <trkpt lat="45.05535" lon="3.49879">
        <ele>697.57</ele>
        <time>2016-10-30T08:33:37Z</time>
      </trkpt>
      <trkpt lat="45.05539" lon="3.4988">
        <ele>698.05</ele>
        <time>2016-10-30T08:33:50Z</time>
      </trkpt>
      <trkpt lat="45.05541" lon="3.49879">
        <ele>697.57</ele>
        <time>2016-10-30T08:34:02Z</time>
      </trkpt>
      <trkpt lat="45.05541" lon="3.49879">
        <ele>697.09</ele>
        <time>2016-10-30T08:34:18Z</time>
      </trkpt>
      <trkpt lat="45.05541" lon="3.49879">
        <ele>697.09</ele>
        <time>2016-10-30T08:34:31Z</time>
      </trkpt>
      <trkpt lat="45.05541" lon="3.4988">
        <ele>696.61</ele>
        <time>2016-10-30T08:34:47Z</time>
      </trkpt>
      <trkpt lat="45.05535" lon="3.4988">
        <ele>696.13</ele>
        <time>2016-10-30T08:35:00Z</time>
      </trkpt>
      <trkpt lat="45.05536" lon="3.4988">
        <ele>696.13</ele>
        <time>2016-10-30T08:35:14Z</time>
      </trkpt>
      <trkpt lat="45.05536" lon="3.49881">
        <ele>696.13</ele>
        <time>2016-10-30T08:35:27Z</time>
      </trkpt>
      <trkpt lat="45.05536" lon="3.49879">
        <ele>695.65</ele>
        <time>2016-10-30T08:35:43Z</time>
      </trkpt>
      <trkpt lat="45.05538" lon="3.4988">
        <ele>695.17</ele>
        <time>2016-10-30T08:35:56Z</time>
      </trkpt>
      <trkpt lat="45.05539" lon="3.4988">
        <ele>694.69</ele>
        <time>2016-10-30T08:36:15Z</time>
      </trkpt>
      <trkpt lat="45.0554" lon="3.49881">
        <ele>694.69</ele>
        <time>2016-10-30T08:36:31Z</time>
      </trkpt>
      <trkpt lat="45.0554" lon="3.4988">
        <ele>694.69</ele>
        <time>2016-10-30T08:36:50Z</time>
      </trkpt>
      <trkpt lat="45.05538" lon="3.49881">
        <ele>694.21</ele>
        <time>2016-10-30T08:37:11Z</time>
      </trkpt>
      <trkpt lat="45.05537" lon="3.49882">
        <ele>693.73</ele>
        <time>2016-10-30T08:37:27Z</time>
      </trkpt>
      <trkpt lat="45.05537" lon="3.49882">
        <ele>694.21</ele>
        <time>2016-10-30T08:37:47Z</time>
      </trkpt>
      <trkpt lat="45.05536" lon="3.49883">
        <ele>694.21</ele>
        <time>2016-10-30T08:38:07Z</time>
      </trkpt>
      <trkpt lat="45.05536" lon="3.49883">
        <ele>694.21</ele>
        <time>2016-10-30T08:38:29Z</time>
      </trkpt>
      <trkpt lat="45.05536" lon="3.49883">
        <ele>693.73</ele>
        <time>2016-10-30T08:38:50Z</time>
      </trkpt>
      <trkpt lat="45.05536" lon="3.49883">
        <ele>693.25</ele>
        <time>2016-10-30T08:39:11Z</time>
      </trkpt>
      <trkpt lat="45.05535" lon="3.49881">
        <ele>694.21</ele>
        <time>2016-10-30T08:39:24Z</time>
      </trkpt>
      <trkpt lat="45.05537" lon="3.4988">
        <ele>693.73</ele>
        <time>2016-10-30T08:39:35Z</time>
      </trkpt>
      <trkpt lat="45.0554" lon="3.49879">
        <ele>694.21</ele>
        <time>2016-10-30T08:39:50Z</time>
      </trkpt>
      <trkpt lat="45.0554" lon="3.4988">
        <ele>694.69</ele>
        <time>2016-10-30T08:40:07Z</time>
      </trkpt>
      <trkpt lat="45.0554" lon="3.4988">
        <ele>695.17</ele>
        <time>2016-10-30T08:40:25Z</time>
      </trkpt>
      <trkpt lat="45.05538" lon="3.49881">
        <ele>695.17</ele>
        <time>2016-10-30T08:40:40Z</time>
      </trkpt>
      <trkpt lat="45.05535" lon="3.49881">
        <ele>696.13</ele>
        <time>2016-10-30T08:40:56Z</time>
      </trkpt>
      <trkpt lat="45.05534" lon="3.49879">
        <ele>696.61</ele>
        <time>2016-10-30T08:41:10Z</time>
      </trkpt>
      <trkpt lat="45.05533" lon="3.49873">
        <ele>694.69</ele>
        <time>2016-10-30T08:41:21Z</time>
      </trkpt>
      <trkpt lat="45.05534" lon="3.49877">
        <ele>694.69</ele>
        <time>2016-10-30T08:41:43Z</time>
      </trkpt>
      <trkpt lat="45.05534" lon="3.49876">
        <ele>696.13</ele>
        <time>2016-10-30T08:41:52Z</time>
      </trkpt>
      <trkpt lat="45.05534" lon="3.49877">
        <ele>696.13</ele>
        <time>2016-10-30T08:42:07Z</time>
      </trkpt>
      <trkpt lat="45.05534" lon="3.49878">
        <ele>696.61</ele>
        <time>2016-10-30T08:42:12Z</time>
      </trkpt>
      <trkpt lat="45.05531" lon="3.49906">
        <ele>699.02</ele>
        <time>2016-10-30T08:42:27Z</time>
      </trkpt>
      <trkpt lat="45.05529" lon="3.49917">
        <ele>699.98</ele>
        <time>2016-10-30T08:42:34Z</time>
      </trkpt>
      <trkpt lat="45.05526" lon="3.49925">
        <ele>700.46</ele>
        <time>2016-10-30T08:42:39Z</time>
      </trkpt>
      <trkpt lat="45.0552" lon="3.4995">
        <ele>701.42</ele>
        <time>2016-10-30T08:42:55Z</time>
      </trkpt>
      <trkpt lat="45.05509" lon="3.49972">
        <ele>703.34</ele>
        <time>2016-10-30T08:43:09Z</time>
      </trkpt>
      <trkpt lat="45.05499" lon="3.49999">
        <ele>704.78</ele>
        <time>2016-10-30T08:43:25Z</time>
      </trkpt>
      <trkpt lat="45.05499" lon="3.50004">
        <ele>705.26</ele>
        <time>2016-10-30T08:43:28Z</time>
      </trkpt>
      <trkpt lat="45.0548" lon="3.50017">
        <ele>706.23</ele>
        <time>2016-10-30T08:43:45Z</time>
      </trkpt>
      <trkpt lat="45.05456" lon="3.50018">
        <ele>706.23</ele>
        <time>2016-10-30T08:44:03Z</time>
      </trkpt>
      <trkpt lat="45.05439" lon="3.50018">
        <ele>706.71</ele>
        <time>2016-10-30T08:44:15Z</time>
      </trkpt>
      <trkpt lat="45.0542" lon="3.49997">
        <ele>708.15</ele>
        <time>2016-10-30T08:44:32Z</time>
      </trkpt>
      <trkpt lat="45.05412" lon="3.49987">
        <ele>709.11</ele>
        <time>2016-10-30T08:44:40Z</time>
      </trkpt>
      <trkpt lat="45.05396" lon="3.49969">
        <ele>712.47</ele>
        <time>2016-10-30T08:44:56Z</time>
      </trkpt>
      <trkpt lat="45.05395" lon="3.49968">
        <ele>712.47</ele>
        <time>2016-10-30T08:44:57Z</time>
      </trkpt>
      <trkpt lat="45.05378" lon="3.49955">
        <ele>715.84</ele>
        <time>2016-10-30T08:45:13Z</time>
      </trkpt>
      <trkpt lat="45.05354" lon="3.49944">
        <ele>717.28</ele>
        <time>2016-10-30T08:45:33Z</time>
      </trkpt>
      <trkpt lat="45.05334" lon="3.49943">
        <ele>716.8</ele>
        <time>2016-10-30T08:45:48Z</time>
      </trkpt>
      <trkpt lat="45.05314" lon="3.49946">
        <ele>714.88</ele>
        <time>2016-10-30T08:46:04Z</time>
      </trkpt>
      <trkpt lat="45.05313" lon="3.49947">
        <ele>714.88</ele>
        <time>2016-10-30T08:46:06Z</time>
      </trkpt>
      <trkpt lat="45.05285" lon="3.49949">
        <ele>715.36</ele>
        <time>2016-10-30T08:46:25Z</time>
      </trkpt>
      <trkpt lat="45.05259" lon="3.49944">
        <ele>717.76</ele>
        <time>2016-10-30T08:46:44Z</time>
      </trkpt>
      <trkpt lat="45.05245" lon="3.49932">
        <ele>717.76</ele>
        <time>2016-10-30T08:46:58Z</time>
      </trkpt>
      <trkpt lat="45.05236" lon="3.4992">
        <ele>717.76</ele>
        <time>2016-10-30T08:47:13Z</time>
      </trkpt>
      <trkpt lat="45.05231" lon="3.49917">
        <ele>719.68</ele>
        <time>2016-10-30T08:47:19Z</time>
      </trkpt>
      <trkpt lat="45.05225" lon="3.49912">
        <ele>721.61</ele>
        <time>2016-10-30T08:47:23Z</time>
      </trkpt>
      <trkpt lat="45.05207" lon="3.49905">
        <ele>728.34</ele>
        <time>2016-10-30T08:47:38Z</time>
      </trkpt>
      <trkpt lat="45.05191" lon="3.49904">
        <ele>734.58</ele>
        <time>2016-10-30T08:47:50Z</time>
      </trkpt>
      <trkpt lat="45.05175" lon="3.49912">
        <ele>736.03</ele>
        <time>2016-10-30T08:48:04Z</time>
      </trkpt>
      <trkpt lat="45.05168" lon="3.49919">
        <ele>736.51</ele>
        <time>2016-10-30T08:48:14Z</time>
      </trkpt>
      <trkpt lat="45.05155" lon="3.49926">
        <ele>736.51</ele>
        <time>2016-10-30T08:48:25Z</time>
      </trkpt>
      <trkpt lat="45.05142" lon="3.49934">
        <ele>736.03</ele>
        <time>2016-10-30T08:48:37Z</time>
      </trkpt>
      <trkpt lat="45.05131" lon="3.49946">
        <ele>733.62</ele>
        <time>2016-10-30T08:48:51Z</time>
      </trkpt>
      <trkpt lat="45.05117" lon="3.49954">
        <ele>732.18</ele>
        <time>2016-10-30T08:49:04Z</time>
      </trkpt>
      <trkpt lat="45.05096" lon="3.49955">
        <ele>732.66</ele>
        <time>2016-10-30T08:49:15Z</time>
      </trkpt>
      <trkpt lat="45.05091" lon="3.49957">
        <ele>732.18</ele>
        <time>2016-10-30T08:49:17Z</time>
      </trkpt>
      <trkpt lat="45.05058" lon="3.49964">
        <ele>736.03</ele>
        <time>2016-10-30T08:49:34Z</time>
      </trkpt>
      <trkpt lat="45.05036" lon="3.49973">
        <ele>740.83</ele>
        <time>2016-10-30T08:49:49Z</time>
      </trkpt>
      <trkpt lat="45.05011" lon="3.49969">
        <ele>746.12</ele>
        <time>2016-10-30T08:50:05Z</time>
      </trkpt>
      <trkpt lat="45.04989" lon="3.4996">
        <ele>751.89</ele>
        <time>2016-10-30T08:50:21Z</time>
      </trkpt>
      <trkpt lat="45.04972" lon="3.49955">
        <ele>754.29</ele>
        <time>2016-10-30T08:50:35Z</time>
      </trkpt>
      <trkpt lat="45.0495" lon="3.49945">
        <ele>757.66</ele>
        <time>2016-10-30T08:50:52Z</time>
      </trkpt>
      <trkpt lat="45.04932" lon="3.4994">
        <ele>759.58</ele>
        <time>2016-10-30T08:51:06Z</time>
      </trkpt>
      <trkpt lat="45.04915" lon="3.49939">
        <ele>760.06</ele>
        <time>2016-10-30T08:51:20Z</time>
      </trkpt>
      <trkpt lat="45.04896" lon="3.4994">
        <ele>761.98</ele>
        <time>2016-10-30T08:51:35Z</time>
      </trkpt>
      <trkpt lat="45.04876" lon="3.49942">
        <ele>764.87</ele>
        <time>2016-10-30T08:51:50Z</time>
      </trkpt>
      <trkpt lat="45.04856" lon="3.49947">
        <ele>769.67</ele>
        <time>2016-10-30T08:52:07Z</time>
      </trkpt>
      <trkpt lat="45.04836" lon="3.49956">
        <ele>774</ele>
        <time>2016-10-30T08:52:25Z</time>
      </trkpt>
      <trkpt lat="45.04835" lon="3.49957">
        <ele>774.48</ele>
        <time>2016-10-30T08:52:26Z</time>
      </trkpt>
      <trkpt lat="45.04832" lon="3.49958">
        <ele>774.48</ele>
        <time>2016-10-30T08:52:28Z</time>
      </trkpt>
      <trkpt lat="45.04824" lon="3.4996">
        <ele>775.92</ele>
        <time>2016-10-30T08:52:35Z</time>
      </trkpt>
      <trkpt lat="45.04804" lon="3.4996">
        <ele>779.29</ele>
        <time>2016-10-30T08:52:51Z</time>
      </trkpt>
      <trkpt lat="45.04787" lon="3.49957">
        <ele>783.13</ele>
        <time>2016-10-30T08:53:05Z</time>
      </trkpt>
      <trkpt lat="45.04768" lon="3.49954">
        <ele>786.02</ele>
        <time>2016-10-30T08:53:20Z</time>
      </trkpt>
      <trkpt lat="45.04753" lon="3.49945">
        <ele>788.42</ele>
        <time>2016-10-30T08:53:33Z</time>
      </trkpt>
      <trkpt lat="45.04737" lon="3.49929">
        <ele>789.38</ele>
        <time>2016-10-30T08:53:48Z</time>
      </trkpt>
      <trkpt lat="45.0473" lon="3.49913">
        <ele>792.26</ele>
        <time>2016-10-30T08:53:58Z</time>
      </trkpt>
      <trkpt lat="45.0473" lon="3.49884">
        <ele>794.67</ele>
        <time>2016-10-30T08:54:14Z</time>
      </trkpt>
      <trkpt lat="45.04731" lon="3.49858">
        <ele>796.59</ele>
        <time>2016-10-30T08:54:29Z</time>
      </trkpt>
      <trkpt lat="45.04732" lon="3.49832">
        <ele>797.07</ele>
        <time>2016-10-30T08:54:44Z</time>
      </trkpt>
      <trkpt lat="45.04733" lon="3.49807">
        <ele>796.59</ele>
        <time>2016-10-30T08:54:58Z</time>
      </trkpt>
      <trkpt lat="45.04734" lon="3.49789">
        <ele>798.51</ele>
        <time>2016-10-30T08:55:08Z</time>
      </trkpt>
      <trkpt lat="45.04737" lon="3.49767">
        <ele>799.47</ele>
        <time>2016-10-30T08:55:22Z</time>
      </trkpt>
      <trkpt lat="45.04746" lon="3.49734">
        <ele>800.44</ele>
        <time>2016-10-30T08:55:38Z</time>
      </trkpt>
      <trkpt lat="45.04756" lon="3.49708">
        <ele>800.92</ele>
        <time>2016-10-30T08:55:53Z</time>
      </trkpt>
      <trkpt lat="45.04768" lon="3.49672">
        <ele>801.88</ele>
        <time>2016-10-30T08:56:12Z</time>
      </trkpt>
      <trkpt lat="45.04769" lon="3.4967">
        <ele>801.88</ele>
        <time>2016-10-30T08:56:13Z</time>
      </trkpt>
      <trkpt lat="45.04769" lon="3.49656">
        <ele>800.92</ele>
        <time>2016-10-30T08:56:22Z</time>
      </trkpt>
      <trkpt lat="45.04756" lon="3.49629">
        <ele>801.88</ele>
        <time>2016-10-30T08:56:38Z</time>
      </trkpt>
      <trkpt lat="45.04746" lon="3.49608">
        <ele>801.88</ele>
        <time>2016-10-30T08:56:52Z</time>
      </trkpt>
      <trkpt lat="45.04741" lon="3.49597">
        <ele>804.76</ele>
        <time>2016-10-30T08:57:05Z</time>
      </trkpt>
      <trkpt lat="45.04744" lon="3.49603">
        <ele>807.16</ele>
        <time>2016-10-30T08:57:19Z</time>
      </trkpt>
      <trkpt lat="45.04736" lon="3.4959">
        <ele>807.16</ele>
        <time>2016-10-30T08:57:34Z</time>
      </trkpt>
      <trkpt lat="45.04726" lon="3.49571">
        <ele>808.13</ele>
        <time>2016-10-30T08:57:48Z</time>
      </trkpt>
      <trkpt lat="45.04726" lon="3.49571">
        <ele>808.13</ele>
        <time>2016-10-30T08:57:49Z</time>
      </trkpt>
      <trkpt lat="45.04712" lon="3.49556">
        <ele>810.05</ele>
        <time>2016-10-30T08:58:03Z</time>
      </trkpt>
      <trkpt lat="45.04699" lon="3.49536">
        <ele>812.45</ele>
        <time>2016-10-30T08:58:18Z</time>
      </trkpt>
      <trkpt lat="45.04695" lon="3.49508">
        <ele>813.41</ele>
        <time>2016-10-30T08:58:34Z</time>
      </trkpt>
      <trkpt lat="45.04694" lon="3.49503">
        <ele>813.41</ele>
        <time>2016-10-30T08:58:37Z</time>
      </trkpt>
      <trkpt lat="45.04683" lon="3.4948">
        <ele>817.26</ele>
        <time>2016-10-30T08:58:54Z</time>
      </trkpt>
      <trkpt lat="45.04664" lon="3.49463">
        <ele>820.14</ele>
        <time>2016-10-30T08:59:12Z</time>
      </trkpt>
      <trkpt lat="45.04646" lon="3.49455">
        <ele>822.06</ele>
        <time>2016-10-30T08:59:27Z</time>
      </trkpt>
      <trkpt lat="45.04628" lon="3.4944">
        <ele>822.55</ele>
        <time>2016-10-30T08:59:43Z</time>
      </trkpt>
      <trkpt lat="45.04608" lon="3.49427">
        <ele>823.03</ele>
        <time>2016-10-30T08:59:58Z</time>
      </trkpt>
      <trkpt lat="45.04587" lon="3.49417">
        <ele>822.06</ele>
        <time>2016-10-30T09:00:13Z</time>
      </trkpt>
      <trkpt lat="45.04569" lon="3.4941">
        <ele>819.18</ele>
        <time>2016-10-30T09:00:27Z</time>
      </trkpt>
      <trkpt lat="45.04548" lon="3.49403">
        <ele>815.82</ele>
        <time>2016-10-30T09:00:42Z</time>
      </trkpt>
      <trkpt lat="45.04523" lon="3.49398">
        <ele>812.45</ele>
        <time>2016-10-30T09:00:59Z</time>
      </trkpt>
      <trkpt lat="45.04505" lon="3.49391">
        <ele>812.45</ele>
        <time>2016-10-30T09:01:13Z</time>
      </trkpt>
      <trkpt lat="45.04491" lon="3.49377">
        <ele>811.49</ele>
        <time>2016-10-30T09:01:27Z</time>
      </trkpt>
      <trkpt lat="45.04476" lon="3.49361">
        <ele>811.01</ele>
        <time>2016-10-30T09:01:42Z</time>
      </trkpt>
      <trkpt lat="45.04466" lon="3.49354">
        <ele>810.53</ele>
        <time>2016-10-30T09:01:49Z</time>
      </trkpt>
      <trkpt lat="45.04451" lon="3.49336">
        <ele>812.45</ele>
        <time>2016-10-30T09:02:03Z</time>
      </trkpt>
      <trkpt lat="45.04434" lon="3.49317">
        <ele>809.09</ele>
        <time>2016-10-30T09:02:18Z</time>
      </trkpt>
      <trkpt lat="45.04418" lon="3.49304">
        <ele>805.72</ele>
        <time>2016-10-30T09:02:33Z</time>
      </trkpt>
      <trkpt lat="45.04399" lon="3.4929">
        <ele>801.4</ele>
        <time>2016-10-30T09:02:49Z</time>
      </trkpt>
      <trkpt lat="45.04388" lon="3.49282">
        <ele>799.47</ele>
        <time>2016-10-30T09:02:58Z</time>
      </trkpt>
      <trkpt lat="45.04361" lon="3.49273">
        <ele>799.47</ele>
        <time>2016-10-30T09:03:17Z</time>
      </trkpt>
      <trkpt lat="45.04344" lon="3.49263">
        <ele>800.44</ele>
        <time>2016-10-30T09:03:32Z</time>
      </trkpt>
      <trkpt lat="45.04328" lon="3.49254">
        <ele>800.44</ele>
        <time>2016-10-30T09:03:46Z</time>
      </trkpt>
      <trkpt lat="45.04311" lon="3.4924">
        <ele>800.44</ele>
        <time>2016-10-30T09:04:01Z</time>
      </trkpt>
      <trkpt lat="45.04293" lon="3.49218">
        <ele>802.36</ele>
        <time>2016-10-30T09:04:18Z</time>
      </trkpt>
      <trkpt lat="45.04279" lon="3.49196">
        <ele>804.28</ele>
        <time>2016-10-30T09:04:32Z</time>
      </trkpt>
      <trkpt lat="45.04268" lon="3.49174">
        <ele>806.2</ele>
        <time>2016-10-30T09:04:47Z</time>
      </trkpt>
      <trkpt lat="45.04267" lon="3.49173">
        <ele>806.68</ele>
        <time>2016-10-30T09:04:48Z</time>
      </trkpt>
      <trkpt lat="45.04254" lon="3.49148">
        <ele>806.2</ele>
        <time>2016-10-30T09:05:03Z</time>
      </trkpt>
      <trkpt lat="45.04243" lon="3.49132">
        <ele>805.72</ele>
        <time>2016-10-30T09:05:15Z</time>
      </trkpt>
      <trkpt lat="45.04235" lon="3.49124">
        <ele>803.32</ele>
        <time>2016-10-30T09:05:28Z</time>
      </trkpt>
      <trkpt lat="45.04221" lon="3.49114">
        <ele>803.8</ele>
        <time>2016-10-30T09:05:40Z</time>
      </trkpt>
      <trkpt lat="45.04211" lon="3.49107">
        <ele>803.8</ele>
        <time>2016-10-30T09:05:50Z</time>
      </trkpt>
      <trkpt lat="45.04208" lon="3.49105">
        <ele>803.8</ele>
        <time>2016-10-30T09:05:52Z</time>
      </trkpt>
      <trkpt lat="45.04191" lon="3.49091">
        <ele>805.24</ele>
        <time>2016-10-30T09:06:06Z</time>
      </trkpt>
      <trkpt lat="45.04179" lon="3.49081">
        <ele>807.16</ele>
        <time>2016-10-30T09:06:20Z</time>
      </trkpt>
      <trkpt lat="45.04163" lon="3.49071">
        <ele>808.61</ele>
        <time>2016-10-30T09:06:33Z</time>
      </trkpt>
      <trkpt lat="45.04139" lon="3.4906">
        <ele>811.01</ele>
        <time>2016-10-30T09:06:48Z</time>
      </trkpt>
      <trkpt lat="45.04116" lon="3.49055">
        <ele>811.97</ele>
        <time>2016-10-30T09:07:04Z</time>
      </trkpt>
      <trkpt lat="45.04098" lon="3.49048">
        <ele>813.41</ele>
        <time>2016-10-30T09:07:18Z</time>
      </trkpt>
      <trkpt lat="45.04085" lon="3.49034">
        <ele>814.85</ele>
        <time>2016-10-30T09:07:31Z</time>
      </trkpt>
      <trkpt lat="45.04084" lon="3.49033">
        <ele>814.85</ele>
        <time>2016-10-30T09:07:32Z</time>
      </trkpt>
      <trkpt lat="45.04075" lon="3.49021">
        <ele>818.22</ele>
        <time>2016-10-30T09:07:44Z</time>
      </trkpt>
      <trkpt lat="45.04058" lon="3.48999">
        <ele>822.06</ele>
        <time>2016-10-30T09:07:58Z</time>
      </trkpt>
      <trkpt lat="45.04045" lon="3.48988">
        <ele>822.06</ele>
        <time>2016-10-30T09:08:08Z</time>
      </trkpt>
      <trkpt lat="45.04027" lon="3.48966">
        <ele>823.03</ele>
        <time>2016-10-30T09:08:24Z</time>
      </trkpt>
      <trkpt lat="45.04011" lon="3.48942">
        <ele>824.47</ele>
        <time>2016-10-30T09:08:42Z</time>
      </trkpt>
      <trkpt lat="45.03997" lon="3.48918">
        <ele>826.39</ele>
        <time>2016-10-30T09:08:57Z</time>
      </trkpt>
      <trkpt lat="45.03986" lon="3.48904">
        <ele>827.83</ele>
        <time>2016-10-30T09:09:10Z</time>
      </trkpt>
      <trkpt lat="45.03971" lon="3.4889">
        <ele>828.79</ele>
        <time>2016-10-30T09:09:23Z</time>
      </trkpt>
      <trkpt lat="45.03955" lon="3.48878">
        <ele>830.72</ele>
        <time>2016-10-30T09:09:35Z</time>
      </trkpt>
      <trkpt lat="45.03941" lon="3.48872">
        <ele>832.64</ele>
        <time>2016-10-30T09:09:50Z</time>
      </trkpt>
      <trkpt lat="45.03929" lon="3.48867">
        <ele>835.04</ele>
        <time>2016-10-30T09:10:02Z</time>
      </trkpt>
      <trkpt lat="45.0392" lon="3.48857">
        <ele>837.45</ele>
        <time>2016-10-30T09:10:16Z</time>
      </trkpt>
      <trkpt lat="45.03918" lon="3.48842">
        <ele>840.81</ele>
        <time>2016-10-30T09:10:28Z</time>
      </trkpt>
      <trkpt lat="45.03914" lon="3.48821">
        <ele>843.21</ele>
        <time>2016-10-30T09:10:40Z</time>
      </trkpt>
      <trkpt lat="45.03908" lon="3.48797">
        <ele>844.18</ele>
        <time>2016-10-30T09:10:53Z</time>
      </trkpt>
      <trkpt lat="45.03905" lon="3.48788">
        <ele>844.18</ele>
        <time>2016-10-30T09:10:59Z</time>
      </trkpt>
      <trkpt lat="45.03894" lon="3.48763">
        <ele>845.62</ele>
        <time>2016-10-30T09:11:15Z</time>
      </trkpt>
      <trkpt lat="45.03887" lon="3.48752">
        <ele>850.42</ele>
        <time>2016-10-30T09:11:28Z</time>
      </trkpt>
      <trkpt lat="45.03885" lon="3.48746">
        <ele>852.83</ele>
        <time>2016-10-30T09:11:38Z</time>
      </trkpt>
      <trkpt lat="45.03882" lon="3.48739">
        <ele>852.35</ele>
        <time>2016-10-30T09:11:48Z</time>
      </trkpt>
      <trkpt lat="45.03876" lon="3.48734">
        <ele>850.9</ele>
        <time>2016-10-30T09:11:59Z</time>
      </trkpt>
      <trkpt lat="45.03874" lon="3.48731">
        <ele>848.98</ele>
        <time>2016-10-30T09:12:05Z</time>
      </trkpt>
      <trkpt lat="45.0386" lon="3.48718">
        <ele>847.06</ele>
        <time>2016-10-30T09:12:18Z</time>
      </trkpt>
      <trkpt lat="45.03845" lon="3.48706">
        <ele>847.54</ele>
        <time>2016-10-30T09:12:29Z</time>
      </trkpt>
      <trkpt lat="45.0383" lon="3.48695">
        <ele>847.06</ele>
        <time>2016-10-30T09:12:42Z</time>
      </trkpt>
      <trkpt lat="45.03823" lon="3.4869">
        <ele>847.06</ele>
        <time>2016-10-30T09:12:53Z</time>
      </trkpt>
      <trkpt lat="45.03817" lon="3.48685">
        <ele>847.54</ele>
        <time>2016-10-30T09:13:06Z</time>
      </trkpt>
      <trkpt lat="45.03811" lon="3.4868">
        <ele>849.46</ele>
        <time>2016-10-30T09:13:20Z</time>
      </trkpt>
      <trkpt lat="45.038" lon="3.48672">
        <ele>852.35</ele>
        <time>2016-10-30T09:13:36Z</time>
      </trkpt>
      <trkpt lat="45.03786" lon="3.48662">
        <ele>855.71</ele>
        <time>2016-10-30T09:13:49Z</time>
      </trkpt>
      <trkpt lat="45.03779" lon="3.48657">
        <ele>856.19</ele>
        <time>2016-10-30T09:14:03Z</time>
      </trkpt>
      <trkpt lat="45.03778" lon="3.48656">
        <ele>856.19</ele>
        <time>2016-10-30T09:14:04Z</time>
      </trkpt>
      <trkpt lat="45.03764" lon="3.48641">
        <ele>855.71</ele>
        <time>2016-10-30T09:14:14Z</time>
      </trkpt>
      <trkpt lat="45.03756" lon="3.48639">
        <ele>855.23</ele>
        <time>2016-10-30T09:14:19Z</time>
      </trkpt>
      <trkpt lat="45.03735" lon="3.48627">
        <ele>852.83</ele>
        <time>2016-10-30T09:14:33Z</time>
      </trkpt>
      <trkpt lat="45.03723" lon="3.48621">
        <ele>848.98</ele>
        <time>2016-10-30T09:14:44Z</time>
      </trkpt>
      <trkpt lat="45.03711" lon="3.48614">
        <ele>845.62</ele>
        <time>2016-10-30T09:14:59Z</time>
      </trkpt>
      <trkpt lat="45.03696" lon="3.48606">
        <ele>836.96</ele>
        <time>2016-10-30T09:15:13Z</time>
      </trkpt>
      <trkpt lat="45.03676" lon="3.48589">
        <ele>836.48</ele>
        <time>2016-10-30T09:15:28Z</time>
      </trkpt>
      <trkpt lat="45.03664" lon="3.48573">
        <ele>837.93</ele>
        <time>2016-10-30T09:15:42Z</time>
      </trkpt>
      <trkpt lat="45.03655" lon="3.48568">
        <ele>838.41</ele>
        <time>2016-10-30T09:15:46Z</time>
      </trkpt>
      <trkpt lat="45.03637" lon="3.48549">
        <ele>844.66</ele>
        <time>2016-10-30T09:15:57Z</time>
      </trkpt>
      <trkpt lat="45.03634" lon="3.48539">
        <ele>848.5</ele>
        <time>2016-10-30T09:16:03Z</time>
      </trkpt>
      <trkpt lat="45.03639" lon="3.48522">
        <ele>855.23</ele>
        <time>2016-10-30T09:16:13Z</time>
      </trkpt>
      <trkpt lat="45.03638" lon="3.48508">
        <ele>859.08</ele>
        <time>2016-10-30T09:16:21Z</time>
      </trkpt>
      <trkpt lat="45.03638" lon="3.48493">
        <ele>861</ele>
        <time>2016-10-30T09:16:31Z</time>
      </trkpt>
      <trkpt lat="45.03638" lon="3.48467">
        <ele>867.25</ele>
        <time>2016-10-30T09:16:43Z</time>
      </trkpt>
      <trkpt lat="45.0363" lon="3.4845">
        <ele>872.53</ele>
        <time>2016-10-30T09:16:54Z</time>
      </trkpt>
      <trkpt lat="45.03616" lon="3.48436">
        <ele>877.34</ele>
        <time>2016-10-30T09:17:11Z</time>
      </trkpt>
      <trkpt lat="45.03604" lon="3.48431">
        <ele>878.3</ele>
        <time>2016-10-30T09:17:23Z</time>
      </trkpt>
      <trkpt lat="45.03592" lon="3.48428">
        <ele>880.71</ele>
        <time>2016-10-30T09:17:35Z</time>
      </trkpt>
      <trkpt lat="45.0359" lon="3.48428">
        <ele>881.19</ele>
        <time>2016-10-30T09:17:37Z</time>
      </trkpt>
      <trkpt lat="45.03573" lon="3.48427">
        <ele>882.63</ele>
        <time>2016-10-30T09:17:53Z</time>
      </trkpt>
      <trkpt lat="45.03566" lon="3.48422">
        <ele>884.07</ele>
        <time>2016-10-30T09:18:03Z</time>
      </trkpt>
      <trkpt lat="45.03552" lon="3.48415">
        <ele>886.47</ele>
        <time>2016-10-30T09:18:15Z</time>
      </trkpt>
      <trkpt lat="45.0354" lon="3.48413">
        <ele>888.88</ele>
        <time>2016-10-30T09:18:30Z</time>
      </trkpt>
      <trkpt lat="45.03533" lon="3.48411">
        <ele>890.8</ele>
        <time>2016-10-30T09:18:43Z</time>
      </trkpt>
      <trkpt lat="45.03516" lon="3.48406">
        <ele>896.57</ele>
        <time>2016-10-30T09:18:56Z</time>
      </trkpt>
      <trkpt lat="45.035" lon="3.48392">
        <ele>902.82</ele>
        <time>2016-10-30T09:19:11Z</time>
      </trkpt>
      <trkpt lat="45.03493" lon="3.48383">
        <ele>905.7</ele>
        <time>2016-10-30T09:19:26Z</time>
      </trkpt>
      <trkpt lat="45.03484" lon="3.48371">
        <ele>909.54</ele>
        <time>2016-10-30T09:19:40Z</time>
      </trkpt>
      <trkpt lat="45.03467" lon="3.48354">
        <ele>916.27</ele>
        <time>2016-10-30T09:19:54Z</time>
      </trkpt>
      <trkpt lat="45.03449" lon="3.48339">
        <ele>919.16</ele>
        <time>2016-10-30T09:20:07Z</time>
      </trkpt>
      <trkpt lat="45.03438" lon="3.48313">
        <ele>923.48</ele>
        <time>2016-10-30T09:20:21Z</time>
      </trkpt>
      <trkpt lat="45.03438" lon="3.48312">
        <ele>923.96</ele>
        <time>2016-10-30T09:20:22Z</time>
      </trkpt>
      <trkpt lat="45.03435" lon="3.483">
        <ele>928.77</ele>
        <time>2016-10-30T09:20:32Z</time>
      </trkpt>
      <trkpt lat="45.03432" lon="3.48296">
        <ele>930.21</ele>
        <time>2016-10-30T09:20:35Z</time>
      </trkpt>
      <trkpt lat="45.03425" lon="3.48284">
        <ele>934.54</ele>
        <time>2016-10-30T09:20:45Z</time>
      </trkpt>
      <trkpt lat="45.03417" lon="3.48273">
        <ele>934.54</ele>
        <time>2016-10-30T09:20:56Z</time>
      </trkpt>
      <trkpt lat="45.03407" lon="3.48262">
        <ele>933.58</ele>
        <time>2016-10-30T09:21:05Z</time>
      </trkpt>
      <trkpt lat="45.03388" lon="3.48258">
        <ele>930.69</ele>
        <time>2016-10-30T09:21:18Z</time>
      </trkpt>
      <trkpt lat="45.03385" lon="3.48257">
        <ele>930.21</ele>
        <time>2016-10-30T09:21:19Z</time>
      </trkpt>
      <trkpt lat="45.03357" lon="3.48242">
        <ele>921.08</ele>
        <time>2016-10-30T09:21:30Z</time>
      </trkpt>
      <trkpt lat="45.03351" lon="3.48234">
        <ele>915.79</ele>
        <time>2016-10-30T09:21:38Z</time>
      </trkpt>
      <trkpt lat="45.03331" lon="3.48218">
        <ele>912.43</ele>
        <time>2016-10-30T09:21:55Z</time>
      </trkpt>
      <trkpt lat="45.0332" lon="3.48209">
        <ele>911.47</ele>
        <time>2016-10-30T09:22:05Z</time>
      </trkpt>
      <trkpt lat="45.03301" lon="3.48188">
        <ele>910.99</ele>
        <time>2016-10-30T09:22:22Z</time>
      </trkpt>
      <trkpt lat="45.03284" lon="3.48168">
        <ele>910.51</ele>
        <time>2016-10-30T09:22:39Z</time>
      </trkpt>
      <trkpt lat="45.03265" lon="3.48147">
        <ele>908.1</ele>
        <time>2016-10-30T09:22:55Z</time>
      </trkpt>
      <trkpt lat="45.03257" lon="3.48138">
        <ele>906.66</ele>
        <time>2016-10-30T09:23:02Z</time>
      </trkpt>
      <trkpt lat="45.03242" lon="3.48119">
        <ele>905.7</ele>
        <time>2016-10-30T09:23:14Z</time>
      </trkpt>
      <trkpt lat="45.03233" lon="3.4811">
        <ele>904.26</ele>
        <time>2016-10-30T09:23:22Z</time>
      </trkpt>
      <trkpt lat="45.03229" lon="3.48105">
        <ele>904.26</ele>
        <time>2016-10-30T09:23:26Z</time>
      </trkpt>
      <trkpt lat="45.03218" lon="3.4809">
        <ele>902.82</ele>
        <time>2016-10-30T09:23:39Z</time>
      </trkpt>
      <trkpt lat="45.03201" lon="3.48077">
        <ele>900.41</ele>
        <time>2016-10-30T09:23:55Z</time>
      </trkpt>
      <trkpt lat="45.0319" lon="3.48076">
        <ele>899.45</ele>
        <time>2016-10-30T09:24:03Z</time>
      </trkpt>
      <trkpt lat="45.03173" lon="3.48093">
        <ele>900.89</ele>
        <time>2016-10-30T09:24:20Z</time>
      </trkpt>
      <trkpt lat="45.03164" lon="3.48108">
        <ele>901.85</ele>
        <time>2016-10-30T09:24:34Z</time>
      </trkpt>
      <trkpt lat="45.03162" lon="3.4811">
        <ele>901.85</ele>
        <time>2016-10-30T09:24:36Z</time>
      </trkpt>
      <trkpt lat="45.0315" lon="3.48136">
        <ele>901.37</ele>
        <time>2016-10-30T09:24:53Z</time>
      </trkpt>
      <trkpt lat="45.03142" lon="3.48152">
        <ele>903.78</ele>
        <time>2016-10-30T09:25:06Z</time>
      </trkpt>
      <trkpt lat="45.0314" lon="3.48158">
        <ele>903.3</ele>
        <time>2016-10-30T09:25:09Z</time>
      </trkpt>
      <trkpt lat="45.03137" lon="3.48167">
        <ele>903.3</ele>
        <time>2016-10-30T09:25:15Z</time>
      </trkpt>
      <trkpt lat="45.03122" lon="3.48195">
        <ele>903.78</ele>
        <time>2016-10-30T09:25:32Z</time>
      </trkpt>
      <trkpt lat="45.03112" lon="3.48218">
        <ele>906.18</ele>
        <time>2016-10-30T09:25:47Z</time>
      </trkpt>
      <trkpt lat="45.03102" lon="3.48236">
        <ele>906.66</ele>
        <time>2016-10-30T09:26:01Z</time>
      </trkpt>
      <trkpt lat="45.03086" lon="3.48257">
        <ele>909.54</ele>
        <time>2016-10-30T09:26:18Z</time>
      </trkpt>
      <trkpt lat="45.03072" lon="3.48267">
        <ele>912.43</ele>
        <time>2016-10-30T09:26:30Z</time>
      </trkpt>
      <trkpt lat="45.03054" lon="3.48273">
        <ele>914.83</ele>
        <time>2016-10-30T09:26:45Z</time>
      </trkpt>
      <trkpt lat="45.03049" lon="3.48273">
        <ele>915.79</ele>
        <time>2016-10-30T09:26:48Z</time>
      </trkpt>
      <trkpt lat="45.03043" lon="3.48274">
        <ele>915.31</ele>
        <time>2016-10-30T09:26:52Z</time>
      </trkpt>
      <trkpt lat="45.03023" lon="3.48277">
        <ele>912.43</ele>
        <time>2016-10-30T09:27:02Z</time>
      </trkpt>
      <trkpt lat="45.03007" lon="3.48274">
        <ele>912.91</ele>
        <time>2016-10-30T09:27:15Z</time>
      </trkpt>
      <trkpt lat="45.03" lon="3.48278">
        <ele>913.87</ele>
        <time>2016-10-30T09:27:21Z</time>
      </trkpt>
      <trkpt lat="45.02983" lon="3.48297">
        <ele>914.83</ele>
        <time>2016-10-30T09:27:37Z</time>
      </trkpt>
      <trkpt lat="45.02977" lon="3.48324">
        <ele>916.75</ele>
        <time>2016-10-30T09:27:52Z</time>
      </trkpt>
      <trkpt lat="45.02964" lon="3.48357">
        <ele>915.79</ele>
        <time>2016-10-30T09:28:10Z</time>
      </trkpt>
      <trkpt lat="45.02948" lon="3.48365">
        <ele>907.14</ele>
        <time>2016-10-30T09:28:22Z</time>
      </trkpt>
      <trkpt lat="45.02944" lon="3.48374">
        <ele>907.14</ele>
        <time>2016-10-30T09:28:34Z</time>
      </trkpt>
      <trkpt lat="45.02939" lon="3.48382">
        <ele>906.66</ele>
        <time>2016-10-30T09:28:45Z</time>
      </trkpt>
      <trkpt lat="45.02938" lon="3.48384">
        <ele>906.66</ele>
        <time>2016-10-30T09:28:46Z</time>
      </trkpt>
      <trkpt lat="45.02935" lon="3.48389">
        <ele>907.62</ele>
        <time>2016-10-30T09:28:59Z</time>
      </trkpt>
      <trkpt lat="45.02932" lon="3.484">
        <ele>909.54</ele>
        <time>2016-10-30T09:29:10Z</time>
      </trkpt>
      <trkpt lat="45.02924" lon="3.48409">
        <ele>910.99</ele>
        <time>2016-10-30T09:29:18Z</time>
      </trkpt>
      <trkpt lat="45.02906" lon="3.48429">
        <ele>910.51</ele>
        <time>2016-10-30T09:29:33Z</time>
      </trkpt>
      <trkpt lat="45.02885" lon="3.48445">
        <ele>910.03</ele>
        <time>2016-10-30T09:29:50Z</time>
      </trkpt>
      <trkpt lat="45.02873" lon="3.48454">
        <ele>908.1</ele>
        <time>2016-10-30T09:30:00Z</time>
      </trkpt>
      <trkpt lat="45.02869" lon="3.48469">
        <ele>906.66</ele>
        <time>2016-10-30T09:30:08Z</time>
      </trkpt>
      <trkpt lat="45.02866" lon="3.4848">
        <ele>906.66</ele>
        <time>2016-10-30T09:30:13Z</time>
      </trkpt>
      <trkpt lat="45.02858" lon="3.4851">
        <ele>904.74</ele>
        <time>2016-10-30T09:30:29Z</time>
      </trkpt>
      <trkpt lat="45.02848" lon="3.48552">
        <ele>896.09</ele>
        <time>2016-10-30T09:30:50Z</time>
      </trkpt>
      <trkpt lat="45.0284" lon="3.48585">
        <ele>894.16</ele>
        <time>2016-10-30T09:31:07Z</time>
      </trkpt>
      <trkpt lat="45.02834" lon="3.48622">
        <ele>893.68</ele>
        <time>2016-10-30T09:31:24Z</time>
      </trkpt>
      <trkpt lat="45.02821" lon="3.48656">
        <ele>890.32</ele>
        <time>2016-10-30T09:31:42Z</time>
      </trkpt>
      <trkpt lat="45.02818" lon="3.48661">
        <ele>889.36</ele>
        <time>2016-10-30T09:31:45Z</time>
      </trkpt>
      <trkpt lat="45.02816" lon="3.48669">
        <ele>888.4</ele>
        <time>2016-10-30T09:31:49Z</time>
      </trkpt>
      <trkpt lat="45.02807" lon="3.48698">
        <ele>887.43</ele>
        <time>2016-10-30T09:32:04Z</time>
      </trkpt>
      <trkpt lat="45.02801" lon="3.48727">
        <ele>891.28</ele>
        <time>2016-10-30T09:32:19Z</time>
      </trkpt>
      <trkpt lat="45.028" lon="3.4873">
        <ele>891.76</ele>
        <time>2016-10-30T09:32:21Z</time>
      </trkpt>
      <trkpt lat="45.02788" lon="3.48753">
        <ele>892.72</ele>
        <time>2016-10-30T09:32:38Z</time>
      </trkpt>
      <trkpt lat="45.02767" lon="3.48783">
        <ele>887.43</ele>
        <time>2016-10-30T09:32:54Z</time>
      </trkpt>
      <trkpt lat="45.02762" lon="3.48821">
        <ele>885.99</ele>
        <time>2016-10-30T09:33:12Z</time>
      </trkpt>
      <trkpt lat="45.02776" lon="3.48853">
        <ele>883.11</ele>
        <time>2016-10-30T09:33:29Z</time>
      </trkpt>
      <trkpt lat="45.02783" lon="3.48888">
        <ele>882.15</ele>
        <time>2016-10-30T09:33:46Z</time>
      </trkpt>
      <trkpt lat="45.02774" lon="3.48916">
        <ele>880.71</ele>
        <time>2016-10-30T09:34:02Z</time>
      </trkpt>
      <trkpt lat="45.02746" lon="3.4894">
        <ele>879.26</ele>
        <time>2016-10-30T09:34:25Z</time>
      </trkpt>
      <trkpt lat="45.02721" lon="3.48949">
        <ele>876.86</ele>
        <time>2016-10-30T09:34:44Z</time>
      </trkpt>
      <trkpt lat="45.02702" lon="3.48962">
        <ele>878.78</ele>
        <time>2016-10-30T09:35:00Z</time>
      </trkpt>
      <trkpt lat="45.02696" lon="3.48973">
        <ele>878.78</ele>
        <time>2016-10-30T09:35:06Z</time>
      </trkpt>
      <trkpt lat="45.02686" lon="3.49014">
        <ele>874.46</ele>
        <time>2016-10-30T09:35:25Z</time>
      </trkpt>
      <trkpt lat="45.02681" lon="3.49053">
        <ele>875.42</ele>
        <time>2016-10-30T09:35:45Z</time>
      </trkpt>
      <trkpt lat="45.02678" lon="3.49099">
        <ele>873.01</ele>
        <time>2016-10-30T09:36:05Z</time>
      </trkpt>
      <trkpt lat="45.02683" lon="3.49138">
        <ele>871.57</ele>
        <time>2016-10-30T09:36:24Z</time>
      </trkpt>
      <trkpt lat="45.02695" lon="3.49178">
        <ele>871.09</ele>
        <time>2016-10-30T09:36:44Z</time>
      </trkpt>
      <trkpt lat="45.02707" lon="3.49212">
        <ele>868.21</ele>
        <time>2016-10-30T09:37:02Z</time>
      </trkpt>
      <trkpt lat="45.02723" lon="3.49247">
        <ele>867.25</ele>
        <time>2016-10-30T09:37:22Z</time>
      </trkpt>
      <trkpt lat="45.02745" lon="3.49284">
        <ele>865.8</ele>
        <time>2016-10-30T09:37:45Z</time>
      </trkpt>
      <trkpt lat="45.02766" lon="3.49314">
        <ele>862.92</ele>
        <time>2016-10-30T09:38:05Z</time>
      </trkpt>
      <trkpt lat="45.02781" lon="3.49334">
        <ele>861.48</ele>
        <time>2016-10-30T09:38:20Z</time>
      </trkpt>
      <trkpt lat="45.02796" lon="3.49356">
        <ele>861.48</ele>
        <time>2016-10-30T09:38:37Z</time>
      </trkpt>
      <trkpt lat="45.02815" lon="3.49376">
        <ele>861.96</ele>
        <time>2016-10-30T09:38:53Z</time>
      </trkpt>
      <trkpt lat="45.02831" lon="3.49382">
        <ele>861</ele>
        <time>2016-10-30T09:39:05Z</time>
      </trkpt>
      <trkpt lat="45.02839" lon="3.49351">
        <ele>858.11</ele>
        <time>2016-10-30T09:39:22Z</time>
      </trkpt>
      <trkpt lat="45.02855" lon="3.49333">
        <ele>854.27</ele>
        <time>2016-10-30T09:39:37Z</time>
      </trkpt>
      <trkpt lat="45.02866" lon="3.49313">
        <ele>850.9</ele>
        <time>2016-10-30T09:39:50Z</time>
      </trkpt>
      <trkpt lat="45.02857" lon="3.49284">
        <ele>848.02</ele>
        <time>2016-10-30T09:40:06Z</time>
      </trkpt>
      <trkpt lat="45.02848" lon="3.49264">
        <ele>845.62</ele>
        <time>2016-10-30T09:40:20Z</time>
      </trkpt>
      <trkpt lat="45.02845" lon="3.49258">
        <ele>844.66</ele>
        <time>2016-10-30T09:40:25Z</time>
      </trkpt>
      <trkpt lat="45.02836" lon="3.49225">
        <ele>840.33</ele>
        <time>2016-10-30T09:40:42Z</time>
      </trkpt>
      <trkpt lat="45.02835" lon="3.49218">
        <ele>840.33</ele>
        <time>2016-10-30T09:40:46Z</time>
      </trkpt>
      <trkpt lat="45.02836" lon="3.49183">
        <ele>839.37</ele>
        <time>2016-10-30T09:41:03Z</time>
      </trkpt>
      <trkpt lat="45.02837" lon="3.49178">
        <ele>839.37</ele>
        <time>2016-10-30T09:41:06Z</time>
      </trkpt>
      <trkpt lat="45.02843" lon="3.49154">
        <ele>840.81</ele>
        <time>2016-10-30T09:41:20Z</time>
      </trkpt>
      <trkpt lat="45.02848" lon="3.49136">
        <ele>839.37</ele>
        <time>2016-10-30T09:41:30Z</time>
      </trkpt>
      <trkpt lat="45.02852" lon="3.49106">
        <ele>837.45</ele>
        <time>2016-10-30T09:41:46Z</time>
      </trkpt>
      <trkpt lat="45.0285" lon="3.49076">
        <ele>832.16</ele>
        <time>2016-10-30T09:41:59Z</time>
      </trkpt>
      <trkpt lat="45.02858" lon="3.49063">
        <ele>827.35</ele>
        <time>2016-10-30T09:42:07Z</time>
      </trkpt>
      <trkpt lat="45.02871" lon="3.49048">
        <ele>824.95</ele>
        <time>2016-10-30T09:42:21Z</time>
      </trkpt>
      <trkpt lat="45.02886" lon="3.49043">
        <ele>824.95</ele>
        <time>2016-10-30T09:42:35Z</time>
      </trkpt>
      <trkpt lat="45.02894" lon="3.4904">
        <ele>825.43</ele>
        <time>2016-10-30T09:42:43Z</time>
      </trkpt>
      <trkpt lat="45.02907" lon="3.49035">
        <ele>825.91</ele>
        <time>2016-10-30T09:42:54Z</time>
      </trkpt>
      <trkpt lat="45.02914" lon="3.49035">
        <ele>825.91</ele>
        <time>2016-10-30T09:43:02Z</time>
      </trkpt>
      <trkpt lat="45.02933" lon="3.49033">
        <ele>824.95</ele>
        <time>2016-10-30T09:43:19Z</time>
      </trkpt>
      <trkpt lat="45.02944" lon="3.4903">
        <ele>822.06</ele>
        <time>2016-10-30T09:43:29Z</time>
      </trkpt>
      <trkpt lat="45.0296" lon="3.49023">
        <ele>817.74</ele>
        <time>2016-10-30T09:43:43Z</time>
      </trkpt>
      <trkpt lat="45.02976" lon="3.49023">
        <ele>819.66</ele>
        <time>2016-10-30T09:43:52Z</time>
      </trkpt>
      <trkpt lat="45.0298" lon="3.49021">
        <ele>819.18</ele>
        <time>2016-10-30T09:43:54Z</time>
      </trkpt>
      <trkpt lat="45.02994" lon="3.48994">
        <ele>814.85</ele>
        <time>2016-10-30T09:44:10Z</time>
      </trkpt>
      <trkpt lat="45.03002" lon="3.48974">
        <ele>816.78</ele>
        <time>2016-10-30T09:44:23Z</time>
      </trkpt>
      <trkpt lat="45.03009" lon="3.48939">
        <ele>811.49</ele>
        <time>2016-10-30T09:44:38Z</time>
      </trkpt>
      <trkpt lat="45.03013" lon="3.48912">
        <ele>811.49</ele>
        <time>2016-10-30T09:44:53Z</time>
      </trkpt>
      <trkpt lat="45.03013" lon="3.48881">
        <ele>809.57</ele>
        <time>2016-10-30T09:45:06Z</time>
      </trkpt>
      <trkpt lat="45.03014" lon="3.48852">
        <ele>807.64</ele>
        <time>2016-10-30T09:45:21Z</time>
      </trkpt>
      <trkpt lat="45.03011" lon="3.48834">
        <ele>808.13</ele>
        <time>2016-10-30T09:45:34Z</time>
      </trkpt>
      <trkpt lat="45.03017" lon="3.48821">
        <ele>809.57</ele>
        <time>2016-10-30T09:45:44Z</time>
      </trkpt>
      <trkpt lat="45.03019" lon="3.48825">
        <ele>811.01</ele>
        <time>2016-10-30T09:45:56Z</time>
      </trkpt>
      <trkpt lat="45.03023" lon="3.48835">
        <ele>819.66</ele>
        <time>2016-10-30T09:46:10Z</time>
      </trkpt>
      <trkpt lat="45.03028" lon="3.48841">
        <ele>819.66</ele>
        <time>2016-10-30T09:46:16Z</time>
      </trkpt>
      <trkpt lat="45.03046" lon="3.4886">
        <ele>818.7</ele>
        <time>2016-10-30T09:46:31Z</time>
      </trkpt>
      <trkpt lat="45.03049" lon="3.48864">
        <ele>818.7</ele>
        <time>2016-10-30T09:46:34Z</time>
      </trkpt>
      <trkpt lat="45.03057" lon="3.48871">
        <ele>817.74</ele>
        <time>2016-10-30T09:46:39Z</time>
      </trkpt>
      <trkpt lat="45.03062" lon="3.48875">
        <ele>817.74</ele>
        <time>2016-10-30T09:46:43Z</time>
      </trkpt>
      <trkpt lat="45.03068" lon="3.48884">
        <ele>818.22</ele>
        <time>2016-10-30T09:46:49Z</time>
      </trkpt>
      <trkpt lat="45.03079" lon="3.48895">
        <ele>820.62</ele>
        <time>2016-10-30T09:47:00Z</time>
      </trkpt>
      <trkpt lat="45.03081" lon="3.48898">
        <ele>820.14</ele>
        <time>2016-10-30T09:47:02Z</time>
      </trkpt>
      <trkpt lat="45.03096" lon="3.48917">
        <ele>821.58</ele>
        <time>2016-10-30T09:47:16Z</time>
      </trkpt>
      <trkpt lat="45.03105" lon="3.48931">
        <ele>823.51</ele>
        <time>2016-10-30T09:47:28Z</time>
      </trkpt>
      <trkpt lat="45.03117" lon="3.48948">
        <ele>824.47</ele>
        <time>2016-10-30T09:47:43Z</time>
      </trkpt>
      <trkpt lat="45.03128" lon="3.48964">
        <ele>828.31</ele>
        <time>2016-10-30T09:47:56Z</time>
      </trkpt>
      <trkpt lat="45.03143" lon="3.48984">
        <ele>839.37</ele>
        <time>2016-10-30T09:48:13Z</time>
      </trkpt>
      <trkpt lat="45.03148" lon="3.48986">
        <ele>842.25</ele>
        <time>2016-10-30T09:48:20Z</time>
      </trkpt>
      <trkpt lat="45.03169" lon="3.48996">
        <ele>847.54</ele>
        <time>2016-10-30T09:48:35Z</time>
      </trkpt>
      <trkpt lat="45.03194" lon="3.49007">
        <ele>841.77</ele>
        <time>2016-10-30T09:48:49Z</time>
      </trkpt>
      <trkpt lat="45.03224" lon="3.49014">
        <ele>840.33</ele>
        <time>2016-10-30T09:49:04Z</time>
      </trkpt>
      <trkpt lat="45.03246" lon="3.49008">
        <ele>836.96</ele>
        <time>2016-10-30T09:49:18Z</time>
      </trkpt>
      <trkpt lat="45.03262" lon="3.48995">
        <ele>833.12</ele>
        <time>2016-10-30T09:49:32Z</time>
      </trkpt>
      <trkpt lat="45.03267" lon="3.48992">
        <ele>833.12</ele>
        <time>2016-10-30T09:49:36Z</time>
      </trkpt>
      <trkpt lat="45.03281" lon="3.48986">
        <ele>832.16</ele>
        <time>2016-10-30T09:49:46Z</time>
      </trkpt>
      <trkpt lat="45.03283" lon="3.48984">
        <ele>832.16</ele>
        <time>2016-10-30T09:49:48Z</time>
      </trkpt>
      <trkpt lat="45.03304" lon="3.48973">
        <ele>833.6</ele>
        <time>2016-10-30T09:50:02Z</time>
      </trkpt>
      <trkpt lat="45.03322" lon="3.48965">
        <ele>834.56</ele>
        <time>2016-10-30T09:50:15Z</time>
      </trkpt>
      <trkpt lat="45.03335" lon="3.48958">
        <ele>836.48</ele>
        <time>2016-10-30T09:50:24Z</time>
      </trkpt>
      <trkpt lat="45.03353" lon="3.48951">
        <ele>841.29</ele>
        <time>2016-10-30T09:50:39Z</time>
      </trkpt>
      <trkpt lat="45.03358" lon="3.48948">
        <ele>840.33</ele>
        <time>2016-10-30T09:50:53Z</time>
      </trkpt>
      <trkpt lat="45.03368" lon="3.48955">
        <ele>843.69</ele>
        <time>2016-10-30T09:51:05Z</time>
      </trkpt>
      <trkpt lat="45.03373" lon="3.48959">
        <ele>844.66</ele>
        <time>2016-10-30T09:51:09Z</time>
      </trkpt>
      <trkpt lat="45.03391" lon="3.48974">
        <ele>848.5</ele>
        <time>2016-10-30T09:51:26Z</time>
      </trkpt>
      <trkpt lat="45.03407" lon="3.4898">
        <ele>850.9</ele>
        <time>2016-10-30T09:51:39Z</time>
      </trkpt>
      <trkpt lat="45.03424" lon="3.48997">
        <ele>850.42</ele>
        <time>2016-10-30T09:51:52Z</time>
      </trkpt>
      <trkpt lat="45.03453" lon="3.49012">
        <ele>849.94</ele>
        <time>2016-10-30T09:52:08Z</time>
      </trkpt>
      <trkpt lat="45.03475" lon="3.49012">
        <ele>851.87</ele>
        <time>2016-10-30T09:52:24Z</time>
      </trkpt>
      <trkpt lat="45.03486" lon="3.49012">
        <ele>851.87</ele>
        <time>2016-10-30T09:52:38Z</time>
      </trkpt>
      <trkpt lat="45.03506" lon="3.49016">
        <ele>852.35</ele>
        <time>2016-10-30T09:52:53Z</time>
      </trkpt>
      <trkpt lat="45.0352" lon="3.49023">
        <ele>853.31</ele>
        <time>2016-10-30T09:53:09Z</time>
      </trkpt>
      <trkpt lat="45.03529" lon="3.49032">
        <ele>854.75</ele>
        <time>2016-10-30T09:53:23Z</time>
      </trkpt>
      <trkpt lat="45.03548" lon="3.49044">
        <ele>856.19</ele>
        <time>2016-10-30T09:53:34Z</time>
      </trkpt>
      <trkpt lat="45.03554" lon="3.49047">
        <ele>857.15</ele>
        <time>2016-10-30T09:53:38Z</time>
      </trkpt>
      <trkpt lat="45.03574" lon="3.49064">
        <ele>861</ele>
        <time>2016-10-30T09:53:52Z</time>
      </trkpt>
      <trkpt lat="45.0359" lon="3.49088">
        <ele>870.61</ele>
        <time>2016-10-30T09:54:08Z</time>
      </trkpt>
      <trkpt lat="45.03593" lon="3.49091">
        <ele>870.61</ele>
        <time>2016-10-30T09:54:11Z</time>
      </trkpt>
      <trkpt lat="45.03614" lon="3.4912">
        <ele>869.65</ele>
        <time>2016-10-30T09:54:28Z</time>
      </trkpt>
      <trkpt lat="45.03627" lon="3.49138">
        <ele>870.61</ele>
        <time>2016-10-30T09:54:41Z</time>
      </trkpt>
      <trkpt lat="45.03633" lon="3.49147">
        <ele>873.5</ele>
        <time>2016-10-30T09:54:48Z</time>
      </trkpt>
      <trkpt lat="45.03646" lon="3.49166">
        <ele>875.42</ele>
        <time>2016-10-30T09:55:02Z</time>
      </trkpt>
      <trkpt lat="45.03661" lon="3.49177">
        <ele>881.19</ele>
        <time>2016-10-30T09:55:16Z</time>
      </trkpt>
      <trkpt lat="45.03664" lon="3.49179">
        <ele>882.15</ele>
        <time>2016-10-30T09:55:18Z</time>
      </trkpt>
      <trkpt lat="45.03683" lon="3.49197">
        <ele>888.4</ele>
        <time>2016-10-30T09:55:36Z</time>
      </trkpt>
      <trkpt lat="45.03702" lon="3.49209">
        <ele>890.8</ele>
        <time>2016-10-30T09:55:50Z</time>
      </trkpt>
      <trkpt lat="45.03723" lon="3.49226">
        <ele>895.12</ele>
        <time>2016-10-30T09:56:06Z</time>
      </trkpt>
      <trkpt lat="45.03737" lon="3.49237">
        <ele>899.93</ele>
        <time>2016-10-30T09:56:19Z</time>
      </trkpt>
      <trkpt lat="45.03758" lon="3.49251">
        <ele>900.41</ele>
        <time>2016-10-30T09:56:35Z</time>
      </trkpt>
      <trkpt lat="45.03759" lon="3.49252">
        <ele>900.41</ele>
        <time>2016-10-30T09:56:36Z</time>
      </trkpt>
      <trkpt lat="45.03779" lon="3.49258">
        <ele>902.33</ele>
        <time>2016-10-30T09:56:52Z</time>
      </trkpt>
      <trkpt lat="45.03788" lon="3.49263">
        <ele>901.37</ele>
        <time>2016-10-30T09:56:58Z</time>
      </trkpt>
      <trkpt lat="45.03803" lon="3.49273">
        <ele>897.53</ele>
        <time>2016-10-30T09:57:06Z</time>
      </trkpt>
      <trkpt lat="45.03811" lon="3.49277">
        <ele>896.57</ele>
        <time>2016-10-30T09:57:11Z</time>
      </trkpt>
      <trkpt lat="45.03823" lon="3.4928">
        <ele>894.64</ele>
        <time>2016-10-30T09:57:15Z</time>
      </trkpt>
      <trkpt lat="45.03848" lon="3.4927">
        <ele>892.72</ele>
        <time>2016-10-30T09:57:32Z</time>
      </trkpt>
      <trkpt lat="45.03871" lon="3.49273">
        <ele>892.24</ele>
        <time>2016-10-30T09:57:48Z</time>
      </trkpt>
      <trkpt lat="45.03875" lon="3.49275">
        <ele>891.28</ele>
        <time>2016-10-30T09:57:52Z</time>
      </trkpt>
      <trkpt lat="45.03893" lon="3.49284">
        <ele>890.8</ele>
        <time>2016-10-30T09:58:08Z</time>
      </trkpt>
      <trkpt lat="45.03915" lon="3.49294">
        <ele>891.28</ele>
        <time>2016-10-30T09:58:26Z</time>
      </trkpt>
      <trkpt lat="45.03941" lon="3.49307">
        <ele>887.43</ele>
        <time>2016-10-30T09:58:43Z</time>
      </trkpt>
      <trkpt lat="45.03969" lon="3.49315">
        <ele>879.74</ele>
        <time>2016-10-30T09:59:01Z</time>
      </trkpt>
      <trkpt lat="45.03997" lon="3.49318">
        <ele>872.53</ele>
        <time>2016-10-30T09:59:21Z</time>
      </trkpt>
      <trkpt lat="45.04019" lon="3.49317">
        <ele>866.77</ele>
        <time>2016-10-30T09:59:38Z</time>
      </trkpt>
      <trkpt lat="45.04037" lon="3.49324">
        <ele>865.32</ele>
        <time>2016-10-30T09:59:52Z</time>
      </trkpt>
      <trkpt lat="45.04046" lon="3.49332">
        <ele>863.4</ele>
        <time>2016-10-30T10:00:01Z</time>
      </trkpt>
      <trkpt lat="45.04043" lon="3.49339">
        <ele>862.44</ele>
        <time>2016-10-30T10:00:16Z</time>
      </trkpt>
      <trkpt lat="45.04041" lon="3.4934">
        <ele>861.96</ele>
        <time>2016-10-30T10:00:19Z</time>
      </trkpt>
      <trkpt lat="45.04029" lon="3.4935">
        <ele>860.52</ele>
        <time>2016-10-30T10:00:34Z</time>
      </trkpt>
      <trkpt lat="45.04029" lon="3.49356">
        <ele>859.56</ele>
        <time>2016-10-30T10:00:48Z</time>
      </trkpt>
      <trkpt lat="45.04029" lon="3.49356">
        <ele>858.59</ele>
        <time>2016-10-30T10:01:11Z</time>
      </trkpt>
      <trkpt lat="45.04029" lon="3.49357">
        <ele>859.08</ele>
        <time>2016-10-30T10:01:24Z</time>
      </trkpt>
      <trkpt lat="45.04029" lon="3.49357">
        <ele>858.59</ele>
        <time>2016-10-30T10:01:43Z</time>
      </trkpt>
      <trkpt lat="45.04029" lon="3.49357">
        <ele>858.11</ele>
        <time>2016-10-30T10:02:01Z</time>
      </trkpt>
      <trkpt lat="45.0403" lon="3.49357">
        <ele>858.59</ele>
        <time>2016-10-30T10:02:16Z</time>
      </trkpt>
      <trkpt lat="45.0403" lon="3.49356">
        <ele>858.59</ele>
        <time>2016-10-30T10:02:18Z</time>
      </trkpt>
      <trkpt lat="45.04036" lon="3.49361">
        <ele>857.63</ele>
        <time>2016-10-30T10:02:24Z</time>
      </trkpt>
      <trkpt lat="45.04048" lon="3.49368">
        <ele>856.67</ele>
        <time>2016-10-30T10:02:34Z</time>
      </trkpt>
      <trkpt lat="45.04053" lon="3.49371">
        <ele>855.71</ele>
        <time>2016-10-30T10:02:38Z</time>
      </trkpt>
      <trkpt lat="45.04059" lon="3.49376">
        <ele>855.23</ele>
        <time>2016-10-30T10:02:43Z</time>
      </trkpt>
      <trkpt lat="45.04078" lon="3.49387">
        <ele>856.19</ele>
        <time>2016-10-30T10:02:59Z</time>
      </trkpt>
      <trkpt lat="45.04083" lon="3.49391">
        <ele>856.67</ele>
        <time>2016-10-30T10:03:04Z</time>
      </trkpt>
      <trkpt lat="45.04087" lon="3.49397">
        <ele>856.19</ele>
        <time>2016-10-30T10:03:08Z</time>
      </trkpt>
      <trkpt lat="45.04098" lon="3.49424">
        <ele>851.38</ele>
        <time>2016-10-30T10:03:25Z</time>
      </trkpt>
      <trkpt lat="45.041" lon="3.4944">
        <ele>852.83</ele>
        <time>2016-10-30T10:03:35Z</time>
      </trkpt>
      <trkpt lat="45.04101" lon="3.49447">
        <ele>853.31</ele>
        <time>2016-10-30T10:03:39Z</time>
      </trkpt>
      <trkpt lat="45.04102" lon="3.49466">
        <ele>855.71</ele>
        <time>2016-10-30T10:03:52Z</time>
      </trkpt>
      <trkpt lat="45.04101" lon="3.49486">
        <ele>859.56</ele>
        <time>2016-10-30T10:04:03Z</time>
      </trkpt>
      <trkpt lat="45.04103" lon="3.49506">
        <ele>859.56</ele>
        <time>2016-10-30T10:04:13Z</time>
      </trkpt>
      <trkpt lat="45.04104" lon="3.49517">
        <ele>859.56</ele>
        <time>2016-10-30T10:04:18Z</time>
      </trkpt>
      <trkpt lat="45.04106" lon="3.49528">
        <ele>859.08</ele>
        <time>2016-10-30T10:04:23Z</time>
      </trkpt>
      <trkpt lat="45.04105" lon="3.49536">
        <ele>859.08</ele>
        <time>2016-10-30T10:04:27Z</time>
      </trkpt>
      <trkpt lat="45.04104" lon="3.49553">
        <ele>857.15</ele>
        <time>2016-10-30T10:04:34Z</time>
      </trkpt>
      <trkpt lat="45.04107" lon="3.49575">
        <ele>854.75</ele>
        <time>2016-10-30T10:04:43Z</time>
      </trkpt>
      <trkpt lat="45.04111" lon="3.496">
        <ele>851.38</ele>
        <time>2016-10-30T10:04:53Z</time>
      </trkpt>
      <trkpt lat="45.04114" lon="3.4961">
        <ele>849.46</ele>
        <time>2016-10-30T10:04:57Z</time>
      </trkpt>
      <trkpt lat="45.04123" lon="3.49653">
        <ele>840.81</ele>
        <time>2016-10-30T10:05:14Z</time>
      </trkpt>
      <trkpt lat="45.0413" lon="3.49671">
        <ele>835.52</ele>
        <time>2016-10-30T10:05:23Z</time>
      </trkpt>
      <trkpt lat="45.04138" lon="3.49689">
        <ele>830.72</ele>
        <time>2016-10-30T10:05:30Z</time>
      </trkpt>
      <trkpt lat="45.0414" lon="3.49694">
        <ele>829.27</ele>
        <time>2016-10-30T10:05:32Z</time>
      </trkpt>
      <trkpt lat="45.04137" lon="3.49697">
        <ele>825.43</ele>
        <time>2016-10-30T10:05:38Z</time>
      </trkpt>
      <trkpt lat="45.04124" lon="3.49682">
        <ele>820.14</ele>
        <time>2016-10-30T10:05:53Z</time>
      </trkpt>
      <trkpt lat="45.04117" lon="3.49676">
        <ele>819.66</ele>
        <time>2016-10-30T10:05:59Z</time>
      </trkpt>
      <trkpt lat="45.04113" lon="3.4967">
        <ele>818.7</ele>
        <time>2016-10-30T10:06:03Z</time>
      </trkpt>
      <trkpt lat="45.04097" lon="3.49645">
        <ele>813.89</ele>
        <time>2016-10-30T10:06:20Z</time>
      </trkpt>
      <trkpt lat="45.04088" lon="3.49632">
        <ele>811.97</ele>
        <time>2016-10-30T10:06:29Z</time>
      </trkpt>
      <trkpt lat="45.04071" lon="3.4961">
        <ele>814.37</ele>
        <time>2016-10-30T10:06:45Z</time>
      </trkpt>
      <trkpt lat="45.04054" lon="3.49586">
        <ele>813.41</ele>
        <time>2016-10-30T10:07:01Z</time>
      </trkpt>
      <trkpt lat="45.04038" lon="3.49561">
        <ele>816.3</ele>
        <time>2016-10-30T10:07:17Z</time>
      </trkpt>
      <trkpt lat="45.0402" lon="3.4954">
        <ele>817.26</ele>
        <time>2016-10-30T10:07:33Z</time>
      </trkpt>
      <trkpt lat="45.04011" lon="3.49537">
        <ele>815.82</ele>
        <time>2016-10-30T10:07:39Z</time>
      </trkpt>
      <trkpt lat="45.04008" lon="3.49539">
        <ele>815.34</ele>
        <time>2016-10-30T10:07:41Z</time>
      </trkpt>
      <trkpt lat="45.04008" lon="3.49562">
        <ele>809.57</ele>
        <time>2016-10-30T10:07:55Z</time>
      </trkpt>
      <trkpt lat="45.04015" lon="3.49591">
        <ele>802.36</ele>
        <time>2016-10-30T10:08:13Z</time>
      </trkpt>
      <trkpt lat="45.04015" lon="3.49598">
        <ele>800.92</ele>
        <time>2016-10-30T10:08:18Z</time>
      </trkpt>
      <trkpt lat="45.0401" lon="3.496">
        <ele>799.47</ele>
        <time>2016-10-30T10:08:23Z</time>
      </trkpt>
      <trkpt lat="45.03995" lon="3.49582">
        <ele>791.3</ele>
        <time>2016-10-30T10:08:39Z</time>
      </trkpt>
      <trkpt lat="45.03973" lon="3.49579">
        <ele>788.42</ele>
        <time>2016-10-30T10:08:55Z</time>
      </trkpt>
      <trkpt lat="45.03951" lon="3.49591">
        <ele>789.86</ele>
        <time>2016-10-30T10:09:11Z</time>
      </trkpt>
      <trkpt lat="45.03949" lon="3.49595">
        <ele>789.86</ele>
        <time>2016-10-30T10:09:14Z</time>
      </trkpt>
      <trkpt lat="45.03941" lon="3.49616">
        <ele>790.34</ele>
        <time>2016-10-30T10:09:26Z</time>
      </trkpt>
      <trkpt lat="45.03942" lon="3.49619">
        <ele>789.86</ele>
        <time>2016-10-30T10:09:28Z</time>
      </trkpt>
      <trkpt lat="45.03943" lon="3.49621">
        <ele>789.38</ele>
        <time>2016-10-30T10:09:30Z</time>
      </trkpt>
      <trkpt lat="45.03962" lon="3.49619">
        <ele>786.98</ele>
        <time>2016-10-30T10:09:44Z</time>
      </trkpt>
      <trkpt lat="45.03979" lon="3.49626">
        <ele>783.13</ele>
        <time>2016-10-30T10:09:58Z</time>
      </trkpt>
      <trkpt lat="45.03983" lon="3.49633">
        <ele>781.69</ele>
        <time>2016-10-30T10:10:03Z</time>
      </trkpt>
      <trkpt lat="45.03994" lon="3.49658">
        <ele>775.44</ele>
        <time>2016-10-30T10:10:20Z</time>
      </trkpt>
      <trkpt lat="45.04004" lon="3.49688">
        <ele>772.08</ele>
        <time>2016-10-30T10:10:38Z</time>
      </trkpt>
      <trkpt lat="45.04002" lon="3.49692">
        <ele>771.11</ele>
        <time>2016-10-30T10:10:42Z</time>
      </trkpt>
      <trkpt lat="45.03998" lon="3.49689">
        <ele>769.67</ele>
        <time>2016-10-30T10:10:46Z</time>
      </trkpt>
      <trkpt lat="45.03984" lon="3.49676">
        <ele>764.87</ele>
        <time>2016-10-30T10:10:59Z</time>
      </trkpt>
      <trkpt lat="45.03966" lon="3.49675">
        <ele>761.98</ele>
        <time>2016-10-30T10:11:14Z</time>
      </trkpt>
      <trkpt lat="45.0395" lon="3.49697">
        <ele>760.06</ele>
        <time>2016-10-30T10:11:29Z</time>
      </trkpt>
      <trkpt lat="45.03933" lon="3.49715">
        <ele>757.66</ele>
        <time>2016-10-30T10:11:43Z</time>
      </trkpt>
      <trkpt lat="45.03919" lon="3.49734">
        <ele>756.21</ele>
        <time>2016-10-30T10:11:57Z</time>
      </trkpt>
      <trkpt lat="45.03912" lon="3.49749">
        <ele>754.77</ele>
        <time>2016-10-30T10:12:06Z</time>
      </trkpt>
      <trkpt lat="45.03907" lon="3.49772">
        <ele>750.93</ele>
        <time>2016-10-30T10:12:19Z</time>
      </trkpt>
      <trkpt lat="45.03902" lon="3.49801">
        <ele>749.97</ele>
        <time>2016-10-30T10:12:35Z</time>
      </trkpt>
      <trkpt lat="45.03898" lon="3.49827">
        <ele>749.49</ele>
        <time>2016-10-30T10:12:49Z</time>
      </trkpt>
      <trkpt lat="45.03893" lon="3.49856">
        <ele>746.12</ele>
        <time>2016-10-30T10:13:03Z</time>
      </trkpt>
      <trkpt lat="45.03889" lon="3.49871">
        <ele>743.24</ele>
        <time>2016-10-30T10:13:12Z</time>
      </trkpt>
      <trkpt lat="45.03887" lon="3.49886">
        <ele>745.64</ele>
        <time>2016-10-30T10:13:21Z</time>
      </trkpt>
      <trkpt lat="45.03885" lon="3.499">
        <ele>750.45</ele>
        <time>2016-10-30T10:13:30Z</time>
      </trkpt>
      <trkpt lat="45.03883" lon="3.4991">
        <ele>751.89</ele>
        <time>2016-10-30T10:13:36Z</time>
      </trkpt>
      <trkpt lat="45.03876" lon="3.49939">
        <ele>755.73</ele>
        <time>2016-10-30T10:13:51Z</time>
      </trkpt>
      <trkpt lat="45.03867" lon="3.49964">
        <ele>752.37</ele>
        <time>2016-10-30T10:14:04Z</time>
      </trkpt>
      <trkpt lat="45.03867" lon="3.49966">
        <ele>751.89</ele>
        <time>2016-10-30T10:14:05Z</time>
      </trkpt>
      <trkpt lat="45.03855" lon="3.49986">
        <ele>745.16</ele>
        <time>2016-10-30T10:14:16Z</time>
      </trkpt>
      <trkpt lat="45.03842" lon="3.50015">
        <ele>738.91</ele>
        <time>2016-10-30T10:14:30Z</time>
      </trkpt>
      <trkpt lat="45.0383" lon="3.50045">
        <ele>733.62</ele>
        <time>2016-10-30T10:14:46Z</time>
      </trkpt>
      <trkpt lat="45.03814" lon="3.50077">
        <ele>725.93</ele>
        <time>2016-10-30T10:15:04Z</time>
      </trkpt>
      <trkpt lat="45.03808" lon="3.50093">
        <ele>722.57</ele>
        <time>2016-10-30T10:15:12Z</time>
      </trkpt>
      <trkpt lat="45.03796" lon="3.50122">
        <ele>717.28</ele>
        <time>2016-10-30T10:15:29Z</time>
      </trkpt>
      <trkpt lat="45.03782" lon="3.50149">
        <ele>710.55</ele>
        <time>2016-10-30T10:15:45Z</time>
      </trkpt>
      <trkpt lat="45.03798" lon="3.50161">
        <ele>706.71</ele>
        <time>2016-10-30T10:15:58Z</time>
      </trkpt>
      <trkpt lat="45.03817" lon="3.50151">
        <ele>704.3</ele>
        <time>2016-10-30T10:16:13Z</time>
      </trkpt>
      <trkpt lat="45.03837" lon="3.50131">
        <ele>703.34</ele>
        <time>2016-10-30T10:16:30Z</time>
      </trkpt>
      <trkpt lat="45.03861" lon="3.50118">
        <ele>699.5</ele>
        <time>2016-10-30T10:16:47Z</time>
      </trkpt>
      <trkpt lat="45.03882" lon="3.50111">
        <ele>696.13</ele>
        <time>2016-10-30T10:17:01Z</time>
      </trkpt>
      <trkpt lat="45.039" lon="3.50092">
        <ele>692.77</ele>
        <time>2016-10-30T10:17:17Z</time>
      </trkpt>
      <trkpt lat="45.03915" lon="3.50064">
        <ele>690.84</ele>
        <time>2016-10-30T10:17:35Z</time>
      </trkpt>
      <trkpt lat="45.03935" lon="3.50041">
        <ele>687.96</ele>
        <time>2016-10-30T10:17:53Z</time>
      </trkpt>
      <trkpt lat="45.03951" lon="3.50015">
        <ele>687</ele>
        <time>2016-10-30T10:18:10Z</time>
      </trkpt>
      <trkpt lat="45.03959" lon="3.50016">
        <ele>686.04</ele>
        <time>2016-10-30T10:18:17Z</time>
      </trkpt>
      <trkpt lat="45.0396" lon="3.50025">
        <ele>685.08</ele>
        <time>2016-10-30T10:18:23Z</time>
      </trkpt>
      <trkpt lat="45.03961" lon="3.50035">
        <ele>687.48</ele>
        <time>2016-10-30T10:18:29Z</time>
      </trkpt>
      <trkpt lat="45.03963" lon="3.50041">
        <ele>688.44</ele>
        <time>2016-10-30T10:18:33Z</time>
      </trkpt>
      <trkpt lat="45.03963" lon="3.50056">
        <ele>689.88</ele>
        <time>2016-10-30T10:18:42Z</time>
      </trkpt>
      <trkpt lat="45.03964" lon="3.50069">
        <ele>689.88</ele>
        <time>2016-10-30T10:18:48Z</time>
      </trkpt>
      <trkpt lat="45.03967" lon="3.50101">
        <ele>685.08</ele>
        <time>2016-10-30T10:19:03Z</time>
      </trkpt>
      <trkpt lat="45.03969" lon="3.50109">
        <ele>684.12</ele>
        <time>2016-10-30T10:19:07Z</time>
      </trkpt>
      <trkpt lat="45.03976" lon="3.5012">
        <ele>681.23</ele>
        <time>2016-10-30T10:19:13Z</time>
      </trkpt>
      <trkpt lat="45.03992" lon="3.50132">
        <ele>675.94</ele>
        <time>2016-10-30T10:19:25Z</time>
      </trkpt>
      <trkpt lat="45.03988" lon="3.50142">
        <ele>675.94</ele>
        <time>2016-10-30T10:19:32Z</time>
      </trkpt>
      <trkpt lat="45.03988" lon="3.50151">
        <ele>675.94</ele>
        <time>2016-10-30T10:19:38Z</time>
      </trkpt>
      <trkpt lat="45.03979" lon="3.50173">
        <ele>674.02</ele>
        <time>2016-10-30T10:19:52Z</time>
      </trkpt>
      <trkpt lat="45.03976" lon="3.50181">
        <ele>674.02</ele>
        <time>2016-10-30T10:19:57Z</time>
      </trkpt>
      <trkpt lat="45.03969" lon="3.50204">
        <ele>669.22</ele>
        <time>2016-10-30T10:20:10Z</time>
      </trkpt>
      <trkpt lat="45.03968" lon="3.50216">
        <ele>667.77</ele>
        <time>2016-10-30T10:20:17Z</time>
      </trkpt>
      <trkpt lat="45.03966" lon="3.50222">
        <ele>667.77</ele>
        <time>2016-10-30T10:20:20Z</time>
      </trkpt>
      <trkpt lat="45.03965" lon="3.5023">
        <ele>667.77</ele>
        <time>2016-10-30T10:20:24Z</time>
      </trkpt>
      <trkpt lat="45.03961" lon="3.5025">
        <ele>667.29</ele>
        <time>2016-10-30T10:20:33Z</time>
      </trkpt>
      <trkpt lat="45.03957" lon="3.50282">
        <ele>665.37</ele>
        <time>2016-10-30T10:20:48Z</time>
      </trkpt>
      <trkpt lat="45.03955" lon="3.50314">
        <ele>662.01</ele>
        <time>2016-10-30T10:21:03Z</time>
      </trkpt>
      <trkpt lat="45.03952" lon="3.50342">
        <ele>660.08</ele>
        <time>2016-10-30T10:21:17Z</time>
      </trkpt>
      <trkpt lat="45.03952" lon="3.50367">
        <ele>655.76</ele>
        <time>2016-10-30T10:21:30Z</time>
      </trkpt>
      <trkpt lat="45.03951" lon="3.50374">
        <ele>654.8</ele>
        <time>2016-10-30T10:21:34Z</time>
      </trkpt>
      <trkpt lat="45.03952" lon="3.50396">
        <ele>653.83</ele>
        <time>2016-10-30T10:21:49Z</time>
      </trkpt>
      <trkpt lat="45.03952" lon="3.50409">
        <ele>651.43</ele>
        <time>2016-10-30T10:22:00Z</time>
      </trkpt>
      <trkpt lat="45.0395" lon="3.50409">
        <ele>650.47</ele>
        <time>2016-10-30T10:22:02Z</time>
      </trkpt>
      <trkpt lat="45.03944" lon="3.50404">
        <ele>647.59</ele>
        <time>2016-10-30T10:22:11Z</time>
      </trkpt>
      <trkpt lat="45.03928" lon="3.50404">
        <ele>642.78</ele>
        <time>2016-10-30T10:22:25Z</time>
      </trkpt>
      <trkpt lat="45.03915" lon="3.50408">
        <ele>641.82</ele>
        <time>2016-10-30T10:22:37Z</time>
      </trkpt>
      <trkpt lat="45.03897" lon="3.50428">
        <ele>639.89</ele>
        <time>2016-10-30T10:22:52Z</time>
      </trkpt>
      <trkpt lat="45.03895" lon="3.50458">
        <ele>637.49</ele>
        <time>2016-10-30T10:23:07Z</time>
      </trkpt>
      <trkpt lat="45.03889" lon="3.50488">
        <ele>633.65</ele>
        <time>2016-10-30T10:23:22Z</time>
      </trkpt>
      <trkpt lat="45.03886" lon="3.5051">
        <ele>628.84</ele>
        <time>2016-10-30T10:23:35Z</time>
      </trkpt>
      <trkpt lat="45.03885" lon="3.50513">
        <ele>628.36</ele>
        <time>2016-10-30T10:23:37Z</time>
      </trkpt>
      <trkpt lat="45.03869" lon="3.50524">
        <ele>623.55</ele>
        <time>2016-10-30T10:23:52Z</time>
      </trkpt>
      <trkpt lat="45.03851" lon="3.50529">
        <ele>622.59</ele>
        <time>2016-10-30T10:24:07Z</time>
      </trkpt>
      <trkpt lat="45.03832" lon="3.50525">
        <ele>620.67</ele>
        <time>2016-10-30T10:24:21Z</time>
      </trkpt>
      <trkpt lat="45.03815" lon="3.50522">
        <ele>617.78</ele>
        <time>2016-10-30T10:24:34Z</time>
      </trkpt>
      <trkpt lat="45.03793" lon="3.50519">
        <ele>615.38</ele>
        <time>2016-10-30T10:24:49Z</time>
      </trkpt>
      <trkpt lat="45.03783" lon="3.50519">
        <ele>613.94</ele>
        <time>2016-10-30T10:24:56Z</time>
      </trkpt>
      <trkpt lat="45.03762" lon="3.50519">
        <ele>611.06</ele>
        <time>2016-10-30T10:25:10Z</time>
      </trkpt>
      <trkpt lat="45.03741" lon="3.50513">
        <ele>610.09</ele>
        <time>2016-10-30T10:25:26Z</time>
      </trkpt>
      <trkpt lat="45.03725" lon="3.50507">
        <ele>611.54</ele>
        <time>2016-10-30T10:25:40Z</time>
      </trkpt>
      <trkpt lat="45.03709" lon="3.505">
        <ele>613.46</ele>
        <time>2016-10-30T10:25:53Z</time>
      </trkpt>
      <trkpt lat="45.03687" lon="3.50488">
        <ele>615.86</ele>
        <time>2016-10-30T10:26:09Z</time>
      </trkpt>
      <trkpt lat="45.03665" lon="3.50478">
        <ele>615.86</ele>
        <time>2016-10-30T10:26:26Z</time>
      </trkpt>
      <trkpt lat="45.03643" lon="3.50481">
        <ele>613.94</ele>
        <time>2016-10-30T10:26:41Z</time>
      </trkpt>
      <trkpt lat="45.03626" lon="3.50506">
        <ele>612.02</ele>
        <time>2016-10-30T10:26:59Z</time>
      </trkpt>
      <trkpt lat="45.03602" lon="3.50528">
        <ele>605.77</ele>
        <time>2016-10-30T10:27:19Z</time>
      </trkpt>
      <trkpt lat="45.03586" lon="3.50538">
        <ele>604.33</ele>
        <time>2016-10-30T10:27:32Z</time>
      </trkpt>
      <trkpt lat="45.03569" lon="3.50536">
        <ele>603.85</ele>
        <time>2016-10-30T10:27:44Z</time>
      </trkpt>
      <trkpt lat="45.0355" lon="3.50527">
        <ele>605.29</ele>
        <time>2016-10-30T10:27:58Z</time>
      </trkpt>
      <trkpt lat="45.0354" lon="3.50523">
        <ele>605.77</ele>
        <time>2016-10-30T10:28:06Z</time>
      </trkpt>
      <trkpt lat="45.03536" lon="3.50526">
        <ele>606.25</ele>
        <time>2016-10-30T10:28:10Z</time>
      </trkpt>
      <trkpt lat="45.03533" lon="3.50536">
        <ele>608.65</ele>
        <time>2016-10-30T10:28:24Z</time>
      </trkpt>
      <trkpt lat="45.03528" lon="3.50544">
        <ele>609.13</ele>
        <time>2016-10-30T10:28:46Z</time>
      </trkpt>
      <trkpt lat="45.03528" lon="3.50545">
        <ele>608.65</ele>
        <time>2016-10-30T10:29:00Z</time>
      </trkpt>
      <trkpt lat="45.03528" lon="3.50546">
        <ele>608.17</ele>
        <time>2016-10-30T10:29:13Z</time>
      </trkpt>
      <trkpt lat="45.03524" lon="3.50543">
        <ele>607.69</ele>
        <time>2016-10-30T10:29:24Z</time>
      </trkpt>
      <trkpt lat="45.03511" lon="3.50533">
        <ele>606.73</ele>
        <time>2016-10-30T10:29:38Z</time>
      </trkpt>
      <trkpt lat="45.03495" lon="3.50521">
        <ele>607.69</ele>
        <time>2016-10-30T10:29:52Z</time>
      </trkpt>
      <trkpt lat="45.03471" lon="3.50506">
        <ele>606.25</ele>
        <time>2016-10-30T10:30:09Z</time>
      </trkpt>
      <trkpt lat="45.03454" lon="3.50492">
        <ele>607.69</ele>
        <time>2016-10-30T10:30:23Z</time>
      </trkpt>
      <trkpt lat="45.03442" lon="3.5048">
        <ele>609.61</ele>
        <time>2016-10-30T10:30:34Z</time>
      </trkpt>
      <trkpt lat="45.03429" lon="3.50464">
        <ele>609.61</ele>
        <time>2016-10-30T10:30:49Z</time>
      </trkpt>
      <trkpt lat="45.03414" lon="3.5045">
        <ele>610.57</ele>
        <time>2016-10-30T10:31:03Z</time>
      </trkpt>
      <trkpt lat="45.034" lon="3.50441">
        <ele>612.02</ele>
        <time>2016-10-30T10:31:15Z</time>
      </trkpt>
      <trkpt lat="45.03378" lon="3.50425">
        <ele>610.57</ele>
        <time>2016-10-30T10:31:28Z</time>
      </trkpt>
      <trkpt lat="45.03364" lon="3.5042">
        <ele>611.06</ele>
        <time>2016-10-30T10:31:38Z</time>
      </trkpt>
      <trkpt lat="45.0334" lon="3.50425">
        <ele>619.71</ele>
        <time>2016-10-30T10:31:54Z</time>
      </trkpt>
      <trkpt lat="45.0332" lon="3.50436">
        <ele>619.23</ele>
        <time>2016-10-30T10:32:08Z</time>
      </trkpt>
      <trkpt lat="45.03313" lon="3.50441">
        <ele>618.75</ele>
        <time>2016-10-30T10:32:14Z</time>
      </trkpt>
      <trkpt lat="45.03296" lon="3.50456">
        <ele>624.03</ele>
        <time>2016-10-30T10:32:31Z</time>
      </trkpt>
      <trkpt lat="45.0328" lon="3.50465">
        <ele>625.96</ele>
        <time>2016-10-30T10:32:44Z</time>
      </trkpt>
      <trkpt lat="45.03267" lon="3.50479">
        <ele>626.92</ele>
        <time>2016-10-30T10:32:56Z</time>
      </trkpt>
      <trkpt lat="45.03261" lon="3.50486">
        <ele>627.88</ele>
        <time>2016-10-30T10:33:02Z</time>
      </trkpt>
      <trkpt lat="45.03257" lon="3.5049">
        <ele>628.36</ele>
        <time>2016-10-30T10:33:06Z</time>
      </trkpt>
      <trkpt lat="45.03251" lon="3.50497">
        <ele>628.84</ele>
        <time>2016-10-30T10:33:12Z</time>
      </trkpt>
      <trkpt lat="45.03241" lon="3.50516">
        <ele>631.72</ele>
        <time>2016-10-30T10:33:26Z</time>
      </trkpt>
      <trkpt lat="45.03233" lon="3.50542">
        <ele>636.05</ele>
        <time>2016-10-30T10:33:42Z</time>
      </trkpt>
      <trkpt lat="45.03229" lon="3.5056">
        <ele>639.89</ele>
        <time>2016-10-30T10:33:52Z</time>
      </trkpt>
      <trkpt lat="45.03227" lon="3.50587">
        <ele>645.66</ele>
        <time>2016-10-30T10:34:09Z</time>
      </trkpt>
      <trkpt lat="45.03227" lon="3.50589">
        <ele>646.14</ele>
        <time>2016-10-30T10:34:10Z</time>
      </trkpt>
      <trkpt lat="45.03226" lon="3.50601">
        <ele>648.07</ele>
        <time>2016-10-30T10:34:17Z</time>
      </trkpt>
      <trkpt lat="45.03229" lon="3.50623">
        <ele>649.03</ele>
        <time>2016-10-30T10:34:31Z</time>
      </trkpt>
      <trkpt lat="45.03237" lon="3.50633">
        <ele>649.99</ele>
        <time>2016-10-30T10:34:40Z</time>
      </trkpt>
      <trkpt lat="45.03251" lon="3.50656">
        <ele>660.08</ele>
        <time>2016-10-30T10:34:58Z</time>
      </trkpt>
      <trkpt lat="45.03251" lon="3.5066">
        <ele>662.49</ele>
        <time>2016-10-30T10:35:02Z</time>
      </trkpt>
      <trkpt lat="45.0325" lon="3.5066">
        <ele>663.45</ele>
        <time>2016-10-30T10:35:06Z</time>
      </trkpt>
      <trkpt lat="45.03242" lon="3.50657">
        <ele>663.45</ele>
        <time>2016-10-30T10:35:19Z</time>
      </trkpt>
      <trkpt lat="45.03229" lon="3.50659">
        <ele>661.04</ele>
        <time>2016-10-30T10:35:31Z</time>
      </trkpt>
      <trkpt lat="45.03212" lon="3.50657">
        <ele>661.04</ele>
        <time>2016-10-30T10:35:46Z</time>
      </trkpt>
      <trkpt lat="45.03202" lon="3.50662">
        <ele>661.04</ele>
        <time>2016-10-30T10:35:54Z</time>
      </trkpt>
      <trkpt lat="45.0319" lon="3.50677">
        <ele>658.64</ele>
        <time>2016-10-30T10:36:06Z</time>
      </trkpt>
      <trkpt lat="45.03171" lon="3.50696">
        <ele>657.68</ele>
        <time>2016-10-30T10:36:24Z</time>
      </trkpt>
      <trkpt lat="45.03155" lon="3.50711">
        <ele>660.08</ele>
        <time>2016-10-30T10:36:40Z</time>
      </trkpt>
      <trkpt lat="45.03139" lon="3.5073">
        <ele>662.01</ele>
        <time>2016-10-30T10:36:56Z</time>
      </trkpt>
      <trkpt lat="45.03136" lon="3.50756">
        <ele>666.81</ele>
        <time>2016-10-30T10:37:10Z</time>
      </trkpt>
      <trkpt lat="45.0314" lon="3.50765">
        <ele>669.7</ele>
        <time>2016-10-30T10:37:18Z</time>
      </trkpt>
      <trkpt lat="45.03146" lon="3.50777">
        <ele>673.06</ele>
        <time>2016-10-30T10:37:27Z</time>
      </trkpt>
      <trkpt lat="45.0315" lon="3.50811">
        <ele>675.46</ele>
        <time>2016-10-30T10:37:42Z</time>
      </trkpt>
      <trkpt lat="45.03147" lon="3.50848">
        <ele>677.87</ele>
        <time>2016-10-30T10:38:00Z</time>
      </trkpt>
      <trkpt lat="45.03152" lon="3.50864">
        <ele>678.83</ele>
        <time>2016-10-30T10:38:10Z</time>
      </trkpt>
      <trkpt lat="45.03154" lon="3.50874">
        <ele>679.79</ele>
        <time>2016-10-30T10:38:16Z</time>
      </trkpt>
      <trkpt lat="45.03137" lon="3.50888">
        <ele>682.19</ele>
        <time>2016-10-30T10:38:33Z</time>
      </trkpt>
      <trkpt lat="45.03137" lon="3.50892">
        <ele>682.67</ele>
        <time>2016-10-30T10:38:45Z</time>
      </trkpt>
      <trkpt lat="45.03137" lon="3.50892">
        <ele>682.19</ele>
        <time>2016-10-30T10:38:59Z</time>
      </trkpt>
      <trkpt lat="45.03136" lon="3.50892">
        <ele>682.67</ele>
        <time>2016-10-30T10:39:01Z</time>
      </trkpt>
      <trkpt lat="45.03131" lon="3.50893">
        <ele>682.67</ele>
        <time>2016-10-30T10:39:08Z</time>
      </trkpt>
      <trkpt lat="45.03118" lon="3.50901">
        <ele>682.67</ele>
        <time>2016-10-30T10:39:22Z</time>
      </trkpt>
      <trkpt lat="45.03117" lon="3.509">
        <ele>682.19</ele>
        <time>2016-10-30T10:39:31Z</time>
      </trkpt>
      <trkpt lat="45.03117" lon="3.509">
        <ele>682.19</ele>
        <time>2016-10-30T10:39:36Z</time>
      </trkpt>
      <trkpt lat="45.031" lon="3.50909">
        <ele>682.67</ele>
        <time>2016-10-30T10:39:53Z</time>
      </trkpt>
      <trkpt lat="45.03085" lon="3.50906">
        <ele>685.56</ele>
        <time>2016-10-30T10:40:08Z</time>
      </trkpt>
      <trkpt lat="45.03075" lon="3.50901">
        <ele>688.92</ele>
        <time>2016-10-30T10:40:25Z</time>
      </trkpt>
      <trkpt lat="45.03073" lon="3.50896">
        <ele>687.96</ele>
        <time>2016-10-30T10:40:38Z</time>
      </trkpt>
      <trkpt lat="45.03073" lon="3.50898">
        <ele>687.96</ele>
        <time>2016-10-30T10:40:54Z</time>
      </trkpt>
      <trkpt lat="45.03072" lon="3.50898">
        <ele>686.52</ele>
        <time>2016-10-30T10:41:14Z</time>
      </trkpt>
      <trkpt lat="45.0307" lon="3.50893">
        <ele>686.52</ele>
        <time>2016-10-30T10:41:29Z</time>
      </trkpt>
      <trkpt lat="45.03071" lon="3.50897">
        <ele>687</ele>
        <time>2016-10-30T10:41:44Z</time>
      </trkpt>
      <trkpt lat="45.0307" lon="3.50893">
        <ele>687.48</ele>
        <time>2016-10-30T10:42:02Z</time>
      </trkpt>
      <trkpt lat="45.03066" lon="3.50891">
        <ele>688.92</ele>
        <time>2016-10-30T10:42:15Z</time>
      </trkpt>
      <trkpt lat="45.03055" lon="3.50891">
        <ele>688.44</ele>
        <time>2016-10-30T10:42:27Z</time>
      </trkpt>
      <trkpt lat="45.03053" lon="3.50897">
        <ele>687.96</ele>
        <time>2016-10-30T10:42:40Z</time>
      </trkpt>
      <trkpt lat="45.03043" lon="3.50898">
        <ele>686.52</ele>
        <time>2016-10-30T10:42:54Z</time>
      </trkpt>
      <trkpt lat="45.0304" lon="3.50896">
        <ele>684.6</ele>
        <time>2016-10-30T10:43:09Z</time>
      </trkpt>
      <trkpt lat="45.03038" lon="3.50895">
        <ele>684.12</ele>
        <time>2016-10-30T10:43:28Z</time>
      </trkpt>
      <trkpt lat="45.03035" lon="3.50897">
        <ele>684.12</ele>
        <time>2016-10-30T10:43:42Z</time>
      </trkpt>
      <trkpt lat="45.03036" lon="3.50896">
        <ele>685.08</ele>
        <time>2016-10-30T10:43:58Z</time>
      </trkpt>
      <trkpt lat="45.03037" lon="3.50894">
        <ele>685.56</ele>
        <time>2016-10-30T10:44:15Z</time>
      </trkpt>
      <trkpt lat="45.03036" lon="3.50893">
        <ele>686.52</ele>
        <time>2016-10-30T10:44:31Z</time>
      </trkpt>
      <trkpt lat="45.03037" lon="3.50893">
        <ele>687.48</ele>
        <time>2016-10-30T10:44:46Z</time>
      </trkpt>
      <trkpt lat="45.03045" lon="3.50895">
        <ele>687</ele>
        <time>2016-10-30T10:44:52Z</time>
      </trkpt>
      <trkpt lat="45.03051" lon="3.50893">
        <ele>687.48</ele>
        <time>2016-10-30T10:44:59Z</time>
      </trkpt>
      <trkpt lat="45.03053" lon="3.50891">
        <ele>687.48</ele>
        <time>2016-10-30T10:45:01Z</time>
      </trkpt>
      <trkpt lat="45.03068" lon="3.50891">
        <ele>687.96</ele>
        <time>2016-10-30T10:45:14Z</time>
      </trkpt>
      <trkpt lat="45.03071" lon="3.50888">
        <ele>687.96</ele>
        <time>2016-10-30T10:45:27Z</time>
      </trkpt>
      <trkpt lat="45.03073" lon="3.50889">
        <ele>687.48</ele>
        <time>2016-10-30T10:45:45Z</time>
      </trkpt>
      <trkpt lat="45.03073" lon="3.5089">
        <ele>687.96</ele>
        <time>2016-10-30T10:46:01Z</time>
      </trkpt>
      <trkpt lat="45.03074" lon="3.50898">
        <ele>688.44</ele>
        <time>2016-10-30T10:46:11Z</time>
      </trkpt>
      <trkpt lat="45.03074" lon="3.50928">
        <ele>689.88</ele>
        <time>2016-10-30T10:46:28Z</time>
      </trkpt>
      <trkpt lat="45.03075" lon="3.5094">
        <ele>690.84</ele>
        <time>2016-10-30T10:46:42Z</time>
      </trkpt>
      <trkpt lat="45.03072" lon="3.50962">
        <ele>694.21</ele>
        <time>2016-10-30T10:46:58Z</time>
      </trkpt>
      <trkpt lat="45.03065" lon="3.50966">
        <ele>695.65</ele>
        <time>2016-10-30T10:47:10Z</time>
      </trkpt>
      <trkpt lat="45.03062" lon="3.5097">
        <ele>694.69</ele>
        <time>2016-10-30T10:47:27Z</time>
      </trkpt>
      <trkpt lat="45.03059" lon="3.50974">
        <ele>695.17</ele>
        <time>2016-10-30T10:47:33Z</time>
      </trkpt>
      <trkpt lat="45.03048" lon="3.5099">
        <ele>700.94</ele>
        <time>2016-10-30T10:47:49Z</time>
      </trkpt>
      <trkpt lat="45.03046" lon="3.5099">
        <ele>701.9</ele>
        <time>2016-10-30T10:47:52Z</time>
      </trkpt>
      <trkpt lat="45.03024" lon="3.50989">
        <ele>705.26</ele>
        <time>2016-10-30T10:48:09Z</time>
      </trkpt>
      <trkpt lat="45.03013" lon="3.50989">
        <ele>707.67</ele>
        <time>2016-10-30T10:48:22Z</time>
      </trkpt>
      <trkpt lat="45.03" lon="3.50988">
        <ele>708.15</ele>
        <time>2016-10-30T10:48:35Z</time>
      </trkpt>
      <trkpt lat="45.02991" lon="3.50987">
        <ele>708.63</ele>
        <time>2016-10-30T10:48:46Z</time>
      </trkpt>
      <trkpt lat="45.02974" lon="3.50984">
        <ele>711.51</ele>
        <time>2016-10-30T10:49:01Z</time>
      </trkpt>
      <trkpt lat="45.02954" lon="3.50983">
        <ele>712.95</ele>
        <time>2016-10-30T10:49:16Z</time>
      </trkpt>
      <trkpt lat="45.02936" lon="3.5098">
        <ele>717.28</ele>
        <time>2016-10-30T10:49:31Z</time>
      </trkpt>
      <trkpt lat="45.02933" lon="3.50979">
        <ele>718.72</ele>
        <time>2016-10-30T10:49:34Z</time>
      </trkpt>
      <trkpt lat="45.02928" lon="3.50977">
        <ele>719.2</ele>
        <time>2016-10-30T10:49:38Z</time>
      </trkpt>
      <trkpt lat="45.02923" lon="3.50977">
        <ele>719.2</ele>
        <time>2016-10-30T10:49:42Z</time>
      </trkpt>
      <trkpt lat="45.02902" lon="3.50973">
        <ele>722.57</ele>
        <time>2016-10-30T10:49:58Z</time>
      </trkpt>
      <trkpt lat="45.02888" lon="3.50968">
        <ele>722.09</ele>
        <time>2016-10-30T10:50:12Z</time>
      </trkpt>
      <trkpt lat="45.02874" lon="3.50961">
        <ele>720.65</ele>
        <time>2016-10-30T10:50:25Z</time>
      </trkpt>
      <trkpt lat="45.02862" lon="3.50957">
        <ele>720.16</ele>
        <time>2016-10-30T10:50:37Z</time>
      </trkpt>
      <trkpt lat="45.02853" lon="3.50959">
        <ele>720.16</ele>
        <time>2016-10-30T10:50:45Z</time>
      </trkpt>
      <trkpt lat="45.02833" lon="3.50964">
        <ele>722.57</ele>
        <time>2016-10-30T10:51:01Z</time>
      </trkpt>
      <trkpt lat="45.02821" lon="3.50965">
        <ele>724.01</ele>
        <time>2016-10-30T10:51:17Z</time>
      </trkpt>
      <trkpt lat="45.0281" lon="3.5097">
        <ele>727.37</ele>
        <time>2016-10-30T10:51:28Z</time>
      </trkpt>
      <trkpt lat="45.02804" lon="3.50973">
        <ele>729.3</ele>
        <time>2016-10-30T10:51:43Z</time>
      </trkpt>
      <trkpt lat="45.02794" lon="3.50986">
        <ele>731.7</ele>
        <time>2016-10-30T10:51:57Z</time>
      </trkpt>
      <trkpt lat="45.02784" lon="3.50999">
        <ele>734.1</ele>
        <time>2016-10-30T10:52:11Z</time>
      </trkpt>
      <trkpt lat="45.02779" lon="3.51011">
        <ele>736.99</ele>
        <time>2016-10-30T10:52:25Z</time>
      </trkpt>
      <trkpt lat="45.02768" lon="3.51022">
        <ele>741.31</ele>
        <time>2016-10-30T10:52:38Z</time>
      </trkpt>
      <trkpt lat="45.02759" lon="3.51021">
        <ele>743.72</ele>
        <time>2016-10-30T10:52:51Z</time>
      </trkpt>
      <trkpt lat="45.02756" lon="3.51021">
        <ele>745.64</ele>
        <time>2016-10-30T10:53:00Z</time>
      </trkpt>
      <trkpt lat="45.02754" lon="3.51022">
        <ele>746.6</ele>
        <time>2016-10-30T10:53:27Z</time>
      </trkpt>
      <trkpt lat="45.02747" lon="3.51017">
        <ele>747.56</ele>
        <time>2016-10-30T10:53:39Z</time>
      </trkpt>
      <trkpt lat="45.02734" lon="3.51013">
        <ele>751.41</ele>
        <time>2016-10-30T10:53:51Z</time>
      </trkpt>
      <trkpt lat="45.02725" lon="3.51009">
        <ele>753.81</ele>
        <time>2016-10-30T10:54:01Z</time>
      </trkpt>
      <trkpt lat="45.02711" lon="3.51003">
        <ele>753.33</ele>
        <time>2016-10-30T10:54:16Z</time>
      </trkpt>
      <trkpt lat="45.02698" lon="3.50995">
        <ele>755.25</ele>
        <time>2016-10-30T10:54:30Z</time>
      </trkpt>
      <trkpt lat="45.02697" lon="3.50994">
        <ele>755.73</ele>
        <time>2016-10-30T10:54:31Z</time>
      </trkpt>
      <trkpt lat="45.02684" lon="3.50992">
        <ele>758.14</ele>
        <time>2016-10-30T10:54:44Z</time>
      </trkpt>
      <trkpt lat="45.02673" lon="3.50994">
        <ele>760.06</ele>
        <time>2016-10-30T10:54:56Z</time>
      </trkpt>
      <trkpt lat="45.02664" lon="3.50996">
        <ele>762.46</ele>
        <time>2016-10-30T10:55:07Z</time>
      </trkpt>
      <trkpt lat="45.02656" lon="3.50999">
        <ele>763.42</ele>
        <time>2016-10-30T10:55:15Z</time>
      </trkpt>
      <trkpt lat="45.02649" lon="3.51005">
        <ele>763.42</ele>
        <time>2016-10-30T10:55:24Z</time>
      </trkpt>
      <trkpt lat="45.02638" lon="3.5101">
        <ele>766.31</ele>
        <time>2016-10-30T10:55:35Z</time>
      </trkpt>
      <trkpt lat="45.0263" lon="3.51013">
        <ele>768.23</ele>
        <time>2016-10-30T10:55:44Z</time>
      </trkpt>
      <trkpt lat="45.02618" lon="3.51022">
        <ele>770.63</ele>
        <time>2016-10-30T10:55:57Z</time>
      </trkpt>
      <trkpt lat="45.02606" lon="3.51032">
        <ele>773.52</ele>
        <time>2016-10-30T10:56:11Z</time>
      </trkpt>
      <trkpt lat="45.026" lon="3.51036">
        <ele>775.44</ele>
        <time>2016-10-30T10:56:18Z</time>
      </trkpt>
      <trkpt lat="45.02598" lon="3.51037">
        <ele>775.44</ele>
        <time>2016-10-30T10:56:20Z</time>
      </trkpt>
      <trkpt lat="45.02596" lon="3.51039">
        <ele>776.4</ele>
        <time>2016-10-30T10:56:23Z</time>
      </trkpt>
      <trkpt lat="45.02593" lon="3.5104">
        <ele>776.4</ele>
        <time>2016-10-30T10:56:25Z</time>
      </trkpt>
      <trkpt lat="45.02591" lon="3.51043">
        <ele>777.36</ele>
        <time>2016-10-30T10:56:28Z</time>
      </trkpt>
      <trkpt lat="45.02589" lon="3.51044">
        <ele>777.84</ele>
        <time>2016-10-30T10:56:30Z</time>
      </trkpt>
      <trkpt lat="45.02582" lon="3.51053">
        <ele>779.77</ele>
        <time>2016-10-30T10:56:39Z</time>
      </trkpt>
      <trkpt lat="45.02578" lon="3.51059">
        <ele>781.21</ele>
        <time>2016-10-30T10:56:44Z</time>
      </trkpt>
      <trkpt lat="45.02576" lon="3.5106">
        <ele>781.69</ele>
        <time>2016-10-30T10:56:46Z</time>
      </trkpt>
      <trkpt lat="45.02571" lon="3.51071">
        <ele>782.17</ele>
        <time>2016-10-30T10:56:59Z</time>
      </trkpt>
      <trkpt lat="45.02572" lon="3.5108">
        <ele>784.57</ele>
        <time>2016-10-30T10:57:10Z</time>
      </trkpt>
      <trkpt lat="45.02587" lon="3.51085">
        <ele>788.42</ele>
        <time>2016-10-30T10:57:25Z</time>
      </trkpt>
      <trkpt lat="45.02596" lon="3.51088">
        <ele>791.3</ele>
        <time>2016-10-30T10:57:36Z</time>
      </trkpt>
      <trkpt lat="45.02602" lon="3.51092">
        <ele>792.26</ele>
        <time>2016-10-30T10:57:42Z</time>
      </trkpt>
      <trkpt lat="45.02604" lon="3.51094">
        <ele>792.26</ele>
        <time>2016-10-30T10:57:44Z</time>
      </trkpt>
      <trkpt lat="45.02602" lon="3.51102">
        <ele>791.78</ele>
        <time>2016-10-30T10:57:56Z</time>
      </trkpt>
      <trkpt lat="45.02601" lon="3.511">
        <ele>791.3</ele>
        <time>2016-10-30T10:58:02Z</time>
      </trkpt>
      <trkpt lat="45.02586" lon="3.51104">
        <ele>791.3</ele>
        <time>2016-10-30T10:58:19Z</time>
      </trkpt>
      <trkpt lat="45.02581" lon="3.51107">
        <ele>792.26</ele>
        <time>2016-10-30T10:58:30Z</time>
      </trkpt>
      <trkpt lat="45.02581" lon="3.51111">
        <ele>791.78</ele>
        <time>2016-10-30T10:58:42Z</time>
      </trkpt>
      <trkpt lat="45.02581" lon="3.51112">
        <ele>791.78</ele>
        <time>2016-10-30T10:58:43Z</time>
      </trkpt>
      <trkpt lat="45.02582" lon="3.51117">
        <ele>792.26</ele>
        <time>2016-10-30T10:58:48Z</time>
      </trkpt>
      <trkpt lat="45.02585" lon="3.51129">
        <ele>794.67</ele>
        <time>2016-10-30T10:59:02Z</time>
      </trkpt>
      <trkpt lat="45.02589" lon="3.51141">
        <ele>797.55</ele>
        <time>2016-10-30T10:59:14Z</time>
      </trkpt>
      <trkpt lat="45.02593" lon="3.51153">
        <ele>799.47</ele>
        <time>2016-10-30T10:59:24Z</time>
      </trkpt>
      <trkpt lat="45.02592" lon="3.51168">
        <ele>803.32</ele>
        <time>2016-10-30T10:59:38Z</time>
      </trkpt>
      <trkpt lat="45.02589" lon="3.51189">
        <ele>806.68</ele>
        <time>2016-10-30T10:59:53Z</time>
      </trkpt>
      <trkpt lat="45.02589" lon="3.51191">
        <ele>807.16</ele>
        <time>2016-10-30T10:59:54Z</time>
      </trkpt>
      <trkpt lat="45.02591" lon="3.51208">
        <ele>809.09</ele>
        <time>2016-10-30T11:00:05Z</time>
      </trkpt>
      <trkpt lat="45.02591" lon="3.51214">
        <ele>809.57</ele>
        <time>2016-10-30T11:00:09Z</time>
      </trkpt>
      <trkpt lat="45.02581" lon="3.51229">
        <ele>811.01</ele>
        <time>2016-10-30T11:00:23Z</time>
      </trkpt>
      <trkpt lat="45.02578" lon="3.51235">
        <ele>811.01</ele>
        <time>2016-10-30T11:00:28Z</time>
      </trkpt>
      <trkpt lat="45.02579" lon="3.51242">
        <ele>811.97</ele>
        <time>2016-10-30T11:00:32Z</time>
      </trkpt>
      <trkpt lat="45.02584" lon="3.51266">
        <ele>814.37</ele>
        <time>2016-10-30T11:00:47Z</time>
      </trkpt>
      <trkpt lat="45.02587" lon="3.51277">
        <ele>816.3</ele>
        <time>2016-10-30T11:00:55Z</time>
      </trkpt>
      <trkpt lat="45.02588" lon="3.51284">
        <ele>817.74</ele>
        <time>2016-10-30T11:01:00Z</time>
      </trkpt>
      <trkpt lat="45.02589" lon="3.51291">
        <ele>819.18</ele>
        <time>2016-10-30T11:01:06Z</time>
      </trkpt>
      <trkpt lat="45.02588" lon="3.51304">
        <ele>823.03</ele>
        <time>2016-10-30T11:01:19Z</time>
      </trkpt>
      <trkpt lat="45.02591" lon="3.51307">
        <ele>823.51</ele>
        <time>2016-10-30T11:01:30Z</time>
      </trkpt>
      <trkpt lat="45.02591" lon="3.51307">
        <ele>823.51</ele>
        <time>2016-10-30T11:01:54Z</time>
      </trkpt>
      <trkpt lat="45.02591" lon="3.51308">
        <ele>823.03</ele>
        <time>2016-10-30T11:02:23Z</time>
      </trkpt>
      <trkpt lat="45.02591" lon="3.51308">
        <ele>823.03</ele>
        <time>2016-10-30T11:03:00Z</time>
      </trkpt>
      <trkpt lat="45.02591" lon="3.51308">
        <ele>823.03</ele>
        <time>2016-10-30T11:03:31Z</time>
      </trkpt>
      <trkpt lat="45.02591" lon="3.51307">
        <ele>822.06</ele>
        <time>2016-10-30T11:04:01Z</time>
      </trkpt>
      <trkpt lat="45.0259" lon="3.51307">
        <ele>822.06</ele>
        <time>2016-10-30T11:04:23Z</time>
      </trkpt>
      <trkpt lat="45.02594" lon="3.51313">
        <ele>822.55</ele>
        <time>2016-10-30T11:04:34Z</time>
      </trkpt>
      <trkpt lat="45.02606" lon="3.51328">
        <ele>826.87</ele>
        <time>2016-10-30T11:04:47Z</time>
      </trkpt>
      <trkpt lat="45.02615" lon="3.51336">
        <ele>828.79</ele>
        <time>2016-10-30T11:04:57Z</time>
      </trkpt>
      <trkpt lat="45.02632" lon="3.51351">
        <ele>831.68</ele>
        <time>2016-10-30T11:05:13Z</time>
      </trkpt>
      <trkpt lat="45.02649" lon="3.51363">
        <ele>833.6</ele>
        <time>2016-10-30T11:05:28Z</time>
      </trkpt>
      <trkpt lat="45.02674" lon="3.51375">
        <ele>834.08</ele>
        <time>2016-10-30T11:05:46Z</time>
      </trkpt>
      <trkpt lat="45.02693" lon="3.51382">
        <ele>836.48</ele>
        <time>2016-10-30T11:06:02Z</time>
      </trkpt>
      <trkpt lat="45.02707" lon="3.5139">
        <ele>837.93</ele>
        <time>2016-10-30T11:06:15Z</time>
      </trkpt>
      <trkpt lat="45.02733" lon="3.51397">
        <ele>838.89</ele>
        <time>2016-10-30T11:06:35Z</time>
      </trkpt>
      <trkpt lat="45.02757" lon="3.51405">
        <ele>837.45</ele>
        <time>2016-10-30T11:06:53Z</time>
      </trkpt>
      <trkpt lat="45.02783" lon="3.51404">
        <ele>838.41</ele>
        <time>2016-10-30T11:07:13Z</time>
      </trkpt>
      <trkpt lat="45.02798" lon="3.5141">
        <ele>838.89</ele>
        <time>2016-10-30T11:07:24Z</time>
      </trkpt>
      <trkpt lat="45.02801" lon="3.51411">
        <ele>838.89</ele>
        <time>2016-10-30T11:07:27Z</time>
      </trkpt>
      <trkpt lat="45.02807" lon="3.51417">
        <ele>839.37</ele>
        <time>2016-10-30T11:07:43Z</time>
      </trkpt>
      <trkpt lat="45.02809" lon="3.5142">
        <ele>838.89</ele>
        <time>2016-10-30T11:07:51Z</time>
      </trkpt>
      <trkpt lat="45.02821" lon="3.51438">
        <ele>841.29</ele>
        <time>2016-10-30T11:08:07Z</time>
      </trkpt>
      <trkpt lat="45.02836" lon="3.51454">
        <ele>845.14</ele>
        <time>2016-10-30T11:08:23Z</time>
      </trkpt>
      <trkpt lat="45.02854" lon="3.51468">
        <ele>848.98</ele>
        <time>2016-10-30T11:08:40Z</time>
      </trkpt>
      <trkpt lat="45.02874" lon="3.51489">
        <ele>848.98</ele>
        <time>2016-10-30T11:08:58Z</time>
      </trkpt>
      <trkpt lat="45.02894" lon="3.51509">
        <ele>846.58</ele>
        <time>2016-10-30T11:09:15Z</time>
      </trkpt>
      <trkpt lat="45.02911" lon="3.5152">
        <ele>844.66</ele>
        <time>2016-10-30T11:09:29Z</time>
      </trkpt>
      <trkpt lat="45.02932" lon="3.5153">
        <ele>842.25</ele>
        <time>2016-10-30T11:09:45Z</time>
      </trkpt>
      <trkpt lat="45.02955" lon="3.51543">
        <ele>841.29</ele>
        <time>2016-10-30T11:10:02Z</time>
      </trkpt>
      <trkpt lat="45.0298" lon="3.51555">
        <ele>841.77</ele>
        <time>2016-10-30T11:10:21Z</time>
      </trkpt>
      <trkpt lat="45.03001" lon="3.51563">
        <ele>841.77</ele>
        <time>2016-10-30T11:10:38Z</time>
      </trkpt>
      <trkpt lat="45.03019" lon="3.51568">
        <ele>843.69</ele>
        <time>2016-10-30T11:10:53Z</time>
      </trkpt>
      <trkpt lat="45.03035" lon="3.5158">
        <ele>846.58</ele>
        <time>2016-10-30T11:11:09Z</time>
      </trkpt>
      <trkpt lat="45.03049" lon="3.51598">
        <ele>848.98</ele>
        <time>2016-10-30T11:11:23Z</time>
      </trkpt>
      <trkpt lat="45.03059" lon="3.51621">
        <ele>850.9</ele>
        <time>2016-10-30T11:11:38Z</time>
      </trkpt>
      <trkpt lat="45.0307" lon="3.51644">
        <ele>852.83</ele>
        <time>2016-10-30T11:11:53Z</time>
      </trkpt>
      <trkpt lat="45.0308" lon="3.51671">
        <ele>853.31</ele>
        <time>2016-10-30T11:12:10Z</time>
      </trkpt>
      <trkpt lat="45.0309" lon="3.51702">
        <ele>852.35</ele>
        <time>2016-10-30T11:12:27Z</time>
      </trkpt>
      <trkpt lat="45.03094" lon="3.51716">
        <ele>852.35</ele>
        <time>2016-10-30T11:12:43Z</time>
      </trkpt>
      <trkpt lat="45.03099" lon="3.5173">
        <ele>852.35</ele>
        <time>2016-10-30T11:12:54Z</time>
      </trkpt>
      <trkpt lat="45.03108" lon="3.51761">
        <ele>851.87</ele>
        <time>2016-10-30T11:13:13Z</time>
      </trkpt>
      <trkpt lat="45.03121" lon="3.51789">
        <ele>851.87</ele>
        <time>2016-10-30T11:13:32Z</time>
      </trkpt>
      <trkpt lat="45.03126" lon="3.51797">
        <ele>851.87</ele>
        <time>2016-10-30T11:13:38Z</time>
      </trkpt>
      <trkpt lat="45.03142" lon="3.51823">
        <ele>852.83</ele>
        <time>2016-10-30T11:13:56Z</time>
      </trkpt>
      <trkpt lat="45.03147" lon="3.51849">
        <ele>852.83</ele>
        <time>2016-10-30T11:14:12Z</time>
      </trkpt>
      <trkpt lat="45.0315" lon="3.51857">
        <ele>853.31</ele>
        <time>2016-10-30T11:14:23Z</time>
      </trkpt>
      <trkpt lat="45.03154" lon="3.51882">
        <ele>853.31</ele>
        <time>2016-10-30T11:14:39Z</time>
      </trkpt>
      <trkpt lat="45.03157" lon="3.51902">
        <ele>853.79</ele>
        <time>2016-10-30T11:14:52Z</time>
      </trkpt>
      <trkpt lat="45.03152" lon="3.51927">
        <ele>854.27</ele>
        <time>2016-10-30T11:15:09Z</time>
      </trkpt>
      <trkpt lat="45.0315" lon="3.51937">
        <ele>854.27</ele>
        <time>2016-10-30T11:15:15Z</time>
      </trkpt>
      <trkpt lat="45.03142" lon="3.51967">
        <ele>853.79</ele>
        <time>2016-10-30T11:15:33Z</time>
      </trkpt>
      <trkpt lat="45.03129" lon="3.51982">
        <ele>853.31</ele>
        <time>2016-10-30T11:15:49Z</time>
      </trkpt>
      <trkpt lat="45.03127" lon="3.51988">
        <ele>853.31</ele>
        <time>2016-10-30T11:15:54Z</time>
      </trkpt>
      <trkpt lat="45.03123" lon="3.51995">
        <ele>852.83</ele>
        <time>2016-10-30T11:16:00Z</time>
      </trkpt>
      <trkpt lat="45.03121" lon="3.52007">
        <ele>854.27</ele>
        <time>2016-10-30T11:16:06Z</time>
      </trkpt>
      <trkpt lat="45.0312" lon="3.52012">
        <ele>853.31</ele>
        <time>2016-10-30T11:16:09Z</time>
      </trkpt>
      <trkpt lat="45.03126" lon="3.52035">
        <ele>854.27</ele>
        <time>2016-10-30T11:16:25Z</time>
      </trkpt>
      <trkpt lat="45.03137" lon="3.52055">
        <ele>854.75</ele>
        <time>2016-10-30T11:16:43Z</time>
      </trkpt>
      <trkpt lat="45.03147" lon="3.5207">
        <ele>856.67</ele>
        <time>2016-10-30T11:16:57Z</time>
      </trkpt>
      <trkpt lat="45.03163" lon="3.52095">
        <ele>859.08</ele>
        <time>2016-10-30T11:17:16Z</time>
      </trkpt>
      <trkpt lat="45.03177" lon="3.52124">
        <ele>859.56</ele>
        <time>2016-10-30T11:17:35Z</time>
      </trkpt>
      <trkpt lat="45.03192" lon="3.52151">
        <ele>860.52</ele>
        <time>2016-10-30T11:17:52Z</time>
      </trkpt>
      <trkpt lat="45.03205" lon="3.52176">
        <ele>861.48</ele>
        <time>2016-10-30T11:18:09Z</time>
      </trkpt>
      <trkpt lat="45.03214" lon="3.52195">
        <ele>862.92</ele>
        <time>2016-10-30T11:18:24Z</time>
      </trkpt>
      <trkpt lat="45.03228" lon="3.52223">
        <ele>863.4</ele>
        <time>2016-10-30T11:18:42Z</time>
      </trkpt>
      <trkpt lat="45.03244" lon="3.52256">
        <ele>863.88</ele>
        <time>2016-10-30T11:19:02Z</time>
      </trkpt>
      <trkpt lat="45.03257" lon="3.52282">
        <ele>863.88</ele>
        <time>2016-10-30T11:19:18Z</time>
      </trkpt>
      <trkpt lat="45.03268" lon="3.5231">
        <ele>863.88</ele>
        <time>2016-10-30T11:19:36Z</time>
      </trkpt>
      <trkpt lat="45.03267" lon="3.52339">
        <ele>862.44</ele>
        <time>2016-10-30T11:19:52Z</time>
      </trkpt>
      <trkpt lat="45.03261" lon="3.52377">
        <ele>861.48</ele>
        <time>2016-10-30T11:20:12Z</time>
      </trkpt>
      <trkpt lat="45.03257" lon="3.52404">
        <ele>860.04</ele>
        <time>2016-10-30T11:20:28Z</time>
      </trkpt>
      <trkpt lat="45.03256" lon="3.5241">
        <ele>860.04</ele>
        <time>2016-10-30T11:20:32Z</time>
      </trkpt>
      <trkpt lat="45.03249" lon="3.52445">
        <ele>858.59</ele>
        <time>2016-10-30T11:20:51Z</time>
      </trkpt>
      <trkpt lat="45.03248" lon="3.52465">
        <ele>856.67</ele>
        <time>2016-10-30T11:21:02Z</time>
      </trkpt>
      <trkpt lat="45.03268" lon="3.52463">
        <ele>854.75</ele>
        <time>2016-10-30T11:21:19Z</time>
      </trkpt>
      <trkpt lat="45.03287" lon="3.52445">
        <ele>853.31</ele>
        <time>2016-10-30T11:21:36Z</time>
      </trkpt>
      <trkpt lat="45.03304" lon="3.52423">
        <ele>849.94</ele>
        <time>2016-10-30T11:21:53Z</time>
      </trkpt>
      <trkpt lat="45.03322" lon="3.52393">
        <ele>845.62</ele>
        <time>2016-10-30T11:22:13Z</time>
      </trkpt>
      <trkpt lat="45.03337" lon="3.52364">
        <ele>844.18</ele>
        <time>2016-10-30T11:22:31Z</time>
      </trkpt>
      <trkpt lat="45.03357" lon="3.52345">
        <ele>842.25</ele>
        <time>2016-10-30T11:22:49Z</time>
      </trkpt>
      <trkpt lat="45.03375" lon="3.52328">
        <ele>839.85</ele>
        <time>2016-10-30T11:23:05Z</time>
      </trkpt>
      <trkpt lat="45.03395" lon="3.52309">
        <ele>836.96</ele>
        <time>2016-10-30T11:23:23Z</time>
      </trkpt>
      <trkpt lat="45.03399" lon="3.52305">
        <ele>836</ele>
        <time>2016-10-30T11:23:26Z</time>
      </trkpt>
      <trkpt lat="45.03403" lon="3.523">
        <ele>835.52</ele>
        <time>2016-10-30T11:23:31Z</time>
      </trkpt>
      <trkpt lat="45.03423" lon="3.52287">
        <ele>832.64</ele>
        <time>2016-10-30T11:23:47Z</time>
      </trkpt>
      <trkpt lat="45.03441" lon="3.52272">
        <ele>831.2</ele>
        <time>2016-10-30T11:24:03Z</time>
      </trkpt>
      <trkpt lat="45.03459" lon="3.52262">
        <ele>828.31</ele>
        <time>2016-10-30T11:24:17Z</time>
      </trkpt>
      <trkpt lat="45.03462" lon="3.5226">
        <ele>828.31</ele>
        <time>2016-10-30T11:24:20Z</time>
      </trkpt>
      <trkpt lat="45.03481" lon="3.52252">
        <ele>827.83</ele>
        <time>2016-10-30T11:24:36Z</time>
      </trkpt>
      <trkpt lat="45.03494" lon="3.52245">
        <ele>829.27</ele>
        <time>2016-10-30T11:24:49Z</time>
      </trkpt>
      <trkpt lat="45.0351" lon="3.52235">
        <ele>831.68</ele>
        <time>2016-10-30T11:25:03Z</time>
      </trkpt>
      <trkpt lat="45.03525" lon="3.52229">
        <ele>832.64</ele>
        <time>2016-10-30T11:25:16Z</time>
      </trkpt>
      <trkpt lat="45.03532" lon="3.52225">
        <ele>831.68</ele>
        <time>2016-10-30T11:25:22Z</time>
      </trkpt>
      <trkpt lat="45.03552" lon="3.52217">
        <ele>836.48</ele>
        <time>2016-10-30T11:25:37Z</time>
      </trkpt>
      <trkpt lat="45.03569" lon="3.52214">
        <ele>843.21</ele>
        <time>2016-10-30T11:25:50Z</time>
      </trkpt>
      <trkpt lat="45.03587" lon="3.52208">
        <ele>843.69</ele>
        <time>2016-10-30T11:26:04Z</time>
      </trkpt>
      <trkpt lat="45.03615" lon="3.52197">
        <ele>825.91</ele>
        <time>2016-10-30T11:26:21Z</time>
      </trkpt>
      <trkpt lat="45.03638" lon="3.5219">
        <ele>808.61</ele>
        <time>2016-10-30T11:26:35Z</time>
      </trkpt>
      <trkpt lat="45.03663" lon="3.52178">
        <ele>797.55</ele>
        <time>2016-10-30T11:26:53Z</time>
      </trkpt>
      <trkpt lat="45.0369" lon="3.52167">
        <ele>790.82</ele>
        <time>2016-10-30T11:27:13Z</time>
      </trkpt>
      <trkpt lat="45.03721" lon="3.52152">
        <ele>786.02</ele>
        <time>2016-10-30T11:27:36Z</time>
      </trkpt>
      <trkpt lat="45.03744" lon="3.52138">
        <ele>783.13</ele>
        <time>2016-10-30T11:27:54Z</time>
      </trkpt>
      <trkpt lat="45.03766" lon="3.52125">
        <ele>781.21</ele>
        <time>2016-10-30T11:28:11Z</time>
      </trkpt>
      <trkpt lat="45.03794" lon="3.52107">
        <ele>778.32</ele>
        <time>2016-10-30T11:28:32Z</time>
      </trkpt>
      <trkpt lat="45.03819" lon="3.5209">
        <ele>775.44</ele>
        <time>2016-10-30T11:28:52Z</time>
      </trkpt>
      <trkpt lat="45.03848" lon="3.52072">
        <ele>772.08</ele>
        <time>2016-10-30T11:29:13Z</time>
      </trkpt>
      <trkpt lat="45.03876" lon="3.52055">
        <ele>769.67</ele>
        <time>2016-10-30T11:29:34Z</time>
      </trkpt>
      <trkpt lat="45.03901" lon="3.5204">
        <ele>768.23</ele>
        <time>2016-10-30T11:29:53Z</time>
      </trkpt>
      <trkpt lat="45.03924" lon="3.52019">
        <ele>766.79</ele>
        <time>2016-10-30T11:30:12Z</time>
      </trkpt>
      <trkpt lat="45.03944" lon="3.5199">
        <ele>765.83</ele>
        <time>2016-10-30T11:30:32Z</time>
      </trkpt>
      <trkpt lat="45.03959" lon="3.51955">
        <ele>765.83</ele>
        <time>2016-10-30T11:30:52Z</time>
      </trkpt>
      <trkpt lat="45.03983" lon="3.5192">
        <ele>764.39</ele>
        <time>2016-10-30T11:31:17Z</time>
      </trkpt>
      <trkpt lat="45.04005" lon="3.51908">
        <ele>760.54</ele>
        <time>2016-10-30T11:31:35Z</time>
      </trkpt>
      <trkpt lat="45.04026" lon="3.51903">
        <ele>760.06</ele>
        <time>2016-10-30T11:31:51Z</time>
      </trkpt>
      <trkpt lat="45.04049" lon="3.51899">
        <ele>761.98</ele>
        <time>2016-10-30T11:32:08Z</time>
      </trkpt>
      <trkpt lat="45.04068" lon="3.51895">
        <ele>763.9</ele>
        <time>2016-10-30T11:32:22Z</time>
      </trkpt>
      <trkpt lat="45.04094" lon="3.5188">
        <ele>756.21</ele>
        <time>2016-10-30T11:32:41Z</time>
      </trkpt>
      <trkpt lat="45.04123" lon="3.51871">
        <ele>748.52</ele>
        <time>2016-10-30T11:33:00Z</time>
      </trkpt>
      <trkpt lat="45.0415" lon="3.51879">
        <ele>742.76</ele>
        <time>2016-10-30T11:33:19Z</time>
      </trkpt>
      <trkpt lat="45.04172" lon="3.51891">
        <ele>738.43</ele>
        <time>2016-10-30T11:33:36Z</time>
      </trkpt>
      <trkpt lat="45.04191" lon="3.51885">
        <ele>733.62</ele>
        <time>2016-10-30T11:33:52Z</time>
      </trkpt>
      <trkpt lat="45.0421" lon="3.51879">
        <ele>728.82</ele>
        <time>2016-10-30T11:34:07Z</time>
      </trkpt>
      <trkpt lat="45.04225" lon="3.51879">
        <ele>725.93</ele>
        <time>2016-10-30T11:34:18Z</time>
      </trkpt>
      <trkpt lat="45.04255" lon="3.51882">
        <ele>721.13</ele>
        <time>2016-10-30T11:34:38Z</time>
      </trkpt>
      <trkpt lat="45.04276" lon="3.51889">
        <ele>716.8</ele>
        <time>2016-10-30T11:34:56Z</time>
      </trkpt>
      <trkpt lat="45.04294" lon="3.519">
        <ele>713.44</ele>
        <time>2016-10-30T11:35:14Z</time>
      </trkpt>
      <trkpt lat="45.04297" lon="3.51903">
        <ele>713.92</ele>
        <time>2016-10-30T11:35:18Z</time>
      </trkpt>
      <trkpt lat="45.04313" lon="3.51918">
        <ele>713.92</ele>
        <time>2016-10-30T11:35:35Z</time>
      </trkpt>
      <trkpt lat="45.04314" lon="3.51919">
        <ele>713.92</ele>
        <time>2016-10-30T11:35:36Z</time>
      </trkpt>
      <trkpt lat="45.04324" lon="3.51924">
        <ele>711.99</ele>
        <time>2016-10-30T11:35:44Z</time>
      </trkpt>
      <trkpt lat="45.04332" lon="3.51925">
        <ele>711.51</ele>
        <time>2016-10-30T11:35:58Z</time>
      </trkpt>
      <trkpt lat="45.04333" lon="3.51929">
        <ele>709.11</ele>
        <time>2016-10-30T11:36:11Z</time>
      </trkpt>
      <trkpt lat="45.0433" lon="3.51932">
        <ele>708.15</ele>
        <time>2016-10-30T11:36:26Z</time>
      </trkpt>
      <trkpt lat="45.0433" lon="3.51933">
        <ele>708.15</ele>
        <time>2016-10-30T11:36:47Z</time>
      </trkpt>
      <trkpt lat="45.04331" lon="3.51929">
        <ele>708.15</ele>
        <time>2016-10-30T11:36:53Z</time>
      </trkpt>
      <trkpt lat="45.04337" lon="3.51902">
        <ele>707.67</ele>
        <time>2016-10-30T11:37:11Z</time>
      </trkpt>
      <trkpt lat="45.04327" lon="3.51878">
        <ele>707.19</ele>
        <time>2016-10-30T11:37:27Z</time>
      </trkpt>
      <trkpt lat="45.04308" lon="3.51852">
        <ele>705.26</ele>
        <time>2016-10-30T11:37:46Z</time>
      </trkpt>
      <trkpt lat="45.04287" lon="3.51829">
        <ele>703.82</ele>
        <time>2016-10-30T11:38:05Z</time>
      </trkpt>
      <trkpt lat="45.04267" lon="3.51811">
        <ele>703.34</ele>
        <time>2016-10-30T11:38:22Z</time>
      </trkpt>
      <trkpt lat="45.04263" lon="3.51792">
        <ele>703.82</ele>
        <time>2016-10-30T11:38:33Z</time>
      </trkpt>
      <trkpt lat="45.04266" lon="3.51779">
        <ele>703.82</ele>
        <time>2016-10-30T11:38:48Z</time>
      </trkpt>
      <trkpt lat="45.04267" lon="3.51772">
        <ele>704.3</ele>
        <time>2016-10-30T11:39:06Z</time>
      </trkpt>
      <trkpt lat="45.04267" lon="3.51772">
        <ele>704.78</ele>
        <time>2016-10-30T11:39:11Z</time>
      </trkpt>
      <trkpt lat="45.04273" lon="3.51762">
        <ele>707.19</ele>
        <time>2016-10-30T11:39:20Z</time>
      </trkpt>
      <trkpt lat="45.04272" lon="3.5174">
        <ele>708.63</ele>
        <time>2016-10-30T11:39:35Z</time>
      </trkpt>
      <trkpt lat="45.04266" lon="3.51735">
        <ele>710.07</ele>
        <time>2016-10-30T11:39:41Z</time>
      </trkpt>
      <trkpt lat="45.0426" lon="3.51732">
        <ele>711.99</ele>
        <time>2016-10-30T11:39:46Z</time>
      </trkpt>
      <trkpt lat="45.04244" lon="3.51718">
        <ele>714.4</ele>
        <time>2016-10-30T11:40:01Z</time>
      </trkpt>
      <trkpt lat="45.04229" lon="3.51706">
        <ele>715.36</ele>
        <time>2016-10-30T11:40:15Z</time>
      </trkpt>
      <trkpt lat="45.04211" lon="3.51693">
        <ele>716.32</ele>
        <time>2016-10-30T11:40:31Z</time>
      </trkpt>
      <trkpt lat="45.04196" lon="3.51686">
        <ele>719.2</ele>
        <time>2016-10-30T11:40:44Z</time>
      </trkpt>
      <trkpt lat="45.04186" lon="3.51678">
        <ele>720.65</ele>
        <time>2016-10-30T11:40:55Z</time>
      </trkpt>
      <trkpt lat="45.04181" lon="3.51677">
        <ele>721.61</ele>
        <time>2016-10-30T11:41:00Z</time>
      </trkpt>
      <trkpt lat="45.04175" lon="3.51674">
        <ele>722.09</ele>
        <time>2016-10-30T11:41:06Z</time>
      </trkpt>
      <trkpt lat="45.04171" lon="3.51672">
        <ele>723.05</ele>
        <time>2016-10-30T11:41:10Z</time>
      </trkpt>
      <trkpt lat="45.04157" lon="3.51665">
        <ele>724.97</ele>
        <time>2016-10-30T11:41:25Z</time>
      </trkpt>
      <trkpt lat="45.04151" lon="3.51659">
        <ele>726.41</ele>
        <time>2016-10-30T11:41:32Z</time>
      </trkpt>
      <trkpt lat="45.04149" lon="3.51657">
        <ele>726.41</ele>
        <time>2016-10-30T11:41:34Z</time>
      </trkpt>
      <trkpt lat="45.04135" lon="3.51647">
        <ele>729.3</ele>
        <time>2016-10-30T11:41:49Z</time>
      </trkpt>
      <trkpt lat="45.04133" lon="3.51645">
        <ele>730.26</ele>
        <time>2016-10-30T11:41:52Z</time>
      </trkpt>
      <trkpt lat="45.04126" lon="3.51639">
        <ele>731.22</ele>
        <time>2016-10-30T11:41:59Z</time>
      </trkpt>
      <trkpt lat="45.04113" lon="3.51622">
        <ele>733.62</ele>
        <time>2016-10-30T11:42:14Z</time>
      </trkpt>
      <trkpt lat="45.04107" lon="3.51612">
        <ele>735.55</ele>
        <time>2016-10-30T11:42:24Z</time>
      </trkpt>
      <trkpt lat="45.04102" lon="3.51606">
        <ele>736.99</ele>
        <time>2016-10-30T11:42:32Z</time>
      </trkpt>
      <trkpt lat="45.04098" lon="3.51599">
        <ele>738.91</ele>
        <time>2016-10-30T11:42:39Z</time>
      </trkpt>
      <trkpt lat="45.0409" lon="3.51586">
        <ele>741.79</ele>
        <time>2016-10-30T11:42:52Z</time>
      </trkpt>
      <trkpt lat="45.04082" lon="3.51574">
        <ele>744.2</ele>
        <time>2016-10-30T11:43:03Z</time>
      </trkpt>
      <trkpt lat="45.04071" lon="3.51557">
        <ele>747.08</ele>
        <time>2016-10-30T11:43:17Z</time>
      </trkpt>
      <trkpt lat="45.0406" lon="3.51537">
        <ele>749.49</ele>
        <time>2016-10-30T11:43:32Z</time>
      </trkpt>
      <trkpt lat="45.04055" lon="3.5153">
        <ele>748.52</ele>
        <time>2016-10-30T11:43:39Z</time>
      </trkpt>
      <trkpt lat="45.04052" lon="3.51523">
        <ele>749.49</ele>
        <time>2016-10-30T11:43:45Z</time>
      </trkpt>
      <trkpt lat="45.04041" lon="3.51517">
        <ele>748.52</ele>
        <time>2016-10-30T11:44:01Z</time>
      </trkpt>
      <trkpt lat="45.04039" lon="3.51517">
        <ele>748.52</ele>
        <time>2016-10-30T11:44:03Z</time>
      </trkpt>
      <trkpt lat="45.04023" lon="3.51515">
        <ele>749</ele>
        <time>2016-10-30T11:44:18Z</time>
      </trkpt>
      <trkpt lat="45.04017" lon="3.51515">
        <ele>749</ele>
        <time>2016-10-30T11:44:23Z</time>
      </trkpt>
      <trkpt lat="45.04006" lon="3.51513">
        <ele>749</ele>
        <time>2016-10-30T11:44:32Z</time>
      </trkpt>
      <trkpt lat="45.03986" lon="3.5151">
        <ele>751.89</ele>
        <time>2016-10-30T11:44:50Z</time>
      </trkpt>
      <trkpt lat="45.0398" lon="3.51508">
        <ele>752.37</ele>
        <time>2016-10-30T11:45:02Z</time>
      </trkpt>
      <trkpt lat="45.03958" lon="3.51506">
        <ele>753.81</ele>
        <time>2016-10-30T11:45:19Z</time>
      </trkpt>
      <trkpt lat="45.03941" lon="3.51505">
        <ele>754.77</ele>
        <time>2016-10-30T11:45:33Z</time>
      </trkpt>
      <trkpt lat="45.03937" lon="3.51505">
        <ele>754.77</ele>
        <time>2016-10-30T11:45:37Z</time>
      </trkpt>
      <trkpt lat="45.03915" lon="3.51503">
        <ele>755.73</ele>
        <time>2016-10-30T11:45:55Z</time>
      </trkpt>
      <trkpt lat="45.03891" lon="3.51501">
        <ele>756.69</ele>
        <time>2016-10-30T11:46:14Z</time>
      </trkpt>
      <trkpt lat="45.03868" lon="3.51489">
        <ele>756.69</ele>
        <time>2016-10-30T11:46:34Z</time>
      </trkpt>
      <trkpt lat="45.03868" lon="3.51485">
        <ele>756.21</ele>
        <time>2016-10-30T11:46:48Z</time>
      </trkpt>
      <trkpt lat="45.03868" lon="3.51487">
        <ele>756.21</ele>
        <time>2016-10-30T11:47:03Z</time>
      </trkpt>
      <trkpt lat="45.03867" lon="3.51481">
        <ele>757.18</ele>
        <time>2016-10-30T11:47:13Z</time>
      </trkpt>
      <trkpt lat="45.03869" lon="3.51457">
        <ele>757.66</ele>
        <time>2016-10-30T11:47:28Z</time>
      </trkpt>
      <trkpt lat="45.03859" lon="3.51424">
        <ele>758.14</ele>
        <time>2016-10-30T11:47:48Z</time>
      </trkpt>
      <trkpt lat="45.03848" lon="3.51396">
        <ele>759.1</ele>
        <time>2016-10-30T11:48:06Z</time>
      </trkpt>
      <trkpt lat="45.03837" lon="3.51371">
        <ele>759.1</ele>
        <time>2016-10-30T11:48:22Z</time>
      </trkpt>
      <trkpt lat="45.03825" lon="3.51342">
        <ele>760.06</ele>
        <time>2016-10-30T11:48:40Z</time>
      </trkpt>
      <trkpt lat="45.03816" lon="3.51308">
        <ele>760.54</ele>
        <time>2016-10-30T11:49:00Z</time>
      </trkpt>
      <trkpt lat="45.03799" lon="3.51291">
        <ele>761.5</ele>
        <time>2016-10-30T11:49:16Z</time>
      </trkpt>
      <trkpt lat="45.03778" lon="3.51277">
        <ele>760.06</ele>
        <time>2016-10-30T11:49:34Z</time>
      </trkpt>
      <trkpt lat="45.03761" lon="3.5126">
        <ele>762.46</ele>
        <time>2016-10-30T11:49:50Z</time>
      </trkpt>
      <trkpt lat="45.03743" lon="3.51242">
        <ele>762.94</ele>
        <time>2016-10-30T11:50:06Z</time>
      </trkpt>
      <trkpt lat="45.03724" lon="3.51232">
        <ele>763.42</ele>
        <time>2016-10-30T11:50:23Z</time>
      </trkpt>
      <trkpt lat="45.03702" lon="3.51224">
        <ele>762.46</ele>
        <time>2016-10-30T11:50:39Z</time>
      </trkpt>
      <trkpt lat="45.03684" lon="3.51219">
        <ele>762.94</ele>
        <time>2016-10-30T11:50:55Z</time>
      </trkpt>
      <trkpt lat="45.03684" lon="3.51219">
        <ele>763.42</ele>
        <time>2016-10-30T11:51:10Z</time>
      </trkpt>
      <trkpt lat="45.03672" lon="3.51215">
        <ele>763.9</ele>
        <time>2016-10-30T11:51:23Z</time>
      </trkpt>
      <trkpt lat="45.03659" lon="3.51212">
        <ele>764.39</ele>
        <time>2016-10-30T11:51:32Z</time>
      </trkpt>
      <trkpt lat="45.03652" lon="3.5121">
        <ele>764.87</ele>
        <time>2016-10-30T11:51:37Z</time>
      </trkpt>
      <trkpt lat="45.03629" lon="3.51204">
        <ele>766.31</ele>
        <time>2016-10-30T11:51:54Z</time>
      </trkpt>
      <trkpt lat="45.03603" lon="3.51197">
        <ele>764.87</ele>
        <time>2016-10-30T11:52:13Z</time>
      </trkpt>
      <trkpt lat="45.03581" lon="3.51189">
        <ele>764.39</ele>
        <time>2016-10-30T11:52:28Z</time>
      </trkpt>
      <trkpt lat="45.03572" lon="3.51182">
        <ele>761.98</ele>
        <time>2016-10-30T11:52:35Z</time>
      </trkpt>
      <trkpt lat="45.03551" lon="3.51169">
        <ele>760.06</ele>
        <time>2016-10-30T11:52:51Z</time>
      </trkpt>
      <trkpt lat="45.03529" lon="3.51154">
        <ele>758.62</ele>
        <time>2016-10-30T11:53:09Z</time>
      </trkpt>
      <trkpt lat="45.03526" lon="3.51152">
        <ele>761.02</ele>
        <time>2016-10-30T11:53:17Z</time>
      </trkpt>
      <trkpt lat="45.03525" lon="3.51148">
        <ele>761.98</ele>
        <time>2016-10-30T11:53:21Z</time>
      </trkpt>
      <trkpt lat="45.03522" lon="3.51146">
        <ele>762.46</ele>
        <time>2016-10-30T11:53:26Z</time>
      </trkpt>
      <trkpt lat="45.03504" lon="3.51126">
        <ele>758.62</ele>
        <time>2016-10-30T11:53:44Z</time>
      </trkpt>
      <trkpt lat="45.03486" lon="3.51108">
        <ele>756.21</ele>
        <time>2016-10-30T11:54:00Z</time>
      </trkpt>
      <trkpt lat="45.0347" lon="3.51088">
        <ele>754.29</ele>
        <time>2016-10-30T11:54:16Z</time>
      </trkpt>
      <trkpt lat="45.03449" lon="3.51065">
        <ele>752.37</ele>
        <time>2016-10-30T11:54:35Z</time>
      </trkpt>
      <trkpt lat="45.03443" lon="3.51061">
        <ele>751.89</ele>
        <time>2016-10-30T11:54:40Z</time>
      </trkpt>
      <trkpt lat="45.03438" lon="3.51057">
        <ele>751.89</ele>
        <time>2016-10-30T11:54:45Z</time>
      </trkpt>
      <trkpt lat="45.03433" lon="3.51052">
        <ele>750.45</ele>
        <time>2016-10-30T11:54:50Z</time>
      </trkpt>
      <trkpt lat="45.03424" lon="3.51048">
        <ele>749.49</ele>
        <time>2016-10-30T11:54:57Z</time>
      </trkpt>
      <trkpt lat="45.03419" lon="3.51047">
        <ele>749.49</ele>
        <time>2016-10-30T11:55:01Z</time>
      </trkpt>
      <trkpt lat="45.034" lon="3.51047">
        <ele>748.52</ele>
        <time>2016-10-30T11:55:15Z</time>
      </trkpt>
      <trkpt lat="45.03393" lon="3.5105">
        <ele>747.56</ele>
        <time>2016-10-30T11:55:22Z</time>
      </trkpt>
      <trkpt lat="45.03389" lon="3.51052">
        <ele>746.6</ele>
        <time>2016-10-30T11:55:25Z</time>
      </trkpt>
      <trkpt lat="45.03369" lon="3.51055">
        <ele>743.72</ele>
        <time>2016-10-30T11:55:38Z</time>
      </trkpt>
      <trkpt lat="45.03365" lon="3.51055">
        <ele>743.24</ele>
        <time>2016-10-30T11:55:41Z</time>
      </trkpt>
      <trkpt lat="45.0335" lon="3.51061">
        <ele>741.79</ele>
        <time>2016-10-30T11:55:54Z</time>
      </trkpt>
      <trkpt lat="45.03339" lon="3.51063">
        <ele>739.39</ele>
        <time>2016-10-30T11:56:07Z</time>
      </trkpt>
      <trkpt lat="45.03328" lon="3.51064">
        <ele>736.51</ele>
        <time>2016-10-30T11:56:21Z</time>
      </trkpt>
      <trkpt lat="45.03327" lon="3.51065">
        <ele>736.99</ele>
        <time>2016-10-30T11:56:43Z</time>
      </trkpt>
      <trkpt lat="45.03327" lon="3.51065">
        <ele>737.47</ele>
        <time>2016-10-30T11:57:05Z</time>
      </trkpt>
      <trkpt lat="45.03319" lon="3.51068">
        <ele>736.99</ele>
        <time>2016-10-30T11:57:23Z</time>
      </trkpt>
      <trkpt lat="45.03292" lon="3.51076">
        <ele>733.62</ele>
        <time>2016-10-30T11:57:32Z</time>
      </trkpt>
      <trkpt lat="45.0325" lon="3.51079">
        <ele>726.89</ele>
        <time>2016-10-30T11:57:45Z</time>
      </trkpt>
      <trkpt lat="45.03218" lon="3.511">
        <ele>722.09</ele>
        <time>2016-10-30T11:57:57Z</time>
      </trkpt>
      <trkpt lat="45.03199" lon="3.51125">
        <ele>716.8</ele>
        <time>2016-10-30T11:58:08Z</time>
      </trkpt>
      <trkpt lat="45.03197" lon="3.51133">
        <ele>715.36</ele>
        <time>2016-10-30T11:58:13Z</time>
      </trkpt>
      <trkpt lat="45.03186" lon="3.5114">
        <ele>715.36</ele>
        <time>2016-10-30T11:58:27Z</time>
      </trkpt>
      <trkpt lat="45.0318" lon="3.51129">
        <ele>716.8</ele>
        <time>2016-10-30T11:58:37Z</time>
      </trkpt>
      <trkpt lat="45.03181" lon="3.5112">
        <ele>719.68</ele>
        <time>2016-10-30T11:58:42Z</time>
      </trkpt>
      <trkpt lat="45.03182" lon="3.51105">
        <ele>724.49</ele>
        <time>2016-10-30T11:58:51Z</time>
      </trkpt>
      <trkpt lat="45.03181" lon="3.51101">
        <ele>724.97</ele>
        <time>2016-10-30T11:58:53Z</time>
      </trkpt>
      <trkpt lat="45.0318" lon="3.51095">
        <ele>724.49</ele>
        <time>2016-10-30T11:58:56Z</time>
      </trkpt>
      <trkpt lat="45.03174" lon="3.51074">
        <ele>725.45</ele>
        <time>2016-10-30T11:59:10Z</time>
      </trkpt>
      <trkpt lat="45.03156" lon="3.51048">
        <ele>723.53</ele>
        <time>2016-10-30T11:59:29Z</time>
      </trkpt>
      <trkpt lat="45.03149" lon="3.5104">
        <ele>721.13</ele>
        <time>2016-10-30T11:59:35Z</time>
      </trkpt>
      <trkpt lat="45.03141" lon="3.51027">
        <ele>716.8</ele>
        <time>2016-10-30T11:59:45Z</time>
      </trkpt>
      <trkpt lat="45.0314" lon="3.51015">
        <ele>712.47</ele>
        <time>2016-10-30T11:59:52Z</time>
      </trkpt>
      <trkpt lat="45.03148" lon="3.51003">
        <ele>708.63</ele>
        <time>2016-10-30T12:00:01Z</time>
      </trkpt>
      <trkpt lat="45.03155" lon="3.50993">
        <ele>706.71</ele>
        <time>2016-10-30T12:00:09Z</time>
      </trkpt>
      <trkpt lat="45.03156" lon="3.50988">
        <ele>705.75</ele>
        <time>2016-10-30T12:00:12Z</time>
      </trkpt>
      <trkpt lat="45.03155" lon="3.50983">
        <ele>704.78</ele>
        <time>2016-10-30T12:00:20Z</time>
      </trkpt>
      <trkpt lat="45.03152" lon="3.50978">
        <ele>703.82</ele>
        <time>2016-10-30T12:00:25Z</time>
      </trkpt>
      <trkpt lat="45.03146" lon="3.50978">
        <ele>702.86</ele>
        <time>2016-10-30T12:00:30Z</time>
      </trkpt>
      <trkpt lat="45.03131" lon="3.50979">
        <ele>699.98</ele>
        <time>2016-10-30T12:00:42Z</time>
      </trkpt>
      <trkpt lat="45.03112" lon="3.50979">
        <ele>699.02</ele>
        <time>2016-10-30T12:00:57Z</time>
      </trkpt>
      <trkpt lat="45.03096" lon="3.50974">
        <ele>698.05</ele>
        <time>2016-10-30T12:01:10Z</time>
      </trkpt>
      <trkpt lat="45.03087" lon="3.50968">
        <ele>698.53</ele>
        <time>2016-10-30T12:01:23Z</time>
      </trkpt>
      <trkpt lat="45.0308" lon="3.50964">
        <ele>697.57</ele>
        <time>2016-10-30T12:01:28Z</time>
      </trkpt>
      <trkpt lat="45.03077" lon="3.50963">
        <ele>696.61</ele>
        <time>2016-10-30T12:01:30Z</time>
      </trkpt>
      <trkpt lat="45.03075" lon="3.50939">
        <ele>696.61</ele>
        <time>2016-10-30T12:01:41Z</time>
      </trkpt>
      <trkpt lat="45.03075" lon="3.50918">
        <ele>693.73</ele>
        <time>2016-10-30T12:01:54Z</time>
      </trkpt>
      <trkpt lat="45.03076" lon="3.50908">
        <ele>692.29</ele>
        <time>2016-10-30T12:01:59Z</time>
      </trkpt>
      <trkpt lat="45.03074" lon="3.50896">
        <ele>690.36</ele>
        <time>2016-10-30T12:02:11Z</time>
      </trkpt>
      <trkpt lat="45.03061" lon="3.50889">
        <ele>690.84</ele>
        <time>2016-10-30T12:02:28Z</time>
      </trkpt>
      <trkpt lat="45.03057" lon="3.50887">
        <ele>692.77</ele>
        <time>2016-10-30T12:02:40Z</time>
      </trkpt>
      <trkpt lat="45.03058" lon="3.50888">
        <ele>692.77</ele>
        <time>2016-10-30T12:02:57Z</time>
      </trkpt>
      <trkpt lat="45.03058" lon="3.50888">
        <ele>694.21</ele>
        <time>2016-10-30T12:03:19Z</time>
      </trkpt>
      <trkpt lat="45.03059" lon="3.50888">
        <ele>695.17</ele>
        <time>2016-10-30T12:03:41Z</time>
      </trkpt>
      <trkpt lat="45.03058" lon="3.50887">
        <ele>697.09</ele>
        <time>2016-10-30T12:04:04Z</time>
      </trkpt>
      <trkpt lat="45.03054" lon="3.50888">
        <ele>697.57</ele>
        <time>2016-10-30T12:04:20Z</time>
      </trkpt>
      <trkpt lat="45.03052" lon="3.50887">
        <ele>697.57</ele>
        <time>2016-10-30T12:04:39Z</time>
      </trkpt>
      <trkpt lat="45.0305" lon="3.50888">
        <ele>696.13</ele>
        <time>2016-10-30T12:05:02Z</time>
      </trkpt>
      <trkpt lat="45.03048" lon="3.5089">
        <ele>694.69</ele>
        <time>2016-10-30T12:05:19Z</time>
      </trkpt>
      <trkpt lat="45.03045" lon="3.50892">
        <ele>693.73</ele>
        <time>2016-10-30T12:05:35Z</time>
      </trkpt>
      <trkpt lat="45.03044" lon="3.50892">
        <ele>693.73</ele>
        <time>2016-10-30T12:05:53Z</time>
      </trkpt>
      <trkpt lat="45.03044" lon="3.50892">
        <ele>693.25</ele>
        <time>2016-10-30T12:06:12Z</time>
      </trkpt>
      <trkpt lat="45.03043" lon="3.50894">
        <ele>692.77</ele>
        <time>2016-10-30T12:06:31Z</time>
      </trkpt>
      <trkpt lat="45.03043" lon="3.50895">
        <ele>691.81</ele>
        <time>2016-10-30T12:06:49Z</time>
      </trkpt>
      <trkpt lat="45.03042" lon="3.50894">
        <ele>691.81</ele>
        <time>2016-10-30T12:07:02Z</time>
      </trkpt>
      <trkpt lat="45.0304" lon="3.50893">
        <ele>691.81</ele>
        <time>2016-10-30T12:07:13Z</time>
      </trkpt>
      <trkpt lat="45.0304" lon="3.50892">
        <ele>689.4</ele>
        <time>2016-10-30T12:07:34Z</time>
      </trkpt>
      <trkpt lat="45.0304" lon="3.50892">
        <ele>687.48</ele>
        <time>2016-10-30T12:07:51Z</time>
      </trkpt>
      <trkpt lat="45.0304" lon="3.5089">
        <ele>686.52</ele>
        <time>2016-10-30T12:08:08Z</time>
      </trkpt>
      <trkpt lat="45.0304" lon="3.50888">
        <ele>686.04</ele>
        <time>2016-10-30T12:08:25Z</time>
      </trkpt>
      <trkpt lat="45.0304" lon="3.50887">
        <ele>687</ele>
        <time>2016-10-30T12:08:45Z</time>
      </trkpt>
      <trkpt lat="45.0304" lon="3.50887">
        <ele>687.96</ele>
        <time>2016-10-30T12:09:01Z</time>
      </trkpt>
      <trkpt lat="45.03038" lon="3.50886">
        <ele>688.92</ele>
        <time>2016-10-30T12:09:17Z</time>
      </trkpt>
      <trkpt lat="45.03037" lon="3.50886">
        <ele>690.84</ele>
        <time>2016-10-30T12:09:32Z</time>
      </trkpt>
      <trkpt lat="45.03035" lon="3.50887">
        <ele>692.29</ele>
        <time>2016-10-30T12:09:47Z</time>
      </trkpt>
      <trkpt lat="45.03033" lon="3.50886">
        <ele>693.25</ele>
        <time>2016-10-30T12:10:00Z</time>
      </trkpt>
      <trkpt lat="45.03032" lon="3.50885">
        <ele>694.69</ele>
        <time>2016-10-30T12:10:14Z</time>
      </trkpt>
      <trkpt lat="45.03032" lon="3.50885">
        <ele>695.17</ele>
        <time>2016-10-30T12:10:28Z</time>
      </trkpt>
      <trkpt lat="45.03031" lon="3.50886">
        <ele>695.17</ele>
        <time>2016-10-30T12:10:38Z</time>
      </trkpt>
      <trkpt lat="45.03031" lon="3.50886">
        <ele>694.21</ele>
        <time>2016-10-30T12:10:50Z</time>
      </trkpt>
      <trkpt lat="45.0303" lon="3.50885">
        <ele>694.21</ele>
        <time>2016-10-30T12:11:02Z</time>
      </trkpt>
      <trkpt lat="45.03019" lon="3.5088">
        <ele>698.05</ele>
        <time>2016-10-30T12:11:17Z</time>
      </trkpt>
      <trkpt lat="45.03011" lon="3.50874">
        <ele>701.9</ele>
        <time>2016-10-30T12:11:34Z</time>
      </trkpt>
      <trkpt lat="45.0301" lon="3.50881">
        <ele>699.98</ele>
        <time>2016-10-30T12:11:49Z</time>
      </trkpt>
      <trkpt lat="45.03012" lon="3.50883">
        <ele>699.98</ele>
        <time>2016-10-30T12:11:52Z</time>
      </trkpt>
      <trkpt lat="45.03019" lon="3.50893">
        <ele>699.02</ele>
        <time>2016-10-30T12:12:05Z</time>
      </trkpt>
      <trkpt lat="45.03014" lon="3.50909">
        <ele>697.09</ele>
        <time>2016-10-30T12:12:18Z</time>
      </trkpt>
      <trkpt lat="45.03013" lon="3.50911">
        <ele>698.05</ele>
        <time>2016-10-30T12:12:30Z</time>
      </trkpt>
      <trkpt lat="45.03005" lon="3.50902">
        <ele>699.02</ele>
        <time>2016-10-30T12:12:45Z</time>
      </trkpt>
      <trkpt lat="45.03004" lon="3.509">
        <ele>698.05</ele>
        <time>2016-10-30T12:12:58Z</time>
      </trkpt>
      <trkpt lat="45.03004" lon="3.509">
        <ele>697.57</ele>
        <time>2016-10-30T12:12:59Z</time>
      </trkpt>
      <trkpt lat="45.03002" lon="3.50901">
        <ele>698.53</ele>
        <time>2016-10-30T12:13:07Z</time>
      </trkpt>
      <trkpt lat="45.02999" lon="3.50903">
        <ele>695.65</ele>
        <time>2016-10-30T12:13:24Z</time>
      </trkpt>
      <trkpt lat="45.02999" lon="3.50903">
        <ele>695.17</ele>
        <time>2016-10-30T12:13:44Z</time>
      </trkpt>
      <trkpt lat="45.02999" lon="3.50903">
        <ele>694.69</ele>
        <time>2016-10-30T12:14:18Z</time>
      </trkpt>
      <trkpt lat="45.02997" lon="3.50904">
        <ele>693.25</ele>
        <time>2016-10-30T12:14:48Z</time>
      </trkpt>
      <trkpt lat="45.02997" lon="3.50905">
        <ele>693.25</ele>
        <time>2016-10-30T12:15:18Z</time>
      </trkpt>
      <trkpt lat="45.02996" lon="3.50904">
        <ele>692.77</ele>
        <time>2016-10-30T12:15:54Z</time>
      </trkpt>
      <trkpt lat="45.02998" lon="3.50905">
        <ele>693.25</ele>
        <time>2016-10-30T12:16:28Z</time>
      </trkpt>
      <trkpt lat="45.02998" lon="3.50905">
        <ele>693.25</ele>
        <time>2016-10-30T12:17:03Z</time>
      </trkpt>
      <trkpt lat="45.02997" lon="3.50905">
        <ele>693.25</ele>
        <time>2016-10-30T12:17:38Z</time>
      </trkpt>
      <trkpt lat="45.02998" lon="3.50906">
        <ele>693.73</ele>
        <time>2016-10-30T12:18:14Z</time>
      </trkpt>
      <trkpt lat="45.02997" lon="3.50906">
        <ele>693.25</ele>
        <time>2016-10-30T12:18:38Z</time>
      </trkpt>
      <trkpt lat="45.02998" lon="3.50906">
        <ele>692.77</ele>
        <time>2016-10-30T12:19:12Z</time>
      </trkpt>
      <trkpt lat="45.02998" lon="3.50907">
        <ele>693.73</ele>
        <time>2016-10-30T12:19:38Z</time>
      </trkpt>
      <trkpt lat="45.02998" lon="3.50907">
        <ele>693.73</ele>
        <time>2016-10-30T12:20:06Z</time>
      </trkpt>
      <trkpt lat="45.02997" lon="3.50908">
        <ele>693.73</ele>
        <time>2016-10-30T12:20:46Z</time>
      </trkpt>
      <trkpt lat="45.02998" lon="3.50908">
        <ele>694.69</ele>
        <time>2016-10-30T12:21:22Z</time>
      </trkpt>
      <trkpt lat="45.02998" lon="3.50908">
        <ele>693.73</ele>
        <time>2016-10-30T12:21:59Z</time>
      </trkpt>
      <trkpt lat="45.02997" lon="3.50908">
        <ele>694.21</ele>
        <time>2016-10-30T12:22:37Z</time>
      </trkpt>
      <trkpt lat="45.02998" lon="3.50909">
        <ele>694.21</ele>
        <time>2016-10-30T12:23:10Z</time>
      </trkpt>
      <trkpt lat="45.02999" lon="3.50908">
        <ele>695.17</ele>
        <time>2016-10-30T12:23:36Z</time>
      </trkpt>
      <trkpt lat="45.02999" lon="3.50907">
        <ele>696.61</ele>
        <time>2016-10-30T12:24:11Z</time>
      </trkpt>
      <trkpt lat="45.02998" lon="3.5091">
        <ele>697.57</ele>
        <time>2016-10-30T12:24:41Z</time>
      </trkpt>
      <trkpt lat="45.02998" lon="3.50909">
        <ele>696.61</ele>
        <time>2016-10-30T12:25:14Z</time>
      </trkpt>
      <trkpt lat="45.02998" lon="3.50908">
        <ele>697.09</ele>
        <time>2016-10-30T12:25:37Z</time>
      </trkpt>
      <trkpt lat="45.02997" lon="3.50908">
        <ele>698.53</ele>
        <time>2016-10-30T12:26:02Z</time>
      </trkpt>
      <trkpt lat="45.02998" lon="3.50907">
        <ele>698.05</ele>
        <time>2016-10-30T12:26:20Z</time>
      </trkpt>
      <trkpt lat="45.02997" lon="3.50905">
        <ele>696.61</ele>
        <time>2016-10-30T12:26:30Z</time>
      </trkpt>
      <trkpt lat="45.02996" lon="3.50905">
        <ele>696.61</ele>
        <time>2016-10-30T12:26:41Z</time>
      </trkpt>
      <trkpt lat="45.02999" lon="3.5091">
        <ele>697.09</ele>
        <time>2016-10-30T12:26:57Z</time>
      </trkpt>
      <trkpt lat="45.03003" lon="3.50909">
        <ele>697.57</ele>
        <time>2016-10-30T12:27:09Z</time>
      </trkpt>
      <trkpt lat="45.03009" lon="3.50902">
        <ele>698.05</ele>
        <time>2016-10-30T12:27:22Z</time>
      </trkpt>
      <trkpt lat="45.03009" lon="3.5089">
        <ele>699.98</ele>
        <time>2016-10-30T12:27:35Z</time>
      </trkpt>
      <trkpt lat="45.03006" lon="3.50887">
        <ele>701.42</ele>
        <time>2016-10-30T12:27:40Z</time>
      </trkpt>
      <trkpt lat="45.03004" lon="3.50873">
        <ele>699.02</ele>
        <time>2016-10-30T12:27:55Z</time>
      </trkpt>
      <trkpt lat="45.0301" lon="3.50873">
        <ele>699.02</ele>
        <time>2016-10-30T12:28:07Z</time>
      </trkpt>
      <trkpt lat="45.03019" lon="3.50881">
        <ele>703.34</ele>
        <time>2016-10-30T12:28:23Z</time>
      </trkpt>
      <trkpt lat="45.03022" lon="3.50882">
        <ele>703.34</ele>
        <time>2016-10-30T12:28:35Z</time>
      </trkpt>
      <trkpt lat="45.03024" lon="3.50882">
        <ele>702.86</ele>
        <time>2016-10-30T12:28:49Z</time>
      </trkpt>
      <trkpt lat="45.03024" lon="3.50882">
        <ele>702.86</ele>
        <time>2016-10-30T12:29:06Z</time>
      </trkpt>
      <trkpt lat="45.03024" lon="3.50882">
        <ele>701.9</ele>
        <time>2016-10-30T12:29:22Z</time>
      </trkpt>
      <trkpt lat="45.03027" lon="3.50883">
        <ele>702.86</ele>
        <time>2016-10-30T12:29:36Z</time>
      </trkpt>
      <trkpt lat="45.03027" lon="3.50885">
        <ele>701.9</ele>
        <time>2016-10-30T12:29:51Z</time>
      </trkpt>
      <trkpt lat="45.03027" lon="3.50885">
        <ele>701.42</ele>
        <time>2016-10-30T12:30:07Z</time>
      </trkpt>
      <trkpt lat="45.03026" lon="3.50886">
        <ele>701.42</ele>
        <time>2016-10-30T12:30:18Z</time>
      </trkpt>
      <trkpt lat="45.03028" lon="3.50886">
        <ele>697.57</ele>
        <time>2016-10-30T12:30:35Z</time>
      </trkpt>
      <trkpt lat="45.0303" lon="3.50885">
        <ele>695.17</ele>
        <time>2016-10-30T12:30:49Z</time>
      </trkpt>
      <trkpt lat="45.0303" lon="3.50885">
        <ele>693.73</ele>
        <time>2016-10-30T12:31:00Z</time>
      </trkpt>
      <trkpt lat="45.0303" lon="3.50885">
        <ele>691.81</ele>
        <time>2016-10-30T12:31:18Z</time>
      </trkpt>
      <trkpt lat="45.03031" lon="3.50886">
        <ele>690.84</ele>
        <time>2016-10-30T12:31:34Z</time>
      </trkpt>
      <trkpt lat="45.03029" lon="3.50885">
        <ele>690.36</ele>
        <time>2016-10-30T12:31:49Z</time>
      </trkpt>
      <trkpt lat="45.03031" lon="3.50886">
        <ele>688.92</ele>
        <time>2016-10-30T12:32:02Z</time>
      </trkpt>
      <trkpt lat="45.03033" lon="3.50887">
        <ele>687</ele>
        <time>2016-10-30T12:32:19Z</time>
      </trkpt>
      <trkpt lat="45.03033" lon="3.50888">
        <ele>686.04</ele>
        <time>2016-10-30T12:32:33Z</time>
      </trkpt>
      <trkpt lat="45.03034" lon="3.50889">
        <ele>685.56</ele>
        <time>2016-10-30T12:32:46Z</time>
      </trkpt>
      <trkpt lat="45.03035" lon="3.50889">
        <ele>684.6</ele>
        <time>2016-10-30T12:33:03Z</time>
      </trkpt>
      <trkpt lat="45.03035" lon="3.5089">
        <ele>684.6</ele>
        <time>2016-10-30T12:33:23Z</time>
      </trkpt>
      <trkpt lat="45.03036" lon="3.50891">
        <ele>685.56</ele>
        <time>2016-10-30T12:33:44Z</time>
      </trkpt>
      <trkpt lat="45.03036" lon="3.50891">
        <ele>686.04</ele>
        <time>2016-10-30T12:34:00Z</time>
      </trkpt>
      <trkpt lat="45.03037" lon="3.50892">
        <ele>685.56</ele>
        <time>2016-10-30T12:34:16Z</time>
      </trkpt>
      <trkpt lat="45.03037" lon="3.50892">
        <ele>686.04</ele>
        <time>2016-10-30T12:34:29Z</time>
      </trkpt>
      <trkpt lat="45.03037" lon="3.50892">
        <ele>685.56</ele>
        <time>2016-10-30T12:34:45Z</time>
      </trkpt>
      <trkpt lat="45.03036" lon="3.50892">
        <ele>685.08</ele>
        <time>2016-10-30T12:34:57Z</time>
      </trkpt>
      <trkpt lat="45.03036" lon="3.50892">
        <ele>685.08</ele>
        <time>2016-10-30T12:35:08Z</time>
      </trkpt>
      <trkpt lat="45.03037" lon="3.50892">
        <ele>684.6</ele>
        <time>2016-10-30T12:35:22Z</time>
      </trkpt>
      <trkpt lat="45.03037" lon="3.50891">
        <ele>685.08</ele>
        <time>2016-10-30T12:35:36Z</time>
      </trkpt>
      <trkpt lat="45.0304" lon="3.50895">
        <ele>685.56</ele>
        <time>2016-10-30T12:35:49Z</time>
      </trkpt>
      <trkpt lat="45.03045" lon="3.50893">
        <ele>686.52</ele>
        <time>2016-10-30T12:36:03Z</time>
      </trkpt>
      <trkpt lat="45.03051" lon="3.50891">
        <ele>687.48</ele>
        <time>2016-10-30T12:36:14Z</time>
      </trkpt>
      <trkpt lat="45.03056" lon="3.5089">
        <ele>687.96</ele>
        <time>2016-10-30T12:36:21Z</time>
      </trkpt>
      <trkpt lat="45.03067" lon="3.50892">
        <ele>688.44</ele>
        <time>2016-10-30T12:36:34Z</time>
      </trkpt>
      <trkpt lat="45.03071" lon="3.50895">
        <ele>687.96</ele>
        <time>2016-10-30T12:36:51Z</time>
      </trkpt>
      <trkpt lat="45.03071" lon="3.50895">
        <ele>688.44</ele>
        <time>2016-10-30T12:36:59Z</time>
      </trkpt>
      <trkpt lat="45.0307" lon="3.50893">
        <ele>688.92</ele>
        <time>2016-10-30T12:37:01Z</time>
      </trkpt>
      <trkpt lat="45.03062" lon="3.50893">
        <ele>688.92</ele>
        <time>2016-10-30T12:37:14Z</time>
      </trkpt>
      <trkpt lat="45.03062" lon="3.50893">
        <ele>688.44</ele>
        <time>2016-10-30T12:37:26Z</time>
      </trkpt>
      <trkpt lat="45.03062" lon="3.50893">
        <ele>690.36</ele>
        <time>2016-10-30T12:37:39Z</time>
      </trkpt>
      <trkpt lat="45.03062" lon="3.50892">
        <ele>689.4</ele>
        <time>2016-10-30T12:37:50Z</time>
      </trkpt>
      <trkpt lat="45.03066" lon="3.50892">
        <ele>689.4</ele>
        <time>2016-10-30T12:38:03Z</time>
      </trkpt>
      <trkpt lat="45.03066" lon="3.50891">
        <ele>688.92</ele>
        <time>2016-10-30T12:38:18Z</time>
      </trkpt>
      <trkpt lat="45.03061" lon="3.50889">
        <ele>688.92</ele>
        <time>2016-10-30T12:38:30Z</time>
      </trkpt>
      <trkpt lat="45.03056" lon="3.50891">
        <ele>690.84</ele>
        <time>2016-10-30T12:38:42Z</time>
      </trkpt>
      <trkpt lat="45.03054" lon="3.50897">
        <ele>692.29</ele>
        <time>2016-10-30T12:38:54Z</time>
      </trkpt>
      <trkpt lat="45.03054" lon="3.50899">
        <ele>692.77</ele>
        <time>2016-10-30T12:38:56Z</time>
      </trkpt>
      <trkpt lat="45.03056" lon="3.50907">
        <ele>693.73</ele>
        <time>2016-10-30T12:39:10Z</time>
      </trkpt>
      <trkpt lat="45.03055" lon="3.50908">
        <ele>693.73</ele>
        <time>2016-10-30T12:39:32Z</time>
      </trkpt>
      <trkpt lat="45.03051" lon="3.50913">
        <ele>694.69</ele>
        <time>2016-10-30T12:39:57Z</time>
      </trkpt>
      <trkpt lat="45.03051" lon="3.50917">
        <ele>694.69</ele>
        <time>2016-10-30T12:40:16Z</time>
      </trkpt>
      <trkpt lat="45.0305" lon="3.50922">
        <ele>695.65</ele>
        <time>2016-10-30T12:40:38Z</time>
      </trkpt>
      <trkpt lat="45.03051" lon="3.50926">
        <ele>697.09</ele>
        <time>2016-10-30T12:41:08Z</time>
      </trkpt>
      <trkpt lat="45.03052" lon="3.50927">
        <ele>697.09</ele>
        <time>2016-10-30T12:41:29Z</time>
      </trkpt>
      <trkpt lat="45.0305" lon="3.50926">
        <ele>697.57</ele>
        <time>2016-10-30T12:41:51Z</time>
      </trkpt>
      <trkpt lat="45.03051" lon="3.5092">
        <ele>697.09</ele>
        <time>2016-10-30T12:42:16Z</time>
      </trkpt>
      <trkpt lat="45.03055" lon="3.50903">
        <ele>695.65</ele>
        <time>2016-10-30T12:42:34Z</time>
      </trkpt>
      <trkpt lat="45.03057" lon="3.50892">
        <ele>693.73</ele>
        <time>2016-10-30T12:42:45Z</time>
      </trkpt>
      <trkpt lat="45.03058" lon="3.5089">
        <ele>692.29</ele>
        <time>2016-10-30T12:42:48Z</time>
      </trkpt>
      <trkpt lat="45.03069" lon="3.50892">
        <ele>691.81</ele>
        <time>2016-10-30T12:43:03Z</time>
      </trkpt>
      <trkpt lat="45.03077" lon="3.50903">
        <ele>688.92</ele>
        <time>2016-10-30T12:43:14Z</time>
      </trkpt>
      <trkpt lat="45.03079" lon="3.50905">
        <ele>688.44</ele>
        <time>2016-10-30T12:43:16Z</time>
      </trkpt>
      <trkpt lat="45.03084" lon="3.50909">
        <ele>687</ele>
        <time>2016-10-30T12:43:22Z</time>
      </trkpt>
      <trkpt lat="45.03093" lon="3.5091">
        <ele>685.56</ele>
        <time>2016-10-30T12:43:33Z</time>
      </trkpt>
      <trkpt lat="45.03108" lon="3.50904">
        <ele>685.56</ele>
        <time>2016-10-30T12:43:49Z</time>
      </trkpt>
      <trkpt lat="45.03121" lon="3.50898">
        <ele>683.63</ele>
        <time>2016-10-30T12:44:03Z</time>
      </trkpt>
      <trkpt lat="45.03122" lon="3.50897">
        <ele>683.15</ele>
        <time>2016-10-30T12:44:06Z</time>
      </trkpt>
      <trkpt lat="45.03141" lon="3.50887">
        <ele>681.71</ele>
        <time>2016-10-30T12:44:25Z</time>
      </trkpt>
      <trkpt lat="45.03162" lon="3.50875">
        <ele>681.23</ele>
        <time>2016-10-30T12:44:43Z</time>
      </trkpt>
      <trkpt lat="45.03185" lon="3.50882">
        <ele>679.31</ele>
        <time>2016-10-30T12:45:01Z</time>
      </trkpt>
      <trkpt lat="45.03191" lon="3.50885">
        <ele>678.83</ele>
        <time>2016-10-30T12:45:06Z</time>
      </trkpt>
      <trkpt lat="45.03207" lon="3.50897">
        <ele>678.83</ele>
        <time>2016-10-30T12:45:23Z</time>
      </trkpt>
      <trkpt lat="45.03223" lon="3.50905">
        <ele>680.27</ele>
        <time>2016-10-30T12:45:40Z</time>
      </trkpt>
      <trkpt lat="45.03224" lon="3.50906">
        <ele>680.27</ele>
        <time>2016-10-30T12:45:42Z</time>
      </trkpt>
      <trkpt lat="45.03223" lon="3.50908">
        <ele>680.27</ele>
        <time>2016-10-30T12:45:45Z</time>
      </trkpt>
      <trkpt lat="45.03221" lon="3.5091">
        <ele>680.75</ele>
        <time>2016-10-30T12:45:47Z</time>
      </trkpt>
      <trkpt lat="45.0322" lon="3.50912">
        <ele>680.27</ele>
        <time>2016-10-30T12:45:49Z</time>
      </trkpt>
      <trkpt lat="45.03227" lon="3.50921">
        <ele>681.71</ele>
        <time>2016-10-30T12:46:02Z</time>
      </trkpt>
      <trkpt lat="45.03232" lon="3.50928">
        <ele>682.67</ele>
        <time>2016-10-30T12:46:08Z</time>
      </trkpt>
      <trkpt lat="45.03237" lon="3.50942">
        <ele>682.67</ele>
        <time>2016-10-30T12:46:18Z</time>
      </trkpt>
      <trkpt lat="45.03241" lon="3.5096">
        <ele>682.19</ele>
        <time>2016-10-30T12:46:29Z</time>
      </trkpt>
      <trkpt lat="45.0325" lon="3.50984">
        <ele>684.12</ele>
        <time>2016-10-30T12:46:46Z</time>
      </trkpt>
      <trkpt lat="45.03266" lon="3.5099">
        <ele>685.56</ele>
        <time>2016-10-30T12:47:00Z</time>
      </trkpt>
      <trkpt lat="45.03284" lon="3.50972">
        <ele>692.29</ele>
        <time>2016-10-30T12:47:17Z</time>
      </trkpt>
      <trkpt lat="45.03302" lon="3.50956">
        <ele>697.57</ele>
        <time>2016-10-30T12:47:33Z</time>
      </trkpt>
      <trkpt lat="45.03321" lon="3.50942">
        <ele>696.61</ele>
        <time>2016-10-30T12:47:50Z</time>
      </trkpt>
      <trkpt lat="45.03342" lon="3.5093">
        <ele>692.29</ele>
        <time>2016-10-30T12:48:06Z</time>
      </trkpt>
      <trkpt lat="45.03345" lon="3.50928">
        <ele>691.33</ele>
        <time>2016-10-30T12:48:08Z</time>
      </trkpt>
      <trkpt lat="45.03356" lon="3.50918">
        <ele>690.84</ele>
        <time>2016-10-30T12:48:17Z</time>
      </trkpt>
      <trkpt lat="45.03374" lon="3.50896">
        <ele>689.88</ele>
        <time>2016-10-30T12:48:36Z</time>
      </trkpt>
      <trkpt lat="45.03387" lon="3.50879">
        <ele>691.33</ele>
        <time>2016-10-30T12:48:50Z</time>
      </trkpt>
      <trkpt lat="45.03389" lon="3.50877">
        <ele>691.81</ele>
        <time>2016-10-30T12:48:52Z</time>
      </trkpt>
      <trkpt lat="45.03408" lon="3.50861">
        <ele>693.73</ele>
        <time>2016-10-30T12:49:09Z</time>
      </trkpt>
      <trkpt lat="45.03412" lon="3.50861">
        <ele>693.73</ele>
        <time>2016-10-30T12:49:12Z</time>
      </trkpt>
      <trkpt lat="45.03421" lon="3.50867">
        <ele>695.17</ele>
        <time>2016-10-30T12:49:20Z</time>
      </trkpt>
      <trkpt lat="45.03436" lon="3.50877">
        <ele>699.5</ele>
        <time>2016-10-30T12:49:34Z</time>
      </trkpt>
      <trkpt lat="45.03451" lon="3.50886">
        <ele>699.02</ele>
        <time>2016-10-30T12:49:47Z</time>
      </trkpt>
      <trkpt lat="45.03473" lon="3.50897">
        <ele>701.42</ele>
        <time>2016-10-30T12:50:05Z</time>
      </trkpt>
      <trkpt lat="45.03488" lon="3.50906">
        <ele>700.94</ele>
        <time>2016-10-30T12:50:22Z</time>
      </trkpt>
      <trkpt lat="45.03501" lon="3.50919">
        <ele>701.9</ele>
        <time>2016-10-30T12:50:35Z</time>
      </trkpt>
      <trkpt lat="45.03514" lon="3.50935">
        <ele>702.38</ele>
        <time>2016-10-30T12:50:50Z</time>
      </trkpt>
      <trkpt lat="45.03529" lon="3.50959">
        <ele>704.78</ele>
        <time>2016-10-30T12:51:08Z</time>
      </trkpt>
      <trkpt lat="45.03543" lon="3.5098">
        <ele>708.15</ele>
        <time>2016-10-30T12:51:24Z</time>
      </trkpt>
      <trkpt lat="45.03559" lon="3.50995">
        <ele>709.11</ele>
        <time>2016-10-30T12:51:39Z</time>
      </trkpt>
      <trkpt lat="45.03576" lon="3.51012">
        <ele>709.59</ele>
        <time>2016-10-30T12:51:55Z</time>
      </trkpt>
      <trkpt lat="45.03593" lon="3.51027">
        <ele>709.59</ele>
        <time>2016-10-30T12:52:11Z</time>
      </trkpt>
      <trkpt lat="45.0361" lon="3.51033">
        <ele>710.07</ele>
        <time>2016-10-30T12:52:25Z</time>
      </trkpt>
      <trkpt lat="45.03632" lon="3.51047">
        <ele>709.11</ele>
        <time>2016-10-30T12:52:42Z</time>
      </trkpt>
      <trkpt lat="45.03649" lon="3.51051">
        <ele>711.99</ele>
        <time>2016-10-30T12:52:56Z</time>
      </trkpt>
      <trkpt lat="45.03673" lon="3.5106">
        <ele>713.92</ele>
        <time>2016-10-30T12:53:15Z</time>
      </trkpt>
      <trkpt lat="45.03678" lon="3.51064">
        <ele>712.95</ele>
        <time>2016-10-30T12:53:27Z</time>
      </trkpt>
      <trkpt lat="45.03678" lon="3.51064">
        <ele>712.95</ele>
        <time>2016-10-30T12:53:28Z</time>
      </trkpt>
      <trkpt lat="45.03682" lon="3.51068">
        <ele>712.95</ele>
        <time>2016-10-30T12:53:32Z</time>
      </trkpt>
      <trkpt lat="45.03688" lon="3.51073">
        <ele>712.95</ele>
        <time>2016-10-30T12:53:37Z</time>
      </trkpt>
      <trkpt lat="45.03706" lon="3.51085">
        <ele>711.99</ele>
        <time>2016-10-30T12:53:51Z</time>
      </trkpt>
      <trkpt lat="45.0371" lon="3.51089">
        <ele>711.99</ele>
        <time>2016-10-30T12:53:55Z</time>
      </trkpt>
      <trkpt lat="45.03719" lon="3.51093">
        <ele>711.51</ele>
        <time>2016-10-30T12:54:02Z</time>
      </trkpt>
      <trkpt lat="45.03731" lon="3.511">
        <ele>711.99</ele>
        <time>2016-10-30T12:54:11Z</time>
      </trkpt>
      <trkpt lat="45.03752" lon="3.51105">
        <ele>712.95</ele>
        <time>2016-10-30T12:54:28Z</time>
      </trkpt>
      <trkpt lat="45.03773" lon="3.5111">
        <ele>711.99</ele>
        <time>2016-10-30T12:54:44Z</time>
      </trkpt>
      <trkpt lat="45.03804" lon="3.51111">
        <ele>712.47</ele>
        <time>2016-10-30T12:55:06Z</time>
      </trkpt>
      <trkpt lat="45.03828" lon="3.51112">
        <ele>712.95</ele>
        <time>2016-10-30T12:55:24Z</time>
      </trkpt>
      <trkpt lat="45.03853" lon="3.51116">
        <ele>712.95</ele>
        <time>2016-10-30T12:55:42Z</time>
      </trkpt>
      <trkpt lat="45.03875" lon="3.51122">
        <ele>711.51</ele>
        <time>2016-10-30T12:55:59Z</time>
      </trkpt>
      <trkpt lat="45.03898" lon="3.51126">
        <ele>711.99</ele>
        <time>2016-10-30T12:56:17Z</time>
      </trkpt>
      <trkpt lat="45.03921" lon="3.51128">
        <ele>710.55</ele>
        <time>2016-10-30T12:56:34Z</time>
      </trkpt>
      <trkpt lat="45.03946" lon="3.51129">
        <ele>706.71</ele>
        <time>2016-10-30T12:56:52Z</time>
      </trkpt>
      <trkpt lat="45.03967" lon="3.51127">
        <ele>706.71</ele>
        <time>2016-10-30T12:57:07Z</time>
      </trkpt>
      <trkpt lat="45.03995" lon="3.51126">
        <ele>705.75</ele>
        <time>2016-10-30T12:57:27Z</time>
      </trkpt>
      <trkpt lat="45.04024" lon="3.5113">
        <ele>700.94</ele>
        <time>2016-10-30T12:57:48Z</time>
      </trkpt>
      <trkpt lat="45.04052" lon="3.51138">
        <ele>697.57</ele>
        <time>2016-10-30T12:58:08Z</time>
      </trkpt>
      <trkpt lat="45.04077" lon="3.51151">
        <ele>695.65</ele>
        <time>2016-10-30T12:58:28Z</time>
      </trkpt>
      <trkpt lat="45.0409" lon="3.51178">
        <ele>694.69</ele>
        <time>2016-10-30T12:58:46Z</time>
      </trkpt>
      <trkpt lat="45.04087" lon="3.51216">
        <ele>693.25</ele>
        <time>2016-10-30T12:59:06Z</time>
      </trkpt>
      <trkpt lat="45.04085" lon="3.51248">
        <ele>692.29</ele>
        <time>2016-10-30T12:59:24Z</time>
      </trkpt>
      <trkpt lat="45.04095" lon="3.51271">
        <ele>692.77</ele>
        <time>2016-10-30T12:59:40Z</time>
      </trkpt>
      <trkpt lat="45.04118" lon="3.51274">
        <ele>691.81</ele>
        <time>2016-10-30T12:59:57Z</time>
      </trkpt>
      <trkpt lat="45.04142" lon="3.51279">
        <ele>690.36</ele>
        <time>2016-10-30T13:00:16Z</time>
      </trkpt>
      <trkpt lat="45.04165" lon="3.51291">
        <ele>690.36</ele>
        <time>2016-10-30T13:00:35Z</time>
      </trkpt>
      <trkpt lat="45.04184" lon="3.513">
        <ele>688.44</ele>
        <time>2016-10-30T13:00:52Z</time>
      </trkpt>
      <trkpt lat="45.04203" lon="3.5131">
        <ele>686.52</ele>
        <time>2016-10-30T13:01:08Z</time>
      </trkpt>
      <trkpt lat="45.04224" lon="3.51327">
        <ele>685.56</ele>
        <time>2016-10-30T13:01:26Z</time>
      </trkpt>
      <trkpt lat="45.04248" lon="3.51343">
        <ele>684.12</ele>
        <time>2016-10-30T13:01:45Z</time>
      </trkpt>
      <trkpt lat="45.04271" lon="3.51349">
        <ele>683.63</ele>
        <time>2016-10-30T13:02:02Z</time>
      </trkpt>
      <trkpt lat="45.04297" lon="3.51357">
        <ele>681.71</ele>
        <time>2016-10-30T13:02:22Z</time>
      </trkpt>
      <trkpt lat="45.04324" lon="3.51364">
        <ele>680.75</ele>
        <time>2016-10-30T13:02:43Z</time>
      </trkpt>
      <trkpt lat="45.04349" lon="3.5137">
        <ele>679.79</ele>
        <time>2016-10-30T13:03:02Z</time>
      </trkpt>
      <trkpt lat="45.04378" lon="3.5138">
        <ele>676.91</ele>
        <time>2016-10-30T13:03:24Z</time>
      </trkpt>
      <trkpt lat="45.04401" lon="3.51396">
        <ele>675.46</ele>
        <time>2016-10-30T13:03:43Z</time>
      </trkpt>
      <trkpt lat="45.04415" lon="3.51419">
        <ele>675.94</ele>
        <time>2016-10-30T13:04:03Z</time>
      </trkpt>
      <trkpt lat="45.04417" lon="3.51424">
        <ele>676.42</ele>
        <time>2016-10-30T13:04:12Z</time>
      </trkpt>
      <trkpt lat="45.04432" lon="3.51442">
        <ele>677.39</ele>
        <time>2016-10-30T13:04:29Z</time>
      </trkpt>
      <trkpt lat="45.04439" lon="3.51443">
        <ele>676.91</ele>
        <time>2016-10-30T13:04:35Z</time>
      </trkpt>
      <trkpt lat="45.04459" lon="3.51452">
        <ele>674.5</ele>
        <time>2016-10-30T13:04:51Z</time>
      </trkpt>
      <trkpt lat="45.0448" lon="3.51468">
        <ele>672.58</ele>
        <time>2016-10-30T13:05:08Z</time>
      </trkpt>
      <trkpt lat="45.04494" lon="3.5148">
        <ele>672.1</ele>
        <time>2016-10-30T13:05:21Z</time>
      </trkpt>
      <trkpt lat="45.04511" lon="3.51504">
        <ele>672.1</ele>
        <time>2016-10-30T13:05:39Z</time>
      </trkpt>
      <trkpt lat="45.04514" lon="3.51539">
        <ele>671.14</ele>
        <time>2016-10-30T13:05:57Z</time>
      </trkpt>
      <trkpt lat="45.04518" lon="3.51564">
        <ele>669.22</ele>
        <time>2016-10-30T13:06:11Z</time>
      </trkpt>
      <trkpt lat="45.04529" lon="3.51589">
        <ele>663.45</ele>
        <time>2016-10-30T13:06:26Z</time>
      </trkpt>
      <trkpt lat="45.04534" lon="3.51603">
        <ele>663.45</ele>
        <time>2016-10-30T13:06:35Z</time>
      </trkpt>
      <trkpt lat="45.04548" lon="3.51624">
        <ele>663.93</ele>
        <time>2016-10-30T13:06:50Z</time>
      </trkpt>
      <trkpt lat="45.04559" lon="3.51642">
        <ele>663.93</ele>
        <time>2016-10-30T13:07:03Z</time>
      </trkpt>
      <trkpt lat="45.04566" lon="3.51653">
        <ele>662.49</ele>
        <time>2016-10-30T13:07:12Z</time>
      </trkpt>
      <trkpt lat="45.04586" lon="3.51672">
        <ele>662.01</ele>
        <time>2016-10-30T13:07:30Z</time>
      </trkpt>
      <trkpt lat="45.04599" lon="3.51695">
        <ele>658.64</ele>
        <time>2016-10-30T13:07:46Z</time>
      </trkpt>
      <trkpt lat="45.04609" lon="3.5172">
        <ele>658.16</ele>
        <time>2016-10-30T13:08:01Z</time>
      </trkpt>
      <trkpt lat="45.04623" lon="3.51742">
        <ele>658.16</ele>
        <time>2016-10-30T13:08:17Z</time>
      </trkpt>
      <trkpt lat="45.04634" lon="3.51765">
        <ele>654.8</ele>
        <time>2016-10-30T13:08:31Z</time>
      </trkpt>
      <trkpt lat="45.04642" lon="3.51786">
        <ele>656.24</ele>
        <time>2016-10-30T13:08:44Z</time>
      </trkpt>
      <trkpt lat="45.04652" lon="3.5181">
        <ele>655.76</ele>
        <time>2016-10-30T13:08:57Z</time>
      </trkpt>
      <trkpt lat="45.04657" lon="3.51827">
        <ele>654.8</ele>
        <time>2016-10-30T13:09:07Z</time>
      </trkpt>
      <trkpt lat="45.04659" lon="3.51832">
        <ele>654.31</ele>
        <time>2016-10-30T13:09:10Z</time>
      </trkpt>
      <trkpt lat="45.04661" lon="3.51843">
        <ele>654.31</ele>
        <time>2016-10-30T13:09:15Z</time>
      </trkpt>
      <trkpt lat="45.04666" lon="3.51875">
        <ele>651.91</ele>
        <time>2016-10-30T13:09:31Z</time>
      </trkpt>
      <trkpt lat="45.04667" lon="3.51908">
        <ele>649.51</ele>
        <time>2016-10-30T13:09:48Z</time>
      </trkpt>
      <trkpt lat="45.04665" lon="3.51914">
        <ele>649.03</ele>
        <time>2016-10-30T13:09:51Z</time>
      </trkpt>
      <trkpt lat="45.04666" lon="3.51917">
        <ele>648.55</ele>
        <time>2016-10-30T13:09:53Z</time>
      </trkpt>
      <trkpt lat="45.04664" lon="3.51954">
        <ele>645.18</ele>
        <time>2016-10-30T13:10:12Z</time>
      </trkpt>
      <trkpt lat="45.04665" lon="3.51991">
        <ele>642.3</ele>
        <time>2016-10-30T13:10:31Z</time>
      </trkpt>
      <trkpt lat="45.04669" lon="3.52023">
        <ele>640.38</ele>
        <time>2016-10-30T13:10:48Z</time>
      </trkpt>
      <trkpt lat="45.04672" lon="3.52062">
        <ele>638.93</ele>
        <time>2016-10-30T13:11:08Z</time>
      </trkpt>
      <trkpt lat="45.04676" lon="3.52102">
        <ele>636.53</ele>
        <time>2016-10-30T13:11:28Z</time>
      </trkpt>
      <trkpt lat="45.04679" lon="3.52138">
        <ele>635.09</ele>
        <time>2016-10-30T13:11:47Z</time>
      </trkpt>
      <trkpt lat="45.0468" lon="3.52184">
        <ele>632.68</ele>
        <time>2016-10-30T13:12:11Z</time>
      </trkpt>
      <trkpt lat="45.04679" lon="3.52226">
        <ele>630.28</ele>
        <time>2016-10-30T13:12:32Z</time>
      </trkpt>
      <trkpt lat="45.04681" lon="3.52256">
        <ele>629.8</ele>
        <time>2016-10-30T13:12:49Z</time>
      </trkpt>
      <trkpt lat="45.04681" lon="3.52261">
        <ele>629.32</ele>
        <time>2016-10-30T13:13:01Z</time>
      </trkpt>
      <trkpt lat="45.04681" lon="3.5226">
        <ele>629.32</ele>
        <time>2016-10-30T13:13:16Z</time>
      </trkpt>
      <trkpt lat="45.04684" lon="3.52276">
        <ele>628.36</ele>
        <time>2016-10-30T13:13:30Z</time>
      </trkpt>
      <trkpt lat="45.04687" lon="3.52304">
        <ele>629.32</ele>
        <time>2016-10-30T13:13:47Z</time>
      </trkpt>
      <trkpt lat="45.04688" lon="3.52309">
        <ele>629.8</ele>
        <time>2016-10-30T13:13:51Z</time>
      </trkpt>
      <trkpt lat="45.04693" lon="3.52337">
        <ele>628.84</ele>
        <time>2016-10-30T13:14:06Z</time>
      </trkpt>
      <trkpt lat="45.04698" lon="3.52376">
        <ele>624.99</ele>
        <time>2016-10-30T13:14:25Z</time>
      </trkpt>
      <trkpt lat="45.047" lon="3.52391">
        <ele>623.55</ele>
        <time>2016-10-30T13:14:33Z</time>
      </trkpt>
      <trkpt lat="45.04704" lon="3.52424">
        <ele>620.67</ele>
        <time>2016-10-30T13:14:50Z</time>
      </trkpt>
      <trkpt lat="45.04708" lon="3.52455">
        <ele>621.15</ele>
        <time>2016-10-30T13:15:06Z</time>
      </trkpt>
      <trkpt lat="45.04714" lon="3.52484">
        <ele>619.71</ele>
        <time>2016-10-30T13:15:21Z</time>
      </trkpt>
      <trkpt lat="45.04721" lon="3.52521">
        <ele>619.23</ele>
        <time>2016-10-30T13:15:40Z</time>
      </trkpt>
      <trkpt lat="45.04725" lon="3.52553">
        <ele>618.75</ele>
        <time>2016-10-30T13:15:56Z</time>
      </trkpt>
      <trkpt lat="45.0473" lon="3.52588">
        <ele>616.34</ele>
        <time>2016-10-30T13:16:13Z</time>
      </trkpt>
      <trkpt lat="45.04733" lon="3.52623">
        <ele>614.42</ele>
        <time>2016-10-30T13:16:31Z</time>
      </trkpt>
      <trkpt lat="45.0474" lon="3.52652">
        <ele>615.38</ele>
        <time>2016-10-30T13:16:48Z</time>
      </trkpt>
      <trkpt lat="45.04741" lon="3.52658">
        <ele>615.86</ele>
        <time>2016-10-30T13:16:54Z</time>
      </trkpt>
      <trkpt lat="45.04744" lon="3.52655">
        <ele>615.38</ele>
        <time>2016-10-30T13:16:59Z</time>
      </trkpt>
      <trkpt lat="45.04752" lon="3.52622">
        <ele>612.02</ele>
        <time>2016-10-30T13:17:18Z</time>
      </trkpt>
      <trkpt lat="45.04752" lon="3.5262">
        <ele>612.02</ele>
        <time>2016-10-30T13:17:19Z</time>
      </trkpt>
      <trkpt lat="45.04758" lon="3.52582">
        <ele>609.61</ele>
        <time>2016-10-30T13:17:38Z</time>
      </trkpt>
      <trkpt lat="45.04765" lon="3.52553">
        <ele>606.73</ele>
        <time>2016-10-30T13:17:53Z</time>
      </trkpt>
      <trkpt lat="45.04772" lon="3.52524">
        <ele>605.77</ele>
        <time>2016-10-30T13:18:09Z</time>
      </trkpt>
      <trkpt lat="45.04774" lon="3.52513">
        <ele>605.77</ele>
        <time>2016-10-30T13:18:15Z</time>
      </trkpt>
      <trkpt lat="45.04785" lon="3.52472">
        <ele>602.4</ele>
        <time>2016-10-30T13:18:35Z</time>
      </trkpt>
      <trkpt lat="45.04793" lon="3.52447">
        <ele>601.44</ele>
        <time>2016-10-30T13:18:50Z</time>
      </trkpt>
      <trkpt lat="45.048" lon="3.52414">
        <ele>600.96</ele>
        <time>2016-10-30T13:19:06Z</time>
      </trkpt>
      <trkpt lat="45.0481" lon="3.52397">
        <ele>598.56</ele>
        <time>2016-10-30T13:19:17Z</time>
      </trkpt>
      <trkpt lat="45.04815" lon="3.52401">
        <ele>597.6</ele>
        <time>2016-10-30T13:19:21Z</time>
      </trkpt>
      <trkpt lat="45.04818" lon="3.52411">
        <ele>598.56</ele>
        <time>2016-10-30T13:19:27Z</time>
      </trkpt>
      <trkpt lat="45.04822" lon="3.52447">
        <ele>597.6</ele>
        <time>2016-10-30T13:19:46Z</time>
      </trkpt>
      <trkpt lat="45.04823" lon="3.52453">
        <ele>597.12</ele>
        <time>2016-10-30T13:19:49Z</time>
      </trkpt>
      <trkpt lat="45.04831" lon="3.52453">
        <ele>597.12</ele>
        <time>2016-10-30T13:19:56Z</time>
      </trkpt>
      <trkpt lat="45.04849" lon="3.52418">
        <ele>592.79</ele>
        <time>2016-10-30T13:20:17Z</time>
      </trkpt>
      <trkpt lat="45.04864" lon="3.52387">
        <ele>590.87</ele>
        <time>2016-10-30T13:20:34Z</time>
      </trkpt>
      <trkpt lat="45.04876" lon="3.52351">
        <ele>587.98</ele>
        <time>2016-10-30T13:20:54Z</time>
      </trkpt>
      <trkpt lat="45.04883" lon="3.52315">
        <ele>586.06</ele>
        <time>2016-10-30T13:21:13Z</time>
      </trkpt>
      <trkpt lat="45.04885" lon="3.52304">
        <ele>585.58</ele>
        <time>2016-10-30T13:21:20Z</time>
      </trkpt>
      <trkpt lat="45.04889" lon="3.52274">
        <ele>585.1</ele>
        <time>2016-10-30T13:21:36Z</time>
      </trkpt>
      <trkpt lat="45.04891" lon="3.52245">
        <ele>583.18</ele>
        <time>2016-10-30T13:21:53Z</time>
      </trkpt>
      <trkpt lat="45.04893" lon="3.52232">
        <ele>582.22</ele>
        <time>2016-10-30T13:22:04Z</time>
      </trkpt>
      <trkpt lat="45.04897" lon="3.52201">
        <ele>581.25</ele>
        <time>2016-10-30T13:22:21Z</time>
      </trkpt>
      <trkpt lat="45.04915" lon="3.5218">
        <ele>579.81</ele>
        <time>2016-10-30T13:22:38Z</time>
      </trkpt>
      <trkpt lat="45.04935" lon="3.52167">
        <ele>580.77</ele>
        <time>2016-10-30T13:22:54Z</time>
      </trkpt>
      <trkpt lat="45.04956" lon="3.52153">
        <ele>580.29</ele>
        <time>2016-10-30T13:23:10Z</time>
      </trkpt>
      <trkpt lat="45.04975" lon="3.52133">
        <ele>582.7</ele>
        <time>2016-10-30T13:23:29Z</time>
      </trkpt>
      <trkpt lat="45.04977" lon="3.52132">
        <ele>582.7</ele>
        <time>2016-10-30T13:23:31Z</time>
      </trkpt>
      <trkpt lat="45.04996" lon="3.52122">
        <ele>585.1</ele>
        <time>2016-10-30T13:23:48Z</time>
      </trkpt>
      <trkpt lat="45.04998" lon="3.52123">
        <ele>586.54</ele>
        <time>2016-10-30T13:23:51Z</time>
      </trkpt>
      <trkpt lat="45.05001" lon="3.52131">
        <ele>584.14</ele>
        <time>2016-10-30T13:24:03Z</time>
      </trkpt>
      <trkpt lat="45.05003" lon="3.52138">
        <ele>584.14</ele>
        <time>2016-10-30T13:24:08Z</time>
      </trkpt>
      <trkpt lat="45.05005" lon="3.52142">
        <ele>586.06</ele>
        <time>2016-10-30T13:24:20Z</time>
      </trkpt>
      <trkpt lat="45.05016" lon="3.52171">
        <ele>587.02</ele>
        <time>2016-10-30T13:24:38Z</time>
      </trkpt>
      <trkpt lat="45.05021" lon="3.52197">
        <ele>587.02</ele>
        <time>2016-10-30T13:24:54Z</time>
      </trkpt>
      <trkpt lat="45.05022" lon="3.52208">
        <ele>588.46</ele>
        <time>2016-10-30T13:25:01Z</time>
      </trkpt>
      <trkpt lat="45.05024" lon="3.52244">
        <ele>587.5</ele>
        <time>2016-10-30T13:25:20Z</time>
      </trkpt>
      <trkpt lat="45.05026" lon="3.52272">
        <ele>588.95</ele>
        <time>2016-10-30T13:25:36Z</time>
      </trkpt>
      <trkpt lat="45.05024" lon="3.52291">
        <ele>590.87</ele>
        <time>2016-10-30T13:25:50Z</time>
      </trkpt>
      <trkpt lat="45.05023" lon="3.52292">
        <ele>590.87</ele>
        <time>2016-10-30T13:25:51Z</time>
      </trkpt>
      <trkpt lat="45.05022" lon="3.52295">
        <ele>590.87</ele>
        <time>2016-10-30T13:25:54Z</time>
      </trkpt>
      <trkpt lat="45.05023" lon="3.52323">
        <ele>594.71</ele>
        <time>2016-10-30T13:26:11Z</time>
      </trkpt>
      <trkpt lat="45.05024" lon="3.52324">
        <ele>594.71</ele>
        <time>2016-10-30T13:26:12Z</time>
      </trkpt>
      <trkpt lat="45.05037" lon="3.52319">
        <ele>598.08</ele>
        <time>2016-10-30T13:26:27Z</time>
      </trkpt>
      <trkpt lat="45.05038" lon="3.5232">
        <ele>598.56</ele>
        <time>2016-10-30T13:26:28Z</time>
      </trkpt>
      <trkpt lat="45.0504" lon="3.52332">
        <ele>600.96</ele>
        <time>2016-10-30T13:26:39Z</time>
      </trkpt>
      <trkpt lat="45.05051" lon="3.52351">
        <ele>603.85</ele>
        <time>2016-10-30T13:26:54Z</time>
      </trkpt>
      <trkpt lat="45.0506" lon="3.52373">
        <ele>603.36</ele>
        <time>2016-10-30T13:27:07Z</time>
      </trkpt>
      <trkpt lat="45.0507" lon="3.52397">
        <ele>607.69</ele>
        <time>2016-10-30T13:27:22Z</time>
      </trkpt>
      <trkpt lat="45.05081" lon="3.52417">
        <ele>612.5</ele>
        <time>2016-10-30T13:27:35Z</time>
      </trkpt>
      <trkpt lat="45.05087" lon="3.52428">
        <ele>619.23</ele>
        <time>2016-10-30T13:27:45Z</time>
      </trkpt>
      <trkpt lat="45.051" lon="3.52442">
        <ele>625.96</ele>
        <time>2016-10-30T13:27:59Z</time>
      </trkpt>
      <trkpt lat="45.05104" lon="3.52445">
        <ele>627.4</ele>
        <time>2016-10-30T13:28:02Z</time>
      </trkpt>
      <trkpt lat="45.0512" lon="3.52456">
        <ele>633.17</ele>
        <time>2016-10-30T13:28:16Z</time>
      </trkpt>
      <trkpt lat="45.05129" lon="3.5246">
        <ele>634.61</ele>
        <time>2016-10-30T13:28:25Z</time>
      </trkpt>
      <trkpt lat="45.05146" lon="3.52462">
        <ele>639.89</ele>
        <time>2016-10-30T13:28:37Z</time>
      </trkpt>
      <trkpt lat="45.05151" lon="3.52464">
        <ele>642.3</ele>
        <time>2016-10-30T13:28:41Z</time>
      </trkpt>
      <trkpt lat="45.0516" lon="3.52466">
        <ele>645.66</ele>
        <time>2016-10-30T13:28:48Z</time>
      </trkpt>
      <trkpt lat="45.05166" lon="3.5247">
        <ele>647.59</ele>
        <time>2016-10-30T13:28:54Z</time>
      </trkpt>
      <trkpt lat="45.05177" lon="3.52475">
        <ele>650.95</ele>
        <time>2016-10-30T13:29:06Z</time>
      </trkpt>
      <trkpt lat="45.05189" lon="3.52489">
        <ele>653.35</ele>
        <time>2016-10-30T13:29:20Z</time>
      </trkpt>
      <trkpt lat="45.05193" lon="3.52493">
        <ele>653.83</ele>
        <time>2016-10-30T13:29:23Z</time>
      </trkpt>
      <trkpt lat="45.05195" lon="3.52497">
        <ele>653.83</ele>
        <time>2016-10-30T13:29:26Z</time>
      </trkpt>
      <trkpt lat="45.05199" lon="3.52503">
        <ele>653.83</ele>
        <time>2016-10-30T13:29:30Z</time>
      </trkpt>
      <trkpt lat="45.05202" lon="3.52505">
        <ele>654.31</ele>
        <time>2016-10-30T13:29:33Z</time>
      </trkpt>
      <trkpt lat="45.05205" lon="3.52506">
        <ele>653.83</ele>
        <time>2016-10-30T13:29:36Z</time>
      </trkpt>
      <trkpt lat="45.05207" lon="3.52507">
        <ele>653.83</ele>
        <time>2016-10-30T13:29:38Z</time>
      </trkpt>
      <trkpt lat="45.05213" lon="3.52509">
        <ele>653.35</ele>
        <time>2016-10-30T13:29:44Z</time>
      </trkpt>
      <trkpt lat="45.05218" lon="3.52512">
        <ele>653.83</ele>
        <time>2016-10-30T13:29:49Z</time>
      </trkpt>
      <trkpt lat="45.05232" lon="3.52526">
        <ele>657.2</ele>
        <time>2016-10-30T13:30:02Z</time>
      </trkpt>
      <trkpt lat="45.05247" lon="3.52532">
        <ele>662.97</ele>
        <time>2016-10-30T13:30:15Z</time>
      </trkpt>
      <trkpt lat="45.05256" lon="3.52535">
        <ele>664.41</ele>
        <time>2016-10-30T13:30:23Z</time>
      </trkpt>
      <trkpt lat="45.05268" lon="3.52536">
        <ele>669.22</ele>
        <time>2016-10-30T13:30:31Z</time>
      </trkpt>
      <trkpt lat="45.05273" lon="3.52539">
        <ele>671.62</ele>
        <time>2016-10-30T13:30:35Z</time>
      </trkpt>
      <trkpt lat="45.05283" lon="3.52547">
        <ele>674.98</ele>
        <time>2016-10-30T13:30:43Z</time>
      </trkpt>
      <trkpt lat="45.05285" lon="3.52567">
        <ele>678.35</ele>
        <time>2016-10-30T13:30:55Z</time>
      </trkpt>
      <trkpt lat="45.05289" lon="3.52592">
        <ele>678.83</ele>
        <time>2016-10-30T13:31:07Z</time>
      </trkpt>
      <trkpt lat="45.0529" lon="3.52599">
        <ele>678.83</ele>
        <time>2016-10-30T13:31:10Z</time>
      </trkpt>
      <trkpt lat="45.05295" lon="3.52624">
        <ele>681.71</ele>
        <time>2016-10-30T13:31:24Z</time>
      </trkpt>
      <trkpt lat="45.05296" lon="3.52626">
        <ele>681.71</ele>
        <time>2016-10-30T13:31:25Z</time>
      </trkpt>
      <trkpt lat="45.05301" lon="3.52652">
        <ele>684.12</ele>
        <time>2016-10-30T13:31:39Z</time>
      </trkpt>
      <trkpt lat="45.05307" lon="3.5268">
        <ele>684.12</ele>
        <time>2016-10-30T13:31:54Z</time>
      </trkpt>
      <trkpt lat="45.05309" lon="3.52708">
        <ele>687.48</ele>
        <time>2016-10-30T13:32:08Z</time>
      </trkpt>
      <trkpt lat="45.05311" lon="3.52713">
        <ele>687.48</ele>
        <time>2016-10-30T13:32:11Z</time>
      </trkpt>
      <trkpt lat="45.05317" lon="3.52734">
        <ele>689.4</ele>
        <time>2016-10-30T13:32:24Z</time>
      </trkpt>
      <trkpt lat="45.05319" lon="3.52745">
        <ele>689.4</ele>
        <time>2016-10-30T13:32:31Z</time>
      </trkpt>
      <trkpt lat="45.0532" lon="3.52754">
        <ele>688.92</ele>
        <time>2016-10-30T13:32:36Z</time>
      </trkpt>
      <trkpt lat="45.05324" lon="3.5278">
        <ele>689.88</ele>
        <time>2016-10-30T13:32:51Z</time>
      </trkpt>
      <trkpt lat="45.05329" lon="3.52787">
        <ele>690.36</ele>
        <time>2016-10-30T13:32:57Z</time>
      </trkpt>
      <trkpt lat="45.05349" lon="3.52794">
        <ele>690.36</ele>
        <time>2016-10-30T13:33:14Z</time>
      </trkpt>
      <trkpt lat="45.05376" lon="3.52797">
        <ele>689.88</ele>
        <time>2016-10-30T13:33:34Z</time>
      </trkpt>
      <trkpt lat="45.05397" lon="3.52799">
        <ele>690.36</ele>
        <time>2016-10-30T13:33:50Z</time>
      </trkpt>
      <trkpt lat="45.05414" lon="3.52801">
        <ele>690.84</ele>
        <time>2016-10-30T13:34:05Z</time>
      </trkpt>
      <trkpt lat="45.0543" lon="3.52801">
        <ele>691.81</ele>
        <time>2016-10-30T13:34:18Z</time>
      </trkpt>
      <trkpt lat="45.05454" lon="3.52795">
        <ele>692.77</ele>
        <time>2016-10-30T13:34:38Z</time>
      </trkpt>
      <trkpt lat="45.05473" lon="3.5279">
        <ele>694.69</ele>
        <time>2016-10-30T13:34:52Z</time>
      </trkpt>
      <trkpt lat="45.05486" lon="3.52789">
        <ele>695.17</ele>
        <time>2016-10-30T13:35:04Z</time>
      </trkpt>
      <trkpt lat="45.05496" lon="3.52786">
        <ele>694.69</ele>
        <time>2016-10-30T13:35:11Z</time>
      </trkpt>
      <trkpt lat="45.05514" lon="3.52779">
        <ele>700.94</ele>
        <time>2016-10-30T13:35:22Z</time>
      </trkpt>
      <trkpt lat="45.05535" lon="3.52765">
        <ele>700.94</ele>
        <time>2016-10-30T13:35:37Z</time>
      </trkpt>
      <trkpt lat="45.05555" lon="3.52752">
        <ele>698.53</ele>
        <time>2016-10-30T13:35:54Z</time>
      </trkpt>
      <trkpt lat="45.05565" lon="3.52745">
        <ele>698.05</ele>
        <time>2016-10-30T13:36:06Z</time>
      </trkpt>
      <trkpt lat="45.05567" lon="3.52749">
        <ele>697.57</ele>
        <time>2016-10-30T13:36:20Z</time>
      </trkpt>
      <trkpt lat="45.05568" lon="3.52749">
        <ele>698.05</ele>
        <time>2016-10-30T13:36:42Z</time>
      </trkpt>
      <trkpt lat="45.05566" lon="3.5275">
        <ele>698.05</ele>
        <time>2016-10-30T13:36:58Z</time>
      </trkpt>
      <trkpt lat="45.05566" lon="3.52748">
        <ele>698.05</ele>
        <time>2016-10-30T13:37:25Z</time>
      </trkpt>
      <trkpt lat="45.05569" lon="3.52745">
        <ele>698.05</ele>
        <time>2016-10-30T13:37:37Z</time>
      </trkpt>
      <trkpt lat="45.05579" lon="3.52734">
        <ele>696.61</ele>
        <time>2016-10-30T13:37:52Z</time>
      </trkpt>
      <trkpt lat="45.0558" lon="3.52734">
        <ele>695.65</ele>
        <time>2016-10-30T13:38:09Z</time>
      </trkpt>
      <trkpt lat="45.0558" lon="3.52734">
        <ele>696.61</ele>
        <time>2016-10-30T13:38:23Z</time>
      </trkpt>
      <trkpt lat="45.05583" lon="3.52735">
        <ele>695.17</ele>
        <time>2016-10-30T13:38:37Z</time>
      </trkpt>
      <trkpt lat="45.05591" lon="3.52727">
        <ele>694.69</ele>
        <time>2016-10-30T13:38:53Z</time>
      </trkpt>
      <trkpt lat="45.05601" lon="3.52715">
        <ele>694.69</ele>
        <time>2016-10-30T13:39:04Z</time>
      </trkpt>
      <trkpt lat="45.05611" lon="3.52698">
        <ele>690.84</ele>
        <time>2016-10-30T13:39:16Z</time>
      </trkpt>
      <trkpt lat="45.05624" lon="3.52679">
        <ele>688.92</ele>
        <time>2016-10-30T13:39:30Z</time>
      </trkpt>
      <trkpt lat="45.05634" lon="3.52666">
        <ele>690.84</ele>
        <time>2016-10-30T13:39:42Z</time>
      </trkpt>
      <trkpt lat="45.05636" lon="3.52662">
        <ele>690.36</ele>
        <time>2016-10-30T13:39:56Z</time>
      </trkpt>
      <trkpt lat="45.05637" lon="3.52661">
        <ele>690.36</ele>
        <time>2016-10-30T13:40:12Z</time>
      </trkpt>
      <trkpt lat="45.05637" lon="3.52662">
        <ele>690.36</ele>
        <time>2016-10-30T13:40:27Z</time>
      </trkpt>
      <trkpt lat="45.05637" lon="3.52661">
        <ele>690.36</ele>
        <time>2016-10-30T13:40:47Z</time>
      </trkpt>
      <trkpt lat="45.05638" lon="3.52661">
        <ele>689.88</ele>
        <time>2016-10-30T13:41:00Z</time>
      </trkpt>
      <trkpt lat="45.0564" lon="3.52658">
        <ele>689.88</ele>
        <time>2016-10-30T13:41:11Z</time>
      </trkpt>
      <trkpt lat="45.05642" lon="3.52656">
        <ele>689.4</ele>
        <time>2016-10-30T13:41:23Z</time>
      </trkpt>
      <trkpt lat="45.05643" lon="3.52656">
        <ele>689.4</ele>
        <time>2016-10-30T13:41:41Z</time>
      </trkpt>
      <trkpt lat="45.05643" lon="3.52656">
        <ele>689.4</ele>
        <time>2016-10-30T13:42:01Z</time>
      </trkpt>
      <trkpt lat="45.05643" lon="3.52657">
        <ele>689.88</ele>
        <time>2016-10-30T13:42:14Z</time>
      </trkpt>
      <trkpt lat="45.05643" lon="3.52658">
        <ele>690.36</ele>
        <time>2016-10-30T13:42:35Z</time>
      </trkpt>
      <trkpt lat="45.05641" lon="3.52659">
        <ele>690.36</ele>
        <time>2016-10-30T13:42:47Z</time>
      </trkpt>
      <trkpt lat="45.05644" lon="3.52657">
        <ele>690.36</ele>
        <time>2016-10-30T13:43:02Z</time>
      </trkpt>
      <trkpt lat="45.05644" lon="3.52657">
        <ele>690.36</ele>
        <time>2016-10-30T13:43:21Z</time>
      </trkpt>
      <trkpt lat="45.05642" lon="3.52657">
        <ele>690.36</ele>
        <time>2016-10-30T13:43:39Z</time>
      </trkpt>
      <trkpt lat="45.05642" lon="3.52657">
        <ele>690.36</ele>
        <time>2016-10-30T13:43:56Z</time>
      </trkpt>
      <trkpt lat="45.05643" lon="3.52657">
        <ele>689.88</ele>
        <time>2016-10-30T13:44:20Z</time>
      </trkpt>
      <trkpt lat="45.05642" lon="3.52657">
        <ele>689.88</ele>
        <time>2016-10-30T13:44:36Z</time>
      </trkpt>
      <trkpt lat="45.05642" lon="3.52658">
        <ele>689.88</ele>
        <time>2016-10-30T13:44:49Z</time>
      </trkpt>
      <trkpt lat="45.05642" lon="3.52657">
        <ele>689.88</ele>
        <time>2016-10-30T13:45:07Z</time>
      </trkpt>
      <trkpt lat="45.05641" lon="3.52659">
        <ele>689.88</ele>
        <time>2016-10-30T13:45:22Z</time>
      </trkpt>
      <trkpt lat="45.05641" lon="3.52658">
        <ele>689.88</ele>
        <time>2016-10-30T13:45:35Z</time>
      </trkpt>
      <trkpt lat="45.05641" lon="3.52658">
        <ele>689.88</ele>
        <time>2016-10-30T13:45:52Z</time>
      </trkpt>
      <trkpt lat="45.05641" lon="3.52658">
        <ele>689.88</ele>
        <time>2016-10-30T13:46:04Z</time>
      </trkpt>
      <trkpt lat="45.05642" lon="3.52655">
        <ele>689.88</ele>
        <time>2016-10-30T13:46:20Z</time>
      </trkpt>
      <trkpt lat="45.05646" lon="3.5265">
        <ele>689.88</ele>
        <time>2016-10-30T13:46:29Z</time>
      </trkpt>
      <trkpt lat="45.0566" lon="3.52633">
        <ele>690.84</ele>
        <time>2016-10-30T13:46:46Z</time>
      </trkpt>
      <trkpt lat="45.05677" lon="3.52613">
        <ele>691.33</ele>
        <time>2016-10-30T13:47:02Z</time>
      </trkpt>
      <trkpt lat="45.05694" lon="3.52592">
        <ele>692.77</ele>
        <time>2016-10-30T13:47:19Z</time>
      </trkpt>
      <trkpt lat="45.05699" lon="3.52588">
        <ele>692.77</ele>
        <time>2016-10-30T13:47:24Z</time>
      </trkpt>
      <trkpt lat="45.05715" lon="3.52564">
        <ele>690.84</ele>
        <time>2016-10-30T13:47:39Z</time>
      </trkpt>
      <trkpt lat="45.05731" lon="3.52528">
        <ele>688.44</ele>
        <time>2016-10-30T13:48:00Z</time>
      </trkpt>
      <trkpt lat="45.05738" lon="3.52498">
        <ele>689.88</ele>
        <time>2016-10-30T13:48:16Z</time>
      </trkpt>
      <trkpt lat="45.05741" lon="3.52467">
        <ele>691.33</ele>
        <time>2016-10-30T13:48:33Z</time>
      </trkpt>
      <trkpt lat="45.05741" lon="3.52437">
        <ele>694.69</ele>
        <time>2016-10-30T13:48:49Z</time>
      </trkpt>
      <trkpt lat="45.05737" lon="3.52407">
        <ele>696.61</ele>
        <time>2016-10-30T13:49:06Z</time>
      </trkpt>
      <trkpt lat="45.05731" lon="3.5238">
        <ele>696.61</ele>
        <time>2016-10-30T13:49:19Z</time>
      </trkpt>
      <trkpt lat="45.05745" lon="3.52354">
        <ele>694.21</ele>
        <time>2016-10-30T13:49:33Z</time>
      </trkpt>
      <trkpt lat="45.05769" lon="3.52344">
        <ele>690.84</ele>
        <time>2016-10-30T13:49:50Z</time>
      </trkpt>
      <trkpt lat="45.05785" lon="3.52342">
        <ele>690.84</ele>
        <time>2016-10-30T13:50:01Z</time>
      </trkpt>
      <trkpt lat="45.05796" lon="3.52343">
        <ele>691.81</ele>
        <time>2016-10-30T13:50:09Z</time>
      </trkpt>
      <trkpt lat="45.05816" lon="3.52332">
        <ele>694.69</ele>
        <time>2016-10-30T13:50:24Z</time>
      </trkpt>
      <trkpt lat="45.05836" lon="3.52307">
        <ele>692.77</ele>
        <time>2016-10-30T13:50:43Z</time>
      </trkpt>
      <trkpt lat="45.05839" lon="3.52301">
        <ele>692.29</ele>
        <time>2016-10-30T13:50:47Z</time>
      </trkpt>
      <trkpt lat="45.05845" lon="3.52269">
        <ele>690.36</ele>
        <time>2016-10-30T13:51:04Z</time>
      </trkpt>
      <trkpt lat="45.05846" lon="3.52242">
        <ele>691.33</ele>
        <time>2016-10-30T13:51:19Z</time>
      </trkpt>
      <trkpt lat="45.05843" lon="3.52218">
        <ele>693.25</ele>
        <time>2016-10-30T13:51:34Z</time>
      </trkpt>
      <trkpt lat="45.05842" lon="3.5219">
        <ele>697.57</ele>
        <time>2016-10-30T13:51:50Z</time>
      </trkpt>
      <trkpt lat="45.05842" lon="3.52184">
        <ele>698.53</ele>
        <time>2016-10-30T13:51:54Z</time>
      </trkpt>
      <trkpt lat="45.0586" lon="3.52148">
        <ele>697.57</ele>
        <time>2016-10-30T13:52:09Z</time>
      </trkpt>
      <trkpt lat="45.05876" lon="3.52157">
        <ele>695.65</ele>
        <time>2016-10-30T13:52:25Z</time>
      </trkpt>
      <trkpt lat="45.05882" lon="3.52164">
        <ele>694.21</ele>
        <time>2016-10-30T13:52:32Z</time>
      </trkpt>
      <trkpt lat="45.05895" lon="3.52176">
        <ele>689.4</ele>
        <time>2016-10-30T13:52:46Z</time>
      </trkpt>
      <trkpt lat="45.05911" lon="3.52194">
        <ele>682.67</ele>
        <time>2016-10-30T13:53:02Z</time>
      </trkpt>
      <trkpt lat="45.05911" lon="3.52195">
        <ele>682.67</ele>
        <time>2016-10-30T13:53:03Z</time>
      </trkpt>
      <trkpt lat="45.05922" lon="3.5221">
        <ele>680.75</ele>
        <time>2016-10-30T13:53:18Z</time>
      </trkpt>
      <trkpt lat="45.05935" lon="3.52226">
        <ele>680.27</ele>
        <time>2016-10-30T13:53:31Z</time>
      </trkpt>
      <trkpt lat="45.05946" lon="3.52234">
        <ele>680.27</ele>
        <time>2016-10-30T13:53:40Z</time>
      </trkpt>
      <trkpt lat="45.0596" lon="3.52241">
        <ele>677.87</ele>
        <time>2016-10-30T13:53:52Z</time>
      </trkpt>
      <trkpt lat="45.05981" lon="3.52251">
        <ele>675.94</ele>
        <time>2016-10-30T13:54:07Z</time>
      </trkpt>
      <trkpt lat="45.05999" lon="3.52273">
        <ele>676.91</ele>
        <time>2016-10-30T13:54:20Z</time>
      </trkpt>
      <trkpt lat="45.06016" lon="3.5232">
        <ele>682.19</ele>
        <time>2016-10-30T13:54:38Z</time>
      </trkpt>
      <trkpt lat="45.06023" lon="3.52359">
        <ele>691.81</ele>
        <time>2016-10-30T13:54:57Z</time>
      </trkpt>
      <trkpt lat="45.06029" lon="3.52395">
        <ele>696.13</ele>
        <time>2016-10-30T13:55:16Z</time>
      </trkpt>
      <trkpt lat="45.06032" lon="3.52416">
        <ele>695.65</ele>
        <time>2016-10-30T13:55:27Z</time>
      </trkpt>
      <trkpt lat="45.0604" lon="3.52449">
        <ele>691.81</ele>
        <time>2016-10-30T13:55:46Z</time>
      </trkpt>
      <trkpt lat="45.06057" lon="3.52471">
        <ele>689.4</ele>
        <time>2016-10-30T13:56:03Z</time>
      </trkpt>
      <trkpt lat="45.06073" lon="3.52482">
        <ele>687.48</ele>
        <time>2016-10-30T13:56:18Z</time>
      </trkpt>
      <trkpt lat="45.06083" lon="3.52487">
        <ele>687.48</ele>
        <time>2016-10-30T13:56:39Z</time>
      </trkpt>
      <trkpt lat="45.06107" lon="3.5249">
        <ele>685.08</ele>
        <time>2016-10-30T13:56:57Z</time>
      </trkpt>
      <trkpt lat="45.06127" lon="3.52496">
        <ele>686.04</ele>
        <time>2016-10-30T13:57:13Z</time>
      </trkpt>
      <trkpt lat="45.06148" lon="3.52512">
        <ele>683.63</ele>
        <time>2016-10-30T13:57:29Z</time>
      </trkpt>
      <trkpt lat="45.06161" lon="3.52533">
        <ele>685.56</ele>
        <time>2016-10-30T13:57:43Z</time>
      </trkpt>
      <trkpt lat="45.0617" lon="3.52557">
        <ele>687.96</ele>
        <time>2016-10-30T13:57:57Z</time>
      </trkpt>
      <trkpt lat="45.06172" lon="3.5258">
        <ele>687.96</ele>
        <time>2016-10-30T13:58:07Z</time>
      </trkpt>
      <trkpt lat="45.06176" lon="3.52592">
        <ele>688.44</ele>
        <time>2016-10-30T13:58:16Z</time>
      </trkpt>
      <trkpt lat="45.06179" lon="3.52597">
        <ele>687.96</ele>
        <time>2016-10-30T13:58:20Z</time>
      </trkpt>
      <trkpt lat="45.0618" lon="3.52615">
        <ele>688.92</ele>
        <time>2016-10-30T13:58:33Z</time>
      </trkpt>
      <trkpt lat="45.06176" lon="3.5264">
        <ele>693.25</ele>
        <time>2016-10-30T13:58:49Z</time>
      </trkpt>
      <trkpt lat="45.06166" lon="3.52666">
        <ele>695.65</ele>
        <time>2016-10-30T13:59:07Z</time>
      </trkpt>
      <trkpt lat="45.06154" lon="3.52694">
        <ele>697.09</ele>
        <time>2016-10-30T13:59:26Z</time>
      </trkpt>
      <trkpt lat="45.06153" lon="3.52695">
        <ele>696.61</ele>
        <time>2016-10-30T13:59:29Z</time>
      </trkpt>
      <trkpt lat="45.06151" lon="3.52701">
        <ele>697.09</ele>
        <time>2016-10-30T13:59:33Z</time>
      </trkpt>
      <trkpt lat="45.06143" lon="3.52725">
        <ele>698.53</ele>
        <time>2016-10-30T13:59:48Z</time>
      </trkpt>
      <trkpt lat="45.06137" lon="3.52752">
        <ele>700.94</ele>
        <time>2016-10-30T14:00:05Z</time>
      </trkpt>
      <trkpt lat="45.06137" lon="3.52781">
        <ele>702.38</ele>
        <time>2016-10-30T14:00:22Z</time>
      </trkpt>
      <trkpt lat="45.06143" lon="3.52798">
        <ele>703.82</ele>
        <time>2016-10-30T14:00:34Z</time>
      </trkpt>
      <trkpt lat="45.06156" lon="3.52824">
        <ele>704.3</ele>
        <time>2016-10-30T14:00:52Z</time>
      </trkpt>
      <trkpt lat="45.06172" lon="3.52848">
        <ele>704.78</ele>
        <time>2016-10-30T14:01:10Z</time>
      </trkpt>
      <trkpt lat="45.06188" lon="3.5287">
        <ele>706.71</ele>
        <time>2016-10-30T14:01:27Z</time>
      </trkpt>
      <trkpt lat="45.06202" lon="3.5289">
        <ele>708.15</ele>
        <time>2016-10-30T14:01:42Z</time>
      </trkpt>
      <trkpt lat="45.0622" lon="3.52914">
        <ele>711.03</ele>
        <time>2016-10-30T14:01:59Z</time>
      </trkpt>
      <trkpt lat="45.0624" lon="3.52941">
        <ele>713.44</ele>
        <time>2016-10-30T14:02:18Z</time>
      </trkpt>
      <trkpt lat="45.06254" lon="3.52963">
        <ele>712.95</ele>
        <time>2016-10-30T14:02:32Z</time>
      </trkpt>
      <trkpt lat="45.06269" lon="3.5299">
        <ele>713.44</ele>
        <time>2016-10-30T14:02:49Z</time>
      </trkpt>
      <trkpt lat="45.06273" lon="3.52999">
        <ele>714.88</ele>
        <time>2016-10-30T14:02:55Z</time>
      </trkpt>
      <trkpt lat="45.06285" lon="3.53017">
        <ele>717.76</ele>
        <time>2016-10-30T14:03:09Z</time>
      </trkpt>
      <trkpt lat="45.06303" lon="3.53033">
        <ele>719.2</ele>
        <time>2016-10-30T14:03:25Z</time>
      </trkpt>
      <trkpt lat="45.06322" lon="3.53049">
        <ele>716.8</ele>
        <time>2016-10-30T14:03:40Z</time>
      </trkpt>
      <trkpt lat="45.06337" lon="3.53062">
        <ele>718.24</ele>
        <time>2016-10-30T14:03:57Z</time>
      </trkpt>
      <trkpt lat="45.06353" lon="3.53087">
        <ele>717.28</ele>
        <time>2016-10-30T14:04:13Z</time>
      </trkpt>
      <trkpt lat="45.06359" lon="3.53097">
        <ele>717.28</ele>
        <time>2016-10-30T14:04:20Z</time>
      </trkpt>
      <trkpt lat="45.06364" lon="3.53105">
        <ele>717.76</ele>
        <time>2016-10-30T14:04:26Z</time>
      </trkpt>
      <trkpt lat="45.06365" lon="3.53108">
        <ele>717.76</ele>
        <time>2016-10-30T14:04:28Z</time>
      </trkpt>
      <trkpt lat="45.06369" lon="3.53118">
        <ele>719.2</ele>
        <time>2016-10-30T14:04:34Z</time>
      </trkpt>
      <trkpt lat="45.06384" lon="3.53142">
        <ele>720.16</ele>
        <time>2016-10-30T14:04:53Z</time>
      </trkpt>
      <trkpt lat="45.06388" lon="3.53146">
        <ele>718.72</ele>
        <time>2016-10-30T14:04:57Z</time>
      </trkpt>
      <trkpt lat="45.06393" lon="3.53149">
        <ele>718.24</ele>
        <time>2016-10-30T14:05:01Z</time>
      </trkpt>
      <trkpt lat="45.06414" lon="3.53156">
        <ele>715.36</ele>
        <time>2016-10-30T14:05:19Z</time>
      </trkpt>
      <trkpt lat="45.06433" lon="3.53154">
        <ele>718.72</ele>
        <time>2016-10-30T14:05:34Z</time>
      </trkpt>
      <trkpt lat="45.06456" lon="3.53153">
        <ele>715.36</ele>
        <time>2016-10-30T14:05:49Z</time>
      </trkpt>
      <trkpt lat="45.06483" lon="3.53152">
        <ele>708.15</ele>
        <time>2016-10-30T14:06:07Z</time>
      </trkpt>
      <trkpt lat="45.06512" lon="3.53143">
        <ele>699.98</ele>
        <time>2016-10-30T14:06:28Z</time>
      </trkpt>
      <trkpt lat="45.06536" lon="3.53139">
        <ele>694.21</ele>
        <time>2016-10-30T14:06:46Z</time>
      </trkpt>
      <trkpt lat="45.06543" lon="3.53143">
        <ele>693.73</ele>
        <time>2016-10-30T14:06:52Z</time>
      </trkpt>
      <trkpt lat="45.06538" lon="3.53171">
        <ele>693.73</ele>
        <time>2016-10-30T14:07:08Z</time>
      </trkpt>
      <trkpt lat="45.06524" lon="3.53207">
        <ele>693.73</ele>
        <time>2016-10-30T14:07:29Z</time>
      </trkpt>
      <trkpt lat="45.0651" lon="3.53251">
        <ele>692.29</ele>
        <time>2016-10-30T14:07:52Z</time>
      </trkpt>
      <trkpt lat="45.06505" lon="3.53287">
        <ele>694.69</ele>
        <time>2016-10-30T14:08:11Z</time>
      </trkpt>
      <trkpt lat="45.06494" lon="3.53313">
        <ele>697.09</ele>
        <time>2016-10-30T14:08:28Z</time>
      </trkpt>
      <trkpt lat="45.06482" lon="3.53345">
        <ele>697.09</ele>
        <time>2016-10-30T14:08:46Z</time>
      </trkpt>
      <trkpt lat="45.06474" lon="3.53366">
        <ele>695.65</ele>
        <time>2016-10-30T14:08:59Z</time>
      </trkpt>
      <trkpt lat="45.06466" lon="3.53372">
        <ele>693.25</ele>
        <time>2016-10-30T14:09:14Z</time>
      </trkpt>
      <trkpt lat="45.06466" lon="3.53371">
        <ele>692.29</ele>
        <time>2016-10-30T14:09:32Z</time>
      </trkpt>
      <trkpt lat="45.06465" lon="3.53374">
        <ele>690.84</ele>
        <time>2016-10-30T14:09:49Z</time>
      </trkpt>
      <trkpt lat="45.06465" lon="3.53375">
        <ele>690.36</ele>
        <time>2016-10-30T14:10:07Z</time>
      </trkpt>
      <trkpt lat="45.0646" lon="3.53392">
        <ele>693.73</ele>
        <time>2016-10-30T14:10:21Z</time>
      </trkpt>
      <trkpt lat="45.06451" lon="3.53413">
        <ele>694.69</ele>
        <time>2016-10-30T14:10:36Z</time>
      </trkpt>
      <trkpt lat="45.06443" lon="3.53435">
        <ele>694.21</ele>
        <time>2016-10-30T14:10:50Z</time>
      </trkpt>
      <trkpt lat="45.06442" lon="3.53437">
        <ele>694.21</ele>
        <time>2016-10-30T14:10:51Z</time>
      </trkpt>
      <trkpt lat="45.06426" lon="3.53459">
        <ele>690.36</ele>
        <time>2016-10-30T14:11:08Z</time>
      </trkpt>
      <trkpt lat="45.06407" lon="3.53476">
        <ele>688.92</ele>
        <time>2016-10-30T14:11:24Z</time>
      </trkpt>
      <trkpt lat="45.06396" lon="3.53487">
        <ele>687</ele>
        <time>2016-10-30T14:11:34Z</time>
      </trkpt>
      <trkpt lat="45.06396" lon="3.53492">
        <ele>686.04</ele>
        <time>2016-10-30T14:11:37Z</time>
      </trkpt>
      <trkpt lat="45.06395" lon="3.53515">
        <ele>681.23</ele>
        <time>2016-10-30T14:11:52Z</time>
      </trkpt>
      <trkpt lat="45.06398" lon="3.53544">
        <ele>676.42</ele>
        <time>2016-10-30T14:12:08Z</time>
      </trkpt>
      <trkpt lat="45.06394" lon="3.53565">
        <ele>673.54</ele>
        <time>2016-10-30T14:12:23Z</time>
      </trkpt>
      <trkpt lat="45.06391" lon="3.5357">
        <ele>672.58</ele>
        <time>2016-10-30T14:12:42Z</time>
      </trkpt>
      <trkpt lat="45.06381" lon="3.53596">
        <ele>671.14</ele>
        <time>2016-10-30T14:12:59Z</time>
      </trkpt>
      <trkpt lat="45.06374" lon="3.5363">
        <ele>670.18</ele>
        <time>2016-10-30T14:13:20Z</time>
      </trkpt>
      <trkpt lat="45.06367" lon="3.53663">
        <ele>669.22</ele>
        <time>2016-10-30T14:13:39Z</time>
      </trkpt>
      <trkpt lat="45.06361" lon="3.5369">
        <ele>669.22</ele>
        <time>2016-10-30T14:13:56Z</time>
      </trkpt>
      <trkpt lat="45.06355" lon="3.53726">
        <ele>667.77</ele>
        <time>2016-10-30T14:14:15Z</time>
      </trkpt>
      <trkpt lat="45.06352" lon="3.53764">
        <ele>666.33</ele>
        <time>2016-10-30T14:14:34Z</time>
      </trkpt>
      <trkpt lat="45.06349" lon="3.53799">
        <ele>666.33</ele>
        <time>2016-10-30T14:14:52Z</time>
      </trkpt>
      <trkpt lat="45.06349" lon="3.53808">
        <ele>667.29</ele>
        <time>2016-10-30T14:14:57Z</time>
      </trkpt>
      <trkpt lat="45.06348" lon="3.53815">
        <ele>668.25</ele>
        <time>2016-10-30T14:15:01Z</time>
      </trkpt>
      <trkpt lat="45.06342" lon="3.53845">
        <ele>670.66</ele>
        <time>2016-10-30T14:15:17Z</time>
      </trkpt>
      <trkpt lat="45.06335" lon="3.53873">
        <ele>670.18</ele>
        <time>2016-10-30T14:15:34Z</time>
      </trkpt>
      <trkpt lat="45.0633" lon="3.53891">
        <ele>671.62</ele>
        <time>2016-10-30T14:15:49Z</time>
      </trkpt>
      <trkpt lat="45.06319" lon="3.53929">
        <ele>671.62</ele>
        <time>2016-10-30T14:16:09Z</time>
      </trkpt>
      <trkpt lat="45.06314" lon="3.53956">
        <ele>671.62</ele>
        <time>2016-10-30T14:16:24Z</time>
      </trkpt>
      <trkpt lat="45.06312" lon="3.53979">
        <ele>675.46</ele>
        <time>2016-10-30T14:16:37Z</time>
      </trkpt>
      <trkpt lat="45.06312" lon="3.54004">
        <ele>677.39</ele>
        <time>2016-10-30T14:16:51Z</time>
      </trkpt>
      <trkpt lat="45.06313" lon="3.54032">
        <ele>675.94</ele>
        <time>2016-10-30T14:17:06Z</time>
      </trkpt>
      <trkpt lat="45.06311" lon="3.54058">
        <ele>672.58</ele>
        <time>2016-10-30T14:17:19Z</time>
      </trkpt>
      <trkpt lat="45.06311" lon="3.54092">
        <ele>669.7</ele>
        <time>2016-10-30T14:17:35Z</time>
      </trkpt>
      <trkpt lat="45.0631" lon="3.54126">
        <ele>661.52</ele>
        <time>2016-10-30T14:17:51Z</time>
      </trkpt>
      <trkpt lat="45.06311" lon="3.54156">
        <ele>655.76</ele>
        <time>2016-10-30T14:18:08Z</time>
      </trkpt>
      <trkpt lat="45.06317" lon="3.54186">
        <ele>652.39</ele>
        <time>2016-10-30T14:18:23Z</time>
      </trkpt>
      <trkpt lat="45.06319" lon="3.54219">
        <ele>650.47</ele>
        <time>2016-10-30T14:18:41Z</time>
      </trkpt>
      <trkpt lat="45.06301" lon="3.54247">
        <ele>648.07</ele>
        <time>2016-10-30T14:19:01Z</time>
      </trkpt>
      <trkpt lat="45.06288" lon="3.5427">
        <ele>645.18</ele>
        <time>2016-10-30T14:19:17Z</time>
      </trkpt>
      <trkpt lat="45.06269" lon="3.5429">
        <ele>641.34</ele>
        <time>2016-10-30T14:19:33Z</time>
      </trkpt>
      <trkpt lat="45.06262" lon="3.54295">
        <ele>639.89</ele>
        <time>2016-10-30T14:19:39Z</time>
      </trkpt>
      <trkpt lat="45.06252" lon="3.54299">
        <ele>638.45</ele>
        <time>2016-10-30T14:19:46Z</time>
      </trkpt>
      <trkpt lat="45.06247" lon="3.54303">
        <ele>638.93</ele>
        <time>2016-10-30T14:19:51Z</time>
      </trkpt>
      <trkpt lat="45.06228" lon="3.54306">
        <ele>635.09</ele>
        <time>2016-10-30T14:20:02Z</time>
      </trkpt>
      <trkpt lat="45.06218" lon="3.54306">
        <ele>633.17</ele>
        <time>2016-10-30T14:20:08Z</time>
      </trkpt>
      <trkpt lat="45.06188" lon="3.54294">
        <ele>624.99</ele>
        <time>2016-10-30T14:20:29Z</time>
      </trkpt>
      <trkpt lat="45.06181" lon="3.54294">
        <ele>623.55</ele>
        <time>2016-10-30T14:20:35Z</time>
      </trkpt>
      <trkpt lat="45.06162" lon="3.54307">
        <ele>617.3</ele>
        <time>2016-10-30T14:20:51Z</time>
      </trkpt>
      <trkpt lat="45.06152" lon="3.54315">
        <ele>617.3</ele>
        <time>2016-10-30T14:21:01Z</time>
      </trkpt>
      <trkpt lat="45.06147" lon="3.54319">
        <ele>617.3</ele>
        <time>2016-10-30T14:21:05Z</time>
      </trkpt>
      <trkpt lat="45.06123" lon="3.54333">
        <ele>614.42</ele>
        <time>2016-10-30T14:21:24Z</time>
      </trkpt>
      <trkpt lat="45.06102" lon="3.54345">
        <ele>610.09</ele>
        <time>2016-10-30T14:21:41Z</time>
      </trkpt>
      <trkpt lat="45.06083" lon="3.5435">
        <ele>607.69</ele>
        <time>2016-10-30T14:21:55Z</time>
      </trkpt>
      <trkpt lat="45.06065" lon="3.54369">
        <ele>608.65</ele>
        <time>2016-10-30T14:22:13Z</time>
      </trkpt>
      <trkpt lat="45.06057" lon="3.54397">
        <ele>609.13</ele>
        <time>2016-10-30T14:22:31Z</time>
      </trkpt>
      <trkpt lat="45.06056" lon="3.54406">
        <ele>608.65</ele>
        <time>2016-10-30T14:22:36Z</time>
      </trkpt>
      <trkpt lat="45.06067" lon="3.54427">
        <ele>608.65</ele>
        <time>2016-10-30T14:22:52Z</time>
      </trkpt>
      <trkpt lat="45.06075" lon="3.54452">
        <ele>611.06</ele>
        <time>2016-10-30T14:23:08Z</time>
      </trkpt>
      <trkpt lat="45.06077" lon="3.54456">
        <ele>611.06</ele>
        <time>2016-10-30T14:23:11Z</time>
      </trkpt>
      <trkpt lat="45.06083" lon="3.54474">
        <ele>611.06</ele>
        <time>2016-10-30T14:23:22Z</time>
      </trkpt>
      <trkpt lat="45.06087" lon="3.54483">
        <ele>611.06</ele>
        <time>2016-10-30T14:23:32Z</time>
      </trkpt>
      <trkpt lat="45.06103" lon="3.54504">
        <ele>605.29</ele>
        <time>2016-10-30T14:23:47Z</time>
      </trkpt>
      <trkpt lat="45.06123" lon="3.54516">
        <ele>601.44</ele>
        <time>2016-10-30T14:24:03Z</time>
      </trkpt>
      <trkpt lat="45.06138" lon="3.54522">
        <ele>600.48</ele>
        <time>2016-10-30T14:24:14Z</time>
      </trkpt>
      <trkpt lat="45.06151" lon="3.54527">
        <ele>601.44</ele>
        <time>2016-10-30T14:24:24Z</time>
      </trkpt>
      <trkpt lat="45.0617" lon="3.5453">
        <ele>601.44</ele>
        <time>2016-10-30T14:24:37Z</time>
      </trkpt>
      <trkpt lat="45.06189" lon="3.54526">
        <ele>599.52</ele>
        <time>2016-10-30T14:24:52Z</time>
      </trkpt>
      <trkpt lat="45.06206" lon="3.5452">
        <ele>597.6</ele>
        <time>2016-10-30T14:25:06Z</time>
      </trkpt>
      <trkpt lat="45.06218" lon="3.54516">
        <ele>594.71</ele>
        <time>2016-10-30T14:25:23Z</time>
      </trkpt>
      <trkpt lat="45.06236" lon="3.54502">
        <ele>591.83</ele>
        <time>2016-10-30T14:25:38Z</time>
      </trkpt>
      <trkpt lat="45.06246" lon="3.54495">
        <ele>593.27</ele>
        <time>2016-10-30T14:25:55Z</time>
      </trkpt>
      <trkpt lat="45.06257" lon="3.54486">
        <ele>594.23</ele>
        <time>2016-10-30T14:26:10Z</time>
      </trkpt>
      <trkpt lat="45.06275" lon="3.54474">
        <ele>588.46</ele>
        <time>2016-10-30T14:26:25Z</time>
      </trkpt>
      <trkpt lat="45.0628" lon="3.54468">
        <ele>588.46</ele>
        <time>2016-10-30T14:26:31Z</time>
      </trkpt>
      <trkpt lat="45.06306" lon="3.5445">
        <ele>588.95</ele>
        <time>2016-10-30T14:26:48Z</time>
      </trkpt>
      <trkpt lat="45.06325" lon="3.54439">
        <ele>585.58</ele>
        <time>2016-10-30T14:27:04Z</time>
      </trkpt>
      <trkpt lat="45.06349" lon="3.54437">
        <ele>582.7</ele>
        <time>2016-10-30T14:27:21Z</time>
      </trkpt>
      <trkpt lat="45.06365" lon="3.54437">
        <ele>575.49</ele>
        <time>2016-10-30T14:27:36Z</time>
      </trkpt>
      <trkpt lat="45.06382" lon="3.54436">
        <ele>575.01</ele>
        <time>2016-10-30T14:27:51Z</time>
      </trkpt>
      <trkpt lat="45.06389" lon="3.54443">
        <ele>577.89</ele>
        <time>2016-10-30T14:28:01Z</time>
      </trkpt>
      <trkpt lat="45.0639" lon="3.54445">
        <ele>579.33</ele>
        <time>2016-10-30T14:28:03Z</time>
      </trkpt>
      <trkpt lat="45.06408" lon="3.54452">
        <ele>587.98</ele>
        <time>2016-10-30T14:28:12Z</time>
      </trkpt>
      <trkpt lat="45.06412" lon="3.54455">
        <ele>590.39</ele>
        <time>2016-10-30T14:28:15Z</time>
      </trkpt>
      <trkpt lat="45.06426" lon="3.5447">
        <ele>596.15</ele>
        <time>2016-10-30T14:28:29Z</time>
      </trkpt>
      <trkpt lat="45.0644" lon="3.54479">
        <ele>601.92</ele>
        <time>2016-10-30T14:28:42Z</time>
      </trkpt>
      <trkpt lat="45.06457" lon="3.54485">
        <ele>605.77</ele>
        <time>2016-10-30T14:28:56Z</time>
      </trkpt>
      <trkpt lat="45.0648" lon="3.54492">
        <ele>605.77</ele>
        <time>2016-10-30T14:29:11Z</time>
      </trkpt>
      <trkpt lat="45.06497" lon="3.54496">
        <ele>604.33</ele>
        <time>2016-10-30T14:29:24Z</time>
      </trkpt>
      <trkpt lat="45.06512" lon="3.54504">
        <ele>602.88</ele>
        <time>2016-10-30T14:29:38Z</time>
      </trkpt>
      <trkpt lat="45.0653" lon="3.54518">
        <ele>601.92</ele>
        <time>2016-10-30T14:29:52Z</time>
      </trkpt>
      <trkpt lat="45.06542" lon="3.54525">
        <ele>605.77</ele>
        <time>2016-10-30T14:30:06Z</time>
      </trkpt>
      <trkpt lat="45.06561" lon="3.5453">
        <ele>603.36</ele>
        <time>2016-10-30T14:30:19Z</time>
      </trkpt>
      <trkpt lat="45.06577" lon="3.54529">
        <ele>596.15</ele>
        <time>2016-10-30T14:30:33Z</time>
      </trkpt>
      <trkpt lat="45.06599" lon="3.54526">
        <ele>591.35</ele>
        <time>2016-10-30T14:30:47Z</time>
      </trkpt>
      <trkpt lat="45.0662" lon="3.54524">
        <ele>588.95</ele>
        <time>2016-10-30T14:30:59Z</time>
      </trkpt>
      <trkpt lat="45.06629" lon="3.54515">
        <ele>586.54</ele>
        <time>2016-10-30T14:31:13Z</time>
      </trkpt>
      <trkpt lat="45.06635" lon="3.54501">
        <ele>589.91</ele>
        <time>2016-10-30T14:31:26Z</time>
      </trkpt>
      <trkpt lat="45.06641" lon="3.5448">
        <ele>592.31</ele>
        <time>2016-10-30T14:31:40Z</time>
      </trkpt>
      <trkpt lat="45.06645" lon="3.54454">
        <ele>594.71</ele>
        <time>2016-10-30T14:31:55Z</time>
      </trkpt>
      <trkpt lat="45.06647" lon="3.54429">
        <ele>596.64</ele>
        <time>2016-10-30T14:32:09Z</time>
      </trkpt>
      <trkpt lat="45.06651" lon="3.54411">
        <ele>596.64</ele>
        <time>2016-10-30T14:32:19Z</time>
      </trkpt>
      <trkpt lat="45.06655" lon="3.54393">
        <ele>594.23</ele>
        <time>2016-10-30T14:32:27Z</time>
      </trkpt>
      <trkpt lat="45.06658" lon="3.54369">
        <ele>593.75</ele>
        <time>2016-10-30T14:32:39Z</time>
      </trkpt>
      <trkpt lat="45.06664" lon="3.54341">
        <ele>591.35</ele>
        <time>2016-10-30T14:32:55Z</time>
      </trkpt>
      <trkpt lat="45.0666" lon="3.54321">
        <ele>588.95</ele>
        <time>2016-10-30T14:33:09Z</time>
      </trkpt>
      <trkpt lat="45.0666" lon="3.5432">
        <ele>589.43</ele>
        <time>2016-10-30T14:33:10Z</time>
      </trkpt>
      <trkpt lat="45.06657" lon="3.54306">
        <ele>593.27</ele>
        <time>2016-10-30T14:33:23Z</time>
      </trkpt>
      <trkpt lat="45.06648" lon="3.54281">
        <ele>598.56</ele>
        <time>2016-10-30T14:33:37Z</time>
      </trkpt>
      <trkpt lat="45.06641" lon="3.54262">
        <ele>602.88</ele>
        <time>2016-10-30T14:33:50Z</time>
      </trkpt>
      <trkpt lat="45.06636" lon="3.54239">
        <ele>602.88</ele>
        <time>2016-10-30T14:34:02Z</time>
      </trkpt>
      <trkpt lat="45.06634" lon="3.54214">
        <ele>603.36</ele>
        <time>2016-10-30T14:34:16Z</time>
      </trkpt>
      <trkpt lat="45.06634" lon="3.54191">
        <ele>604.81</ele>
        <time>2016-10-30T14:34:30Z</time>
      </trkpt>
      <trkpt lat="45.06632" lon="3.54173">
        <ele>605.29</ele>
        <time>2016-10-30T14:34:43Z</time>
      </trkpt>
      <trkpt lat="45.06631" lon="3.54149">
        <ele>600.96</ele>
        <time>2016-10-30T14:34:55Z</time>
      </trkpt>
      <trkpt lat="45.06628" lon="3.54132">
        <ele>595.19</ele>
        <time>2016-10-30T14:35:08Z</time>
      </trkpt>
      <trkpt lat="45.06628" lon="3.54114">
        <ele>591.83</ele>
        <time>2016-10-30T14:35:20Z</time>
      </trkpt>
      <trkpt lat="45.06627" lon="3.54097">
        <ele>591.83</ele>
        <time>2016-10-30T14:35:33Z</time>
      </trkpt>
      <trkpt lat="45.06623" lon="3.54073">
        <ele>594.71</ele>
        <time>2016-10-30T14:35:45Z</time>
      </trkpt>
      <trkpt lat="45.06624" lon="3.54051">
        <ele>595.19</ele>
        <time>2016-10-30T14:35:58Z</time>
      </trkpt>
      <trkpt lat="45.06624" lon="3.54039">
        <ele>592.31</ele>
        <time>2016-10-30T14:36:05Z</time>
      </trkpt>
      <trkpt lat="45.0663" lon="3.54018">
        <ele>588.46</ele>
        <time>2016-10-30T14:36:19Z</time>
      </trkpt>
      <trkpt lat="45.06631" lon="3.54008">
        <ele>586.54</ele>
        <time>2016-10-30T14:36:31Z</time>
      </trkpt>
      <trkpt lat="45.06634" lon="3.53986">
        <ele>586.06</ele>
        <time>2016-10-30T14:36:44Z</time>
      </trkpt>
      <trkpt lat="45.06636" lon="3.53967">
        <ele>583.66</ele>
        <time>2016-10-30T14:36:55Z</time>
      </trkpt>
      <trkpt lat="45.06635" lon="3.53956">
        <ele>585.58</ele>
        <time>2016-10-30T14:37:08Z</time>
      </trkpt>
      <trkpt lat="45.06635" lon="3.53952">
        <ele>586.06</ele>
        <time>2016-10-30T14:37:20Z</time>
      </trkpt>
      <trkpt lat="45.06635" lon="3.53951">
        <ele>587.02</ele>
        <time>2016-10-30T14:37:38Z</time>
      </trkpt>
      <trkpt lat="45.06634" lon="3.53942">
        <ele>586.06</ele>
        <time>2016-10-30T14:37:50Z</time>
      </trkpt>
      <trkpt lat="45.0664" lon="3.53931">
        <ele>583.18</ele>
        <time>2016-10-30T14:38:07Z</time>
      </trkpt>
      <trkpt lat="45.06649" lon="3.53926">
        <ele>578.85</ele>
        <time>2016-10-30T14:38:21Z</time>
      </trkpt>
      <trkpt lat="45.0666" lon="3.53918">
        <ele>578.37</ele>
        <time>2016-10-30T14:38:33Z</time>
      </trkpt>
      <trkpt lat="45.06673" lon="3.53908">
        <ele>578.37</ele>
        <time>2016-10-30T14:38:49Z</time>
      </trkpt>
      <trkpt lat="45.06675" lon="3.53894">
        <ele>573.56</ele>
        <time>2016-10-30T14:39:01Z</time>
      </trkpt>
      <trkpt lat="45.06681" lon="3.53878">
        <ele>569.24</ele>
        <time>2016-10-30T14:39:12Z</time>
      </trkpt>
      <trkpt lat="45.06682" lon="3.53876">
        <ele>569.24</ele>
        <time>2016-10-30T14:39:15Z</time>
      </trkpt>
      <trkpt lat="45.06695" lon="3.5385">
        <ele>567.32</ele>
        <time>2016-10-30T14:39:31Z</time>
      </trkpt>
      <trkpt lat="45.06708" lon="3.53823">
        <ele>566.35</ele>
        <time>2016-10-30T14:39:43Z</time>
      </trkpt>
      <trkpt lat="45.06714" lon="3.53813">
        <ele>564.91</ele>
        <time>2016-10-30T14:39:51Z</time>
      </trkpt>
      <trkpt lat="45.06718" lon="3.53794">
        <ele>559.14</ele>
        <time>2016-10-30T14:40:04Z</time>
      </trkpt>
      <trkpt lat="45.06721" lon="3.53777">
        <ele>555.3</ele>
        <time>2016-10-30T14:40:16Z</time>
      </trkpt>
      <trkpt lat="45.06726" lon="3.53758">
        <ele>553.38</ele>
        <time>2016-10-30T14:40:30Z</time>
      </trkpt>
      <trkpt lat="45.06726" lon="3.53742">
        <ele>550.01</ele>
        <time>2016-10-30T14:40:45Z</time>
      </trkpt>
      <trkpt lat="45.06747" lon="3.53725">
        <ele>550.49</ele>
        <time>2016-10-30T14:41:02Z</time>
      </trkpt>
      <trkpt lat="45.06758" lon="3.53709">
        <ele>547.61</ele>
        <time>2016-10-30T14:41:15Z</time>
      </trkpt>
      <trkpt lat="45.06758" lon="3.53706">
        <ele>547.13</ele>
        <time>2016-10-30T14:41:17Z</time>
      </trkpt>
      <trkpt lat="45.06768" lon="3.53688">
        <ele>543.76</ele>
        <time>2016-10-30T14:41:33Z</time>
      </trkpt>
      <trkpt lat="45.06776" lon="3.53672">
        <ele>543.28</ele>
        <time>2016-10-30T14:41:46Z</time>
      </trkpt>
      <trkpt lat="45.06792" lon="3.53645">
        <ele>539.44</ele>
        <time>2016-10-30T14:41:58Z</time>
      </trkpt>
      <trkpt lat="45.06795" lon="3.53636">
        <ele>537.99</ele>
        <time>2016-10-30T14:42:03Z</time>
      </trkpt>
      <trkpt lat="45.06806" lon="3.53623">
        <ele>536.55</ele>
        <time>2016-10-30T14:42:14Z</time>
      </trkpt>
      <trkpt lat="45.0682" lon="3.53598">
        <ele>533.19</ele>
        <time>2016-10-30T14:42:29Z</time>
      </trkpt>
      <trkpt lat="45.06836" lon="3.53576">
        <ele>531.75</ele>
        <time>2016-10-30T14:42:44Z</time>
      </trkpt>
      <trkpt lat="45.0685" lon="3.53555">
        <ele>530.79</ele>
        <time>2016-10-30T14:42:58Z</time>
      </trkpt>
      <trkpt lat="45.06858" lon="3.53543">
        <ele>531.75</ele>
        <time>2016-10-30T14:43:06Z</time>
      </trkpt>
      <trkpt lat="45.06861" lon="3.53537">
        <ele>532.23</ele>
        <time>2016-10-30T14:43:10Z</time>
      </trkpt>
      <trkpt lat="45.06876" lon="3.53514">
        <ele>529.82</ele>
        <time>2016-10-30T14:43:25Z</time>
      </trkpt>
      <trkpt lat="45.06888" lon="3.53494">
        <ele>530.3</ele>
        <time>2016-10-30T14:43:39Z</time>
      </trkpt>
      <trkpt lat="45.06894" lon="3.5348">
        <ele>527.9</ele>
        <time>2016-10-30T14:43:48Z</time>
      </trkpt>
      <trkpt lat="45.06901" lon="3.53467">
        <ele>526.46</ele>
        <time>2016-10-30T14:43:57Z</time>
      </trkpt>
      <trkpt lat="45.06913" lon="3.53444">
        <ele>524.54</ele>
        <time>2016-10-30T14:44:11Z</time>
      </trkpt>
      <trkpt lat="45.06922" lon="3.53423">
        <ele>524.54</ele>
        <time>2016-10-30T14:44:25Z</time>
      </trkpt>
      <trkpt lat="45.06937" lon="3.53395">
        <ele>527.42</ele>
        <time>2016-10-30T14:44:39Z</time>
      </trkpt>
      <trkpt lat="45.06954" lon="3.53372">
        <ele>530.3</ele>
        <time>2016-10-30T14:44:54Z</time>
      </trkpt>
      <trkpt lat="45.06973" lon="3.53345">
        <ele>529.34</ele>
        <time>2016-10-30T14:45:11Z</time>
      </trkpt>
      <trkpt lat="45.06992" lon="3.53316">
        <ele>529.82</ele>
        <time>2016-10-30T14:45:29Z</time>
      </trkpt>
      <trkpt lat="45.07009" lon="3.5329">
        <ele>529.82</ele>
        <time>2016-10-30T14:45:46Z</time>
      </trkpt>
      <trkpt lat="45.07028" lon="3.53268">
        <ele>529.82</ele>
        <time>2016-10-30T14:46:03Z</time>
      </trkpt>
      <trkpt lat="45.07047" lon="3.53245">
        <ele>528.38</ele>
        <time>2016-10-30T14:46:19Z</time>
      </trkpt>
      <trkpt lat="45.07065" lon="3.53221">
        <ele>527.9</ele>
        <time>2016-10-30T14:46:36Z</time>
      </trkpt>
      <trkpt lat="45.07086" lon="3.532">
        <ele>528.38</ele>
        <time>2016-10-30T14:46:52Z</time>
      </trkpt>
      <trkpt lat="45.07101" lon="3.53165">
        <ele>529.82</ele>
        <time>2016-10-30T14:47:11Z</time>
      </trkpt>
      <trkpt lat="45.07115" lon="3.53139">
        <ele>530.79</ele>
        <time>2016-10-30T14:47:28Z</time>
      </trkpt>
      <trkpt lat="45.07118" lon="3.5313">
        <ele>530.3</ele>
        <time>2016-10-30T14:47:34Z</time>
      </trkpt>
      <trkpt lat="45.07136" lon="3.53121">
        <ele>532.23</ele>
        <time>2016-10-30T14:47:48Z</time>
      </trkpt>
      <trkpt lat="45.07152" lon="3.53145">
        <ele>528.86</ele>
        <time>2016-10-30T14:48:04Z</time>
      </trkpt>
      <trkpt lat="45.07168" lon="3.53169">
        <ele>525.98</ele>
        <time>2016-10-30T14:48:21Z</time>
      </trkpt>
      <trkpt lat="45.0717" lon="3.53172">
        <ele>525.98</ele>
        <time>2016-10-30T14:48:23Z</time>
      </trkpt>
      <trkpt lat="45.07176" lon="3.53182">
        <ele>526.46</ele>
        <time>2016-10-30T14:48:30Z</time>
      </trkpt>
      <trkpt lat="45.07195" lon="3.53207">
        <ele>527.9</ele>
        <time>2016-10-30T14:48:49Z</time>
      </trkpt>
      <trkpt lat="45.07209" lon="3.53229">
        <ele>531.75</ele>
        <time>2016-10-30T14:49:06Z</time>
      </trkpt>
      <trkpt lat="45.0721" lon="3.53237">
        <ele>530.79</ele>
        <time>2016-10-30T14:49:10Z</time>
      </trkpt>
      <trkpt lat="45.07211" lon="3.53243">
        <ele>530.3</ele>
        <time>2016-10-30T14:49:14Z</time>
      </trkpt>
      <trkpt lat="45.07211" lon="3.53276">
        <ele>529.34</ele>
        <time>2016-10-30T14:49:32Z</time>
      </trkpt>
      <trkpt lat="45.07225" lon="3.53298">
        <ele>530.3</ele>
        <time>2016-10-30T14:49:51Z</time>
      </trkpt>
      <trkpt lat="45.07226" lon="3.53305">
        <ele>529.82</ele>
        <time>2016-10-30T14:50:03Z</time>
      </trkpt>
      <trkpt lat="45.07232" lon="3.53311">
        <ele>529.34</ele>
        <time>2016-10-30T14:50:17Z</time>
      </trkpt>
      <trkpt lat="45.07235" lon="3.53316">
        <ele>529.34</ele>
        <time>2016-10-30T14:50:21Z</time>
      </trkpt>
      <trkpt lat="45.07237" lon="3.53319">
        <ele>529.82</ele>
        <time>2016-10-30T14:50:24Z</time>
      </trkpt>
      <trkpt lat="45.07231" lon="3.53338">
        <ele>532.71</ele>
        <time>2016-10-30T14:50:39Z</time>
      </trkpt>
      <trkpt lat="45.07232" lon="3.53342">
        <ele>533.67</ele>
        <time>2016-10-30T14:50:43Z</time>
      </trkpt>
      <trkpt lat="45.07247" lon="3.53335">
        <ele>538.96</ele>
        <time>2016-10-30T14:51:00Z</time>
      </trkpt>
      <trkpt lat="45.07253" lon="3.53333">
        <ele>539.44</ele>
        <time>2016-10-30T14:51:05Z</time>
      </trkpt>
      <trkpt lat="45.07263" lon="3.53334">
        <ele>540.4</ele>
        <time>2016-10-30T14:51:20Z</time>
      </trkpt>
      <trkpt lat="45.07269" lon="3.53333">
        <ele>541.36</ele>
        <time>2016-10-30T14:51:33Z</time>
      </trkpt>
      <trkpt lat="45.07268" lon="3.53332">
        <ele>542.8</ele>
        <time>2016-10-30T14:51:44Z</time>
      </trkpt>
      <trkpt lat="45.07279" lon="3.53329">
        <ele>545.2</ele>
        <time>2016-10-30T14:51:58Z</time>
      </trkpt>
      <trkpt lat="45.07279" lon="3.53332">
        <ele>547.13</ele>
        <time>2016-10-30T14:52:09Z</time>
      </trkpt>
      <trkpt lat="45.07279" lon="3.53343">
        <ele>548.57</ele>
        <time>2016-10-30T14:52:21Z</time>
      </trkpt>
      <trkpt lat="45.07284" lon="3.53345">
        <ele>550.97</ele>
        <time>2016-10-30T14:52:31Z</time>
      </trkpt>
      <trkpt lat="45.07292" lon="3.53336">
        <ele>552.9</ele>
        <time>2016-10-30T14:52:44Z</time>
      </trkpt>
      <trkpt lat="45.07304" lon="3.53326">
        <ele>554.82</ele>
        <time>2016-10-30T14:52:56Z</time>
      </trkpt>
      <trkpt lat="45.07307" lon="3.53322">
        <ele>555.3</ele>
        <time>2016-10-30T14:52:59Z</time>
      </trkpt>
      <trkpt lat="45.07314" lon="3.53309">
        <ele>555.78</ele>
        <time>2016-10-30T14:53:10Z</time>
      </trkpt>
      <trkpt lat="45.07317" lon="3.53305">
        <ele>556.74</ele>
        <time>2016-10-30T14:53:14Z</time>
      </trkpt>
      <trkpt lat="45.07325" lon="3.53289">
        <ele>558.66</ele>
        <time>2016-10-30T14:53:26Z</time>
      </trkpt>
      <trkpt lat="45.07328" lon="3.53288">
        <ele>560.11</ele>
        <time>2016-10-30T14:53:30Z</time>
      </trkpt>
      <trkpt lat="45.07331" lon="3.53289">
        <ele>561.55</ele>
        <time>2016-10-30T14:53:33Z</time>
      </trkpt>
      <trkpt lat="45.07335" lon="3.53293">
        <ele>562.99</ele>
        <time>2016-10-30T14:53:39Z</time>
      </trkpt>
      <trkpt lat="45.07335" lon="3.53291">
        <ele>562.51</ele>
        <time>2016-10-30T14:53:49Z</time>
      </trkpt>
      <trkpt lat="45.07335" lon="3.53292">
        <ele>562.51</ele>
        <time>2016-10-30T14:54:01Z</time>
      </trkpt>
      <trkpt lat="45.07336" lon="3.53292">
        <ele>562.99</ele>
        <time>2016-10-30T14:54:26Z</time>
      </trkpt>
      <trkpt lat="45.07337" lon="3.53292">
        <ele>563.95</ele>
        <time>2016-10-30T14:54:46Z</time>
      </trkpt>
      <trkpt lat="45.07337" lon="3.53293">
        <ele>564.43</ele>
        <time>2016-10-30T14:55:15Z</time>
      </trkpt>
    </trkseg>
  </trk>
</gpx>